Darstellungsparameter: Aktuell verwendete Einstellungen:
Skalierung der Graphiken ... ?
xyx+y,   Skalierungsfaktor:      Skalierung: Modus: x, Faktor: 1
Darstellungszeitraum ... ?
Vom - - bis: - -   Zeitraum: 26.07.2019 - 15.08.2019
Min/Max/Avg-Anzeige ... ?
Zeige MMA aktuell
Zeige MMA Monat
Zeige MMA alles
Zeige --A aktuell
Zeige --A Monat
Zeige --A alles
Keine MMA-Anzeige
MMA:
Keine MMA-Graphiken
MMA-Basis: 26.07.2019 - 15.08.2019
Quicknavigation für Darstellung... ?
Tage:      1T, 2T, 3T, 5T -1T -2T -3T -5T +1T +2T +3T +5T
Wochen: 1W, 2W, 3W -1W -2W -3W +1W +2W +3W
Monate: 1M, 3M, 6M -1M -3M -6M +1M +3M +6M
Jahre:    1J, 3J, 5J, 10J -1J -3J -5J -10J +1J +3J +5J +10J
Nutze für die Darstellung ... ?
Originaldaten oder Mittelwerte auf ...
Stundenbasis Tagesbasis Wochenbasis
Monatsbasis Jahresbasis      Datenbasis: Original-Daten
Darstellen als:
Statistik (Auto) Statistik J:M      Darstellung:
Zur Graphik,    zurück zur Übersicht aller Sensoren.
 
Tabellarische Datenbersicht: ?
 
Sensor: Nr:Datum:Temp:Feuchte:Taupunkt:
Aussen-T/F 1 26-07-2019 00:00:00 26.8 C 53 % 16.42 C
2 26-07-2019 00:05:00 26.7 C 53 % 16.33 C
3 26-07-2019 00:10:00 26.5 C 52 % 15.84 C
4 26-07-2019 00:15:00 26.4 C 53 % 16.05 C
5 26-07-2019 00:20:00 26.3 C 53 % 15.96 C
6 26-07-2019 00:25:00 26.2 C 54 % 16.16 C
7 26-07-2019 00:30:00 26.1 C 54 % 16.07 C
8 26-07-2019 00:35:00 26 C 53 % 15.68 C
9 26-07-2019 00:40:00 25.9 C 54 % 15.88 C
10 26-07-2019 00:45:00 25.9 C 54 % 15.88 C
11 26-07-2019 00:50:00 25.8 C 54 % 15.79 C
12 26-07-2019 00:55:00 25.7 C 54 % 15.7 C
13 26-07-2019 01:00:00 25.6 C 54 % 15.6 C
14 26-07-2019 01:05:00 25.5 C 55 % 15.8 C
15 26-07-2019 01:10:00 25.4 C 54 % 15.42 C
16 26-07-2019 01:15:00 25.3 C 56 % 15.89 C
17 26-07-2019 01:20:00 25.2 C 56 % 15.8 C
18 26-07-2019 01:25:00 25.2 C 57 % 16.08 C
19 26-07-2019 01:30:00 25.1 C 56 % 15.71 C
20 26-07-2019 01:35:00 24.9 C 58 % 16.07 C
21 26-07-2019 01:40:00 24.8 C 59 % 16.24 C
22 26-07-2019 01:45:00 24.6 C 60 % 16.32 C
23 26-07-2019 01:50:00 24.3 C 60 % 16.04 C
24 26-07-2019 01:55:00 24.1 C 60 % 15.85 C
25 26-07-2019 02:00:00 23.8 C 62 % 16.08 C
Sensor: Nr:Datum:Temp:Feuchte:Taupunkt:
Aussen-T/F 26 26-07-2019 02:05:00 23.6 C 64 % 16.39 C
27 26-07-2019 02:10:00 23.3 C 65 % 16.35 C
28 26-07-2019 02:15:00 23 C 66 % 16.31 C
29 26-07-2019 02:20:00 22.8 C 67 % 16.35 C
30 26-07-2019 02:25:00 22.6 C 68 % 16.39 C
31 26-07-2019 02:30:00 22.3 C 69 % 16.34 C
32 26-07-2019 02:35:00 22.2 C 69 % 16.24 C
33 26-07-2019 02:40:00 21.9 C 69 % 15.96 C
34 26-07-2019 02:45:00 21.7 C 68 % 15.54 C
35 26-07-2019 02:50:00 21.6 C 69 % 15.67 C
36 26-07-2019 02:55:00 21.4 C 68 % 15.25 C
37 26-07-2019 03:00:00 21.3 C 70 % 15.61 C
38 26-07-2019 03:05:00 21.2 C 71 % 15.73 C
39 26-07-2019 03:10:00 21.2 C 71 % 15.73 C
40 26-07-2019 03:15:00 21.1 C 70 % 15.42 C
41 26-07-2019 03:20:00 21.1 C 71 % 15.64 C
42 26-07-2019 03:25:00 21 C 71 % 15.54 C
43 26-07-2019 03:30:00 21 C 72 % 15.76 C
44 26-07-2019 03:35:00 20.9 C 72 % 15.66 C
45 26-07-2019 03:40:00 20.8 C 72 % 15.57 C
46 26-07-2019 03:45:00 20.8 C 72 % 15.57 C
47 26-07-2019 03:50:00 20.8 C 74 % 16 C
48 26-07-2019 03:55:00 20.7 C 74 % 15.9 C
49 26-07-2019 04:00:00 20.7 C 74 % 15.9 C
50 26-07-2019 04:05:00 20.6 C 75 % 16.01 C
Sensor: Nr:Datum:Temp:Feuchte:Taupunkt:
Aussen-T/F 51 26-07-2019 04:10:00 20.4 C 75 % 15.82 C
52 26-07-2019 04:15:00 20.3 C 75 % 15.72 C
53 26-07-2019 04:20:00 20.3 C 76 % 15.93 C
54 26-07-2019 04:25:00 20.2 C 77 % 16.04 C
55 26-07-2019 04:30:00 20.1 C 77 % 15.94 C
56 26-07-2019 04:35:00 19.9 C 77 % 15.75 C
57 26-07-2019 04:40:00 19.9 C 78 % 15.95 C
58 26-07-2019 04:45:00 19.8 C 78 % 15.85 C
59 26-07-2019 04:50:00 19.7 C 78 % 15.76 C
60 26-07-2019 04:55:00 19.6 C 79 % 15.86 C
61 26-07-2019 05:00:00 19.6 C 79 % 15.86 C
62 26-07-2019 05:05:00 19.5 C 78 % 15.56 C
63 26-07-2019 05:10:00 19.4 C 78 % 15.47 C
64 26-07-2019 05:15:00 19.3 C 78 % 15.37 C
65 26-07-2019 05:20:00 19.3 C 79 % 15.57 C
66 26-07-2019 05:25:00 19.3 C 78 % 15.37 C
67 26-07-2019 05:30:00 19.3 C 80 % 15.76 C
68 26-07-2019 05:35:00 19.3 C 80 % 15.76 C
69 26-07-2019 05:40:00 19.2 C 80 % 15.67 C
70 26-07-2019 05:45:00 19.2 C 80 % 15.67 C
71 26-07-2019 05:50:00 19.1 C 79 % 15.37 C
72 26-07-2019 05:55:00 19 C 79 % 15.28 C
73 26-07-2019 06:00:00 18.9 C 80 % 15.38 C
74 26-07-2019 06:05:00 19 C 79 % 15.28 C
75 26-07-2019 06:10:00 19 C 79 % 15.28 C
Sensor: Nr:Datum:Temp:Feuchte:Taupunkt:
Aussen-T/F 76 26-07-2019 06:15:00 18.9 C 80 % 15.38 C
77 26-07-2019 06:20:00 18.9 C 80 % 15.38 C
78 26-07-2019 06:25:00 18.9 C 80 % 15.38 C
79 26-07-2019 06:30:00 18.9 C 80 % 15.38 C
80 26-07-2019 06:35:00 18.9 C 81 % 15.57 C
81 26-07-2019 06:40:00 18.9 C 81 % 15.57 C
82 26-07-2019 06:45:00 19 C 81 % 15.67 C
83 26-07-2019 06:50:00 19.1 C 81 % 15.76 C
84 26-07-2019 06:55:00 19.1 C 82 % 15.96 C
85 26-07-2019 07:00:00 19.2 C 83 % 16.24 C
86 26-07-2019 07:05:00 19.3 C 83 % 16.34 C
87 26-07-2019 07:10:00 19.3 C 83 % 16.34 C
88 26-07-2019 07:15:00 19.4 C 83 % 16.44 C
89 26-07-2019 07:20:00 19.4 C 82 % 16.25 C
90 26-07-2019 07:25:00 19.5 C 83 % 16.54 C
91 26-07-2019 07:30:00 19.6 C 83 % 16.63 C
92 26-07-2019 07:35:00 19.7 C 83 % 16.73 C
93 26-07-2019 07:40:00 19.8 C 83 % 16.83 C
94 26-07-2019 07:45:00 19.9 C 82 % 16.74 C
95 26-07-2019 07:50:00 20.1 C 81 % 16.74 C
96 26-07-2019 07:55:00 20.2 C 81 % 16.84 C
97 26-07-2019 08:00:00 20.4 C 81 % 17.03 C
98 26-07-2019 08:05:00 20.5 C 82 % 17.32 C
99 26-07-2019 08:10:00 20.6 C 81 % 17.22 C
100 26-07-2019 08:15:00 20.7 C 82 % 17.52 C
Sensor: Nr:Datum:Temp:Feuchte:Taupunkt:
Aussen-T/F 101 26-07-2019 08:20:00 20.8 C 81 % 17.42 C
102 26-07-2019 08:25:00 20.9 C 80 % 17.32 C
103 26-07-2019 08:30:00 21.1 C 79 % 17.32 C
104 26-07-2019 08:35:00 21.3 C 79 % 17.51 C
105 26-07-2019 08:40:00 21.5 C 78 % 17.5 C
106 26-07-2019 08:45:00 21.7 C 79 % 17.9 C
107 26-07-2019 08:50:00 21.9 C 80 % 18.29 C
108 26-07-2019 08:55:00 21.9 C 78 % 17.89 C
109 26-07-2019 09:00:00 22.1 C 76 % 17.67 C
110 26-07-2019 09:05:00 22.3 C 76 % 17.86 C
111 26-07-2019 09:10:00 22.4 C 74 % 17.54 C
112 26-07-2019 09:15:00 22.7 C 73 % 17.61 C
113 26-07-2019 09:20:00 22.9 C 74 % 18.02 C
114 26-07-2019 09:25:00 23.1 C 70 % 17.33 C
115 26-07-2019 09:30:00 23.4 C 70 % 17.62 C
116 26-07-2019 09:35:00 23.7 C 67 % 17.21 C
117 26-07-2019 09:40:00 24.2 C 67 % 17.68 C
118 26-07-2019 09:45:00 24.6 C 66 % 17.83 C
119 26-07-2019 09:50:00 25 C 58 % 16.16 C
120 26-07-2019 09:55:00 25.7 C 60 % 17.35 C
121 26-07-2019 10:00:00 25.9 C 60 % 17.54 C
122 26-07-2019 10:05:00 26.3 C 58 % 17.38 C
123 26-07-2019 10:10:00 26.4 C 57 % 17.19 C
124 26-07-2019 10:15:00 26.8 C 55 % 17 C
125 26-07-2019 10:20:00 27.2 C 54 % 17.08 C
Sensor: Nr:Datum:Temp:Feuchte:Taupunkt:
Aussen-T/F 126 26-07-2019 10:25:00 27.6 C 48 % 15.6 C
127 26-07-2019 10:30:00 28.4 C 46 % 15.66 C
128 26-07-2019 10:35:00 29.1 C 46 % 16.3 C
129 26-07-2019 10:40:00 29.6 C 44 % 16.05 C
130 26-07-2019 10:45:00 30.1 C 43 % 16.14 C
131 26-07-2019 10:50:00 30.5 C 42 % 16.13 C
132 26-07-2019 10:55:00 30.8 C 41 % 16.02 C
133 26-07-2019 11:00:00 31 C 39 % 15.42 C
134 26-07-2019 11:05:00 31.2 C 39 % 15.6 C
135 26-07-2019 11:10:00 31.4 C 41 % 16.56 C
136 26-07-2019 11:15:00 31.5 C 40 % 16.26 C
137 26-07-2019 11:20:00 31.7 C 39 % 16.04 C
138 26-07-2019 11:25:00 31.9 C 40 % 16.62 C
139 26-07-2019 11:30:00 32.1 C 38 % 15.99 C
140 26-07-2019 11:35:00 32.3 C 40 % 16.97 C
141 26-07-2019 11:40:00 32.6 C 39 % 16.84 C
142 26-07-2019 11:45:00 32.8 C 37 % 16.19 C
143 26-07-2019 11:50:00 32.9 C 37 % 16.28 C
144 26-07-2019 11:55:00 33.2 C 37 % 16.54 C
145 26-07-2019 12:00:00 33.4 C 36 % 16.29 C
146 26-07-2019 12:05:00 33.6 C 35 % 16.02 C
147 26-07-2019 12:10:00 33.7 C 37 % 16.98 C
148 26-07-2019 12:15:00 33.8 C 35 % 16.19 C
149 26-07-2019 12:20:00 34.1 C 35 % 16.46 C
150 26-07-2019 12:25:00 34.2 C 36 % 16.99 C
Sensor: Nr:Datum:Temp:Feuchte:Taupunkt:
Aussen-T/F 151 26-07-2019 12:30:00 34.3 C 34 % 16.18 C
152 26-07-2019 12:35:00 34.5 C 34 % 16.35 C
153 26-07-2019 12:40:00 34.8 C 34 % 16.61 C
154 26-07-2019 12:45:00 35.1 C 33 % 16.4 C
155 26-07-2019 12:50:00 35.3 C 33 % 16.58 C
156 26-07-2019 12:55:00 35.4 C 32 % 16.18 C
157 26-07-2019 13:00:00 35.5 C 32 % 16.27 C
158 26-07-2019 13:05:00 35.6 C 31 % 15.86 C
159 26-07-2019 13:10:00 35.7 C 31 % 15.94 C
160 26-07-2019 13:15:00 35.7 C 32 % 16.44 C
161 26-07-2019 13:20:00 35.8 C 32 % 16.53 C
162 26-07-2019 13:25:00 35.8 C 31 % 16.03 C
163 26-07-2019 13:30:00 35.9 C 30 % 15.6 C
164 26-07-2019 13:35:00 36.1 C 31 % 16.29 C
165 26-07-2019 13:40:00 36.2 C 31 % 16.37 C
166 26-07-2019 13:45:00 36.4 C 31 % 16.54 C
167 26-07-2019 13:50:00 36.6 C 30 % 16.2 C
168 26-07-2019 13:55:00 36.8 C 29 % 15.84 C
169 26-07-2019 14:00:00 36.9 C 29 % 15.93 C
170 26-07-2019 14:05:00 36.9 C 28 % 15.38 C
171 26-07-2019 14:10:00 36.8 C 28 % 15.29 C
172 26-07-2019 14:15:00 36.9 C 28 % 15.38 C
173 26-07-2019 14:20:00 37.1 C 29 % 16.1 C
174 26-07-2019 14:25:00 37.4 C 27 % 15.24 C
175 26-07-2019 14:30:00 37.6 C 26 % 14.82 C
Sensor: Nr:Datum:Temp:Feuchte:Taupunkt:
Aussen-T/F 176 26-07-2019 14:35:00 37.8 C 26 % 14.99 C
177 26-07-2019 14:40:00 37.8 C 26 % 14.99 C
178 26-07-2019 14:45:00 37.7 C 24 % 13.67 C
179 26-07-2019 14:50:00 37.7 C 26 % 14.9 C
180 26-07-2019 14:55:00 37.7 C 24 % 13.67 C
181 26-07-2019 15:00:00 38.1 C 25 % 14.63 C
182 26-07-2019 15:05:00 38.3 C 25 % 14.8 C
183 26-07-2019 15:10:00 38.6 C 24 % 14.42 C
184 26-07-2019 15:15:00 38.7 C 25 % 15.13 C
185 26-07-2019 15:20:00 38.3 C 27 % 16 C
186 26-07-2019 15:25:00 37.3 C 30 % 16.8 C
187 26-07-2019 15:30:00 36.8 C 30 % 16.37 C
188 26-07-2019 15:35:00 36.3 C 31 % 16.46 C
189 26-07-2019 15:40:00 35.9 C 31 % 16.11 C
190 26-07-2019 15:45:00 35.6 C 32 % 16.35 C
191 26-07-2019 15:50:00 35.7 C 30 % 15.43 C
192 26-07-2019 15:55:00 35.6 C 30 % 15.34 C
193 26-07-2019 16:00:00 35.4 C 31 % 15.68 C
194 26-07-2019 16:05:00 35.3 C 32 % 16.09 C
195 26-07-2019 16:10:00 35.4 C 32 % 16.18 C
196 26-07-2019 16:15:00 35.4 C 31 % 15.68 C
197 26-07-2019 16:20:00 35.5 C 32 % 16.27 C
198 26-07-2019 16:25:00 35.6 C 37 % 18.65 C
199 26-07-2019 16:30:00 35.6 C 39 % 19.5 C
200 26-07-2019 16:35:00 35.6 C 40 % 19.91 C
Sensor: Nr:Datum:Temp:Feuchte:Taupunkt:
Aussen-T/F 201 26-07-2019 16:40:00 35.3 C 32 % 16.09 C
202 26-07-2019 16:45:00 34.9 C 34 % 16.7 C
203 26-07-2019 16:50:00 34.8 C 35 % 17.07 C
204 26-07-2019 16:55:00 34.6 C 33 % 15.97 C
205 26-07-2019 17:00:00 34.2 C 35 % 16.54 C
206 26-07-2019 17:05:00 34.1 C 42 % 19.35 C
207 26-07-2019 17:10:00 33.5 C 39 % 17.64 C
208 26-07-2019 17:15:00 32.9 C 40 % 17.51 C
209 26-07-2019 17:20:00 32.6 C 42 % 18.01 C
210 26-07-2019 17:25:00 32.4 C 44 % 18.57 C
211 26-07-2019 17:30:00 32.2 C 45 % 18.75 C
212 26-07-2019 17:35:00 31.9 C 46 % 18.83 C
213 26-07-2019 17:40:00 31.8 C 43 % 17.67 C
214 26-07-2019 17:45:00 31.7 C 44 % 17.94 C
215 26-07-2019 17:50:00 31.4 C 45 % 18.03 C
216 26-07-2019 17:55:00 31.3 C 44 % 17.58 C
217 26-07-2019 18:00:00 31.2 C 45 % 17.85 C
218 26-07-2019 18:05:00 31.1 C 45 % 17.76 C
219 26-07-2019 18:10:00 30.9 C 44 % 17.22 C
220 26-07-2019 18:15:00 30.9 C 44 % 17.22 C
221 26-07-2019 18:20:00 30.8 C 44 % 17.13 C
222 26-07-2019 18:25:00 30.7 C 45 % 17.4 C
223 26-07-2019 18:30:00 30.6 C 45 % 17.31 C
224 26-07-2019 18:35:00 30.3 C 46 % 17.39 C
225 26-07-2019 18:40:00 30.1 C 46 % 17.2 C
Sensor: Nr:Datum:Temp:Feuchte:Taupunkt:
Aussen-T/F 226 26-07-2019 18:45:00 29.7 C 46 % 16.84 C
227 26-07-2019 18:50:00 29.6 C 48 % 17.42 C
228 26-07-2019 18:55:00 29.4 C 48 % 17.24 C
229 26-07-2019 19:00:00 29.3 C 49 % 17.48 C
230 26-07-2019 19:05:00 29.3 C 50 % 17.8 C
231 26-07-2019 19:10:00 29.2 C 50 % 17.71 C
232 26-07-2019 19:15:00 29.1 C 50 % 17.61 C
233 26-07-2019 19:20:00 29.1 C 52 % 18.24 C
234 26-07-2019 19:25:00 28.9 C 51 % 17.74 C
235 26-07-2019 19:30:00 28.8 C 53 % 18.26 C
236 26-07-2019 19:35:00 28.7 C 53 % 18.17 C
237 26-07-2019 19:40:00 28.6 C 54 % 18.38 C
238 26-07-2019 19:45:00 28.4 C 54 % 18.19 C
239 26-07-2019 19:50:00 28.3 C 54 % 18.1 C
240 26-07-2019 19:55:00 28.2 C 56 % 18.59 C
241 26-07-2019 20:00:00 28.1 C 56 % 18.49 C
242 26-07-2019 20:05:00 28 C 56 % 18.4 C
243 26-07-2019 20:10:00 27.9 C 57 % 18.59 C
244 26-07-2019 20:15:00 27.8 C 57 % 18.5 C
245 26-07-2019 20:20:00 27.7 C 58 % 18.68 C
246 26-07-2019 20:25:00 27.6 C 57 % 18.31 C
247 26-07-2019 20:30:00 27.5 C 59 % 18.77 C
248 26-07-2019 20:35:00 27.4 C 57 % 18.13 C
249 26-07-2019 20:40:00 27.2 C 59 % 18.49 C
250 26-07-2019 20:45:00 27.1 C 59 % 18.4 C
Sensor: Nr:Datum:Temp:Feuchte:Taupunkt:
Aussen-T/F 251 26-07-2019 20:50:00 27.1 C 59 % 18.4 C
252 26-07-2019 20:55:00 26.9 C 59 % 18.21 C
253 26-07-2019 21:00:00 26.8 C 59 % 18.11 C
254 26-07-2019 21:05:00 26.7 C 59 % 18.02 C
255 26-07-2019 21:10:00 26.7 C 59 % 18.02 C
256 26-07-2019 21:15:00 26.6 C 60 % 18.2 C
257 26-07-2019 21:20:00 26.4 C 59 % 17.74 C
258 26-07-2019 21:25:00 26.3 C 59 % 17.65 C
259 26-07-2019 21:30:00 26.2 C 59 % 17.55 C
260 26-07-2019 21:35:00 26.2 C 59 % 17.55 C
261 26-07-2019 21:40:00 26.1 C 59 % 17.46 C
262 26-07-2019 21:45:00 26.1 C 60 % 17.73 C
263 26-07-2019 21:50:00 26 C 60 % 17.63 C
264 26-07-2019 21:55:00 25.9 C 60 % 17.54 C
265 26-07-2019 22:00:00 25.9 C 60 % 17.54 C
266 26-07-2019 22:05:00 25.8 C 61 % 17.71 C
267 26-07-2019 22:10:00 25.7 C 61 % 17.61 C
268 26-07-2019 22:15:00 25.7 C 61 % 17.61 C
269 26-07-2019 22:20:00 25.7 C 62 % 17.87 C
270 26-07-2019 22:25:00 25.7 C 62 % 17.87 C
271 26-07-2019 22:30:00 25.6 C 63 % 18.03 C
272 26-07-2019 22:35:00 25.4 C 63 % 17.84 C
273 26-07-2019 22:40:00 25.3 C 62 % 17.5 C
274 26-07-2019 22:45:00 25.2 C 63 % 17.65 C
275 26-07-2019 22:50:00 25.1 C 63 % 17.56 C
Sensor: Nr:Datum:Temp:Feuchte:Taupunkt:
Aussen-T/F 276 26-07-2019 22:55:00 24.9 C 64 % 17.62 C
277 26-07-2019 23:00:00 24.8 C 65 % 17.77 C
278 26-07-2019 23:05:00 24.8 C 65 % 17.77 C
279 26-07-2019 23:10:00 24.7 C 66 % 17.92 C
280 26-07-2019 23:15:00 24.6 C 66 % 17.83 C
281 26-07-2019 23:20:00 24.5 C 67 % 17.97 C
282 26-07-2019 23:25:00 24.4 C 67 % 17.87 C
283 26-07-2019 23:30:00 24.3 C 67 % 17.78 C
284 26-07-2019 23:35:00 24.2 C 67 % 17.68 C
285 26-07-2019 23:40:00 24.2 C 67 % 17.68 C
286 26-07-2019 23:45:00 24.1 C 68 % 17.82 C
287 26-07-2019 23:50:00 23.9 C 68 % 17.63 C
288 26-07-2019 23:55:00 23.8 C 68 % 17.54 C
289 27-07-2019 00:00:00 23.6 C 69 % 17.58 C
290 27-07-2019 00:05:00 23.4 C 69 % 17.39 C
291 27-07-2019 00:10:00 23.3 C 69 % 17.29 C
292 27-07-2019 00:15:00 23.3 C 70 % 17.52 C
293 27-07-2019 00:20:00 23.2 C 70 % 17.42 C
294 27-07-2019 00:25:00 23.2 C 70 % 17.42 C
295 27-07-2019 00:30:00 23.1 C 70 % 17.33 C
296 27-07-2019 00:35:00 23.1 C 71 % 17.55 C
297 27-07-2019 00:40:00 23 C 71 % 17.46 C
298 27-07-2019 00:45:00 22.9 C 71 % 17.36 C
299 27-07-2019 00:50:00 22.9 C 71 % 17.36 C
300 27-07-2019 00:55:00 22.8 C 72 % 17.49 C
Sensor: Nr:Datum:Temp:Feuchte:Taupunkt:
Aussen-T/F 301 27-07-2019 01:00:00 22.8 C 72 % 17.49 C
302 27-07-2019 01:05:00 22.7 C 72 % 17.39 C
303 27-07-2019 01:10:00 22.7 C 73 % 17.61 C
304 27-07-2019 01:15:00 22.6 C 73 % 17.51 C
305 27-07-2019 01:20:00 22.7 C 74 % 17.83 C
306 27-07-2019 01:25:00 22.7 C 73 % 17.61 C
307 27-07-2019 01:30:00 22.7 C 73 % 17.61 C
308 27-07-2019 01:35:00 22.7 C 73 % 17.61 C
309 27-07-2019 01:40:00 22.7 C 74 % 17.83 C
310 27-07-2019 01:45:00 22.6 C 74 % 17.73 C
311 27-07-2019 01:50:00 22.4 C 74 % 17.54 C
312 27-07-2019 01:55:00 22.3 C 74 % 17.44 C
313 27-07-2019 02:00:00 22.3 C 74 % 17.44 C
314 27-07-2019 02:05:00 22.3 C 73 % 17.23 C
315 27-07-2019 02:10:00 22.3 C 73 % 17.23 C
316 27-07-2019 02:15:00 22.3 C 75 % 17.65 C
317 27-07-2019 02:20:00 22.4 C 75 % 17.75 C
318 27-07-2019 02:25:00 22.4 C 76 % 17.96 C
319 27-07-2019 02:30:00 22.4 C 76 % 17.96 C
320 27-07-2019 02:35:00 22.4 C 76 % 17.96 C
321 27-07-2019 02:40:00 22.3 C 76 % 17.86 C
322 27-07-2019 02:45:00 22.3 C 76 % 17.86 C
323 27-07-2019 02:50:00 22.3 C 76 % 17.86 C
324 27-07-2019 02:55:00 22.3 C 76 % 17.86 C
325 27-07-2019 03:00:00 22.3 C 76 % 17.86 C
Sensor: Nr:Datum:Temp:Feuchte:Taupunkt:
Aussen-T/F 326 27-07-2019 03:05:00 22.3 C 76 % 17.86 C
327 27-07-2019 03:10:00 22.3 C 74 % 17.44 C
328 27-07-2019 03:15:00 22.4 C 74 % 17.54 C
329 27-07-2019 03:20:00 22.5 C 73 % 17.42 C
330 27-07-2019 03:25:00 22.6 C 72 % 17.3 C
331 27-07-2019 03:30:00 22.6 C 71 % 17.07 C
332 27-07-2019 03:35:00 22.8 C 69 % 16.82 C
333 27-07-2019 03:40:00 23.2 C 75 % 18.52 C
334 27-07-2019 03:45:00 23.1 C 78 % 19.05 C
335 27-07-2019 03:50:00 22.7 C 79 % 18.87 C
336 27-07-2019 03:55:00 22.3 C 80 % 18.68 C
337 27-07-2019 04:00:00 21.9 C 83 % 18.88 C
338 27-07-2019 04:05:00 21.7 C 84 % 18.88 C
339 27-07-2019 04:10:00 21.4 C 85 % 18.77 C
340 27-07-2019 04:15:00 21.1 C 85 % 18.48 C
341 27-07-2019 04:20:00 20.9 C 86 % 18.47 C
342 27-07-2019 04:25:00 20.8 C 87 % 18.56 C
343 27-07-2019 04:30:00 20.7 C 87 % 18.46 C
344 27-07-2019 04:35:00 20.6 C 87 % 18.36 C
345 27-07-2019 04:40:00 20.5 C 88 % 18.44 C
346 27-07-2019 04:45:00 20.4 C 88 % 18.34 C
347 27-07-2019 04:50:00 20.4 C 88 % 18.34 C
348 27-07-2019 04:55:00 20.4 C 89 % 18.53 C
349 27-07-2019 05:00:00 20.4 C 88 % 18.34 C
350 27-07-2019 05:05:00 20.4 C 88 % 18.34 C
Sensor: Nr:Datum:Temp:Feuchte:Taupunkt:
Aussen-T/F 351 27-07-2019 05:10:00 20.3 C 89 % 18.43 C
352 27-07-2019 05:15:00 20.3 C 89 % 18.43 C
353 27-07-2019 05:20:00 20.3 C 89 % 18.43 C
354 27-07-2019 05:25:00 20.3 C 89 % 18.43 C
355 27-07-2019 05:30:00 20.2 C 89 % 18.33 C
356 27-07-2019 05:35:00 20.3 C 89 % 18.43 C
357 27-07-2019 05:40:00 20.2 C 89 % 18.33 C
358 27-07-2019 05:45:00 20.2 C 89 % 18.33 C
359 27-07-2019 05:50:00 20.2 C 89 % 18.33 C
360 27-07-2019 05:55:00 20.2 C 88 % 18.15 C
361 27-07-2019 06:00:00 20.2 C 88 % 18.15 C
362 27-07-2019 06:05:00 20.3 C 89 % 18.43 C
363 27-07-2019 06:10:00 20.3 C 88 % 18.25 C
364 27-07-2019 06:15:00 20.3 C 89 % 18.43 C
365 27-07-2019 06:20:00 20.3 C 88 % 18.25 C
366 27-07-2019 06:25:00 20.4 C 89 % 18.53 C
367 27-07-2019 06:30:00 20.6 C 89 % 18.72 C
368 27-07-2019 06:35:00 20.7 C 89 % 18.82 C
369 27-07-2019 06:40:00 20.7 C 88 % 18.64 C
370 27-07-2019 06:45:00 20.8 C 88 % 18.74 C
371 27-07-2019 06:50:00 20.8 C 89 % 18.92 C
372 27-07-2019 06:55:00 20.9 C 89 % 19.02 C
373 27-07-2019 07:00:00 20.9 C 89 % 19.02 C
374 27-07-2019 07:05:00 21 C 89 % 19.12 C
375 27-07-2019 07:10:00 20.9 C 88 % 18.84 C
Sensor: Nr:Datum:Temp:Feuchte:Taupunkt:
Aussen-T/F 376 27-07-2019 07:15:00 21 C 89 % 19.12 C
377 27-07-2019 07:20:00 21.1 C 88 % 19.03 C
378 27-07-2019 07:25:00 21.2 C 88 % 19.13 C
379 27-07-2019 07:30:00 21.3 C 89 % 19.41 C
380 27-07-2019 07:35:00 21.4 C 89 % 19.51 C
381 27-07-2019 07:40:00 21.4 C 88 % 19.33 C
382 27-07-2019 07:45:00 21.5 C 88 % 19.43 C
383 27-07-2019 07:50:00 21.6 C 87 % 19.34 C
384 27-07-2019 07:55:00 21.7 C 86 % 19.25 C
385 27-07-2019 08:00:00 21.8 C 86 % 19.35 C
386 27-07-2019 08:05:00 21.9 C 86 % 19.45 C
387 27-07-2019 08:10:00 22.1 C 86 % 19.65 C
388 27-07-2019 08:15:00 22.1 C 84 % 19.27 C
389 27-07-2019 08:20:00 22.2 C 83 % 19.17 C
390 27-07-2019 08:25:00 22.3 C 82 % 19.08 C
391 27-07-2019 08:30:00 22.5 C 81 % 19.08 C
392 27-07-2019 08:35:00 22.8 C 80 % 19.17 C
393 27-07-2019 08:40:00 23 C 78 % 18.96 C
394 27-07-2019 08:45:00 23.2 C 78 % 19.15 C
395 27-07-2019 08:50:00 23.4 C 77 % 19.14 C
396 27-07-2019 08:55:00 23.6 C 76 % 19.12 C
397 27-07-2019 09:00:00 23.8 C 76 % 19.31 C
398 27-07-2019 09:05:00 24.1 C 76 % 19.6 C
399 27-07-2019 09:10:00 24.3 C 76 % 19.8 C
400 27-07-2019 09:15:00 24.4 C 74 % 19.46 C
Sensor: Nr:Datum:Temp:Feuchte:Taupunkt:
Aussen-T/F 401 27-07-2019 09:20:00 24.6 C 73 % 19.44 C
402 27-07-2019 09:25:00 24.8 C 73 % 19.63 C
403 27-07-2019 09:30:00 24.9 C 73 % 19.72 C
404 27-07-2019 09:35:00 25.1 C 73 % 19.92 C
405 27-07-2019 09:40:00 25.1 C 72 % 19.69 C
406 27-07-2019 09:45:00 25.2 C 72 % 19.79 C
407 27-07-2019 09:50:00 25.2 C 72 % 19.79 C
408 27-07-2019 09:55:00 25.2 C 72 % 19.79 C
409 27-07-2019 10:00:00 25.2 C 72 % 19.79 C
410 27-07-2019 10:05:00 25.3 C 71 % 19.66 C
411 27-07-2019 10:10:00 25.3 C 71 % 19.66 C
412 27-07-2019 10:15:00 25.3 C 80 % 21.6 C
413 27-07-2019 10:20:00 25 C 82 % 21.71 C
414 27-07-2019 10:25:00 24.7 C 84 % 21.81 C
415 27-07-2019 10:30:00 24.4 C 85 % 21.71 C
416 27-07-2019 10:35:00 24.2 C 86 % 21.71 C
417 27-07-2019 10:40:00 24.1 C 87 % 21.8 C
418 27-07-2019 10:45:00 24.1 C 88 % 21.99 C
419 27-07-2019 10:50:00 24.1 C 87 % 21.8 C
420 27-07-2019 10:55:00 24 C 87 % 21.7 C
421 27-07-2019 11:00:00 24 C 88 % 21.89 C
422 27-07-2019 11:05:00 24.1 C 88 % 21.99 C
423 27-07-2019 11:10:00 24.1 C 88 % 21.99 C
424 27-07-2019 11:15:00 24.1 C 88 % 21.99 C
425 27-07-2019 11:20:00 24.2 C 88 % 22.08 C
Sensor: Nr:Datum:Temp:Feuchte:Taupunkt:
Aussen-T/F 426 27-07-2019 11:25:00 24.2 C 88 % 22.08 C
427 27-07-2019 11:30:00 24.2 C 87 % 21.9 C
428 27-07-2019 11:35:00 24 C 85 % 21.32 C
429 27-07-2019 11:40:00 23.9 C 85 % 21.22 C
430 27-07-2019 11:45:00 23.7 C 85 % 21.03 C
431 27-07-2019 11:50:00 23.5 C 84 % 20.64 C
432 27-07-2019 11:55:00 23.3 C 85 % 20.63 C
433 27-07-2019 12:00:00 23.2 C 85 % 20.54 C
434 27-07-2019 12:05:00 23.2 C 87 % 20.91 C
435 27-07-2019 12:10:00 23.2 C 88 % 21.1 C
436 27-07-2019 12:15:00 23.2 C 88 % 21.1 C
437 27-07-2019 12:20:00 23.2 C 86 % 20.73 C
438 27-07-2019 12:25:00 23.3 C 85 % 20.63 C
439 27-07-2019 12:30:00 23.5 C 84 % 20.64 C
440 27-07-2019 12:35:00 23.8 C 81 % 20.34 C
441 27-07-2019 12:40:00 24.1 C 80 % 20.43 C
442 27-07-2019 12:45:00 24.4 C 82 % 21.12 C
443 27-07-2019 12:50:00 24.8 C 78 % 20.7 C
444 27-07-2019 12:55:00 25.1 C 78 % 20.99 C
445 27-07-2019 13:00:00 25.3 C 75 % 20.55 C
446 27-07-2019 13:05:00 25.5 C 76 % 20.95 C
447 27-07-2019 13:10:00 25.7 C 74 % 20.71 C
448 27-07-2019 13:15:00 26 C 75 % 21.22 C
449 27-07-2019 13:20:00 26.2 C 74 % 21.2 C
450 27-07-2019 13:25:00 26.2 C 74 % 21.2 C
Sensor: Nr:Datum:Temp:Feuchte:Taupunkt:
Aussen-T/F 451 27-07-2019 13:30:00 26.1 C 75 % 21.32 C
452 27-07-2019 13:35:00 26.2 C 75 % 21.41 C
453 27-07-2019 13:40:00 26.2 C 74 % 21.2 C
454 27-07-2019 13:45:00 26.2 C 72 % 20.75 C
455 27-07-2019 13:50:00 26.2 C 70 % 20.29 C
456 27-07-2019 13:55:00 26.2 C 72 % 20.75 C
457 27-07-2019 14:00:00 26.2 C 69 % 20.06 C
458 27-07-2019 14:05:00 26.1 C 70 % 20.2 C
459 27-07-2019 14:10:00 25.9 C 70 % 20.01 C
460 27-07-2019 14:15:00 25.9 C 68 % 19.54 C
461 27-07-2019 14:20:00 25.8 C 70 % 19.91 C
462 27-07-2019 14:25:00 25.7 C 69 % 19.58 C
463 27-07-2019 14:30:00 25.6 C 71 % 19.95 C
464 27-07-2019 14:35:00 25.5 C 71 % 19.85 C
465 27-07-2019 14:40:00 25.5 C 73 % 20.3 C
466 27-07-2019 14:45:00 25.5 C 73 % 20.3 C
467 27-07-2019 14:50:00 25.5 C 75 % 20.74 C
468 27-07-2019 14:55:00 25.5 C 74 % 20.52 C
469 27-07-2019 15:00:00 25.3 C 74 % 20.33 C
470 27-07-2019 15:05:00 25.1 C 74 % 20.14 C
471 27-07-2019 15:10:00 24.8 C 74 % 19.85 C
472 27-07-2019 15:15:00 24.7 C 75 % 19.97 C
473 27-07-2019 15:20:00 24.7 C 75 % 19.97 C
474 27-07-2019 15:25:00 24.8 C 75 % 20.06 C
475 27-07-2019 15:30:00 24.8 C 74 % 19.85 C
Sensor: Nr:Datum:Temp:Feuchte:Taupunkt:
Aussen-T/F 476 27-07-2019 15:35:00 25 C 74 % 20.04 C
477 27-07-2019 15:40:00 25.1 C 74 % 20.14 C
478 27-07-2019 15:45:00 25.2 C 73 % 20.01 C
479 27-07-2019 15:50:00 25.4 C 73 % 20.21 C
480 27-07-2019 15:55:00 25.6 C 74 % 20.62 C
481 27-07-2019 16:00:00 25.8 C 72 % 20.37 C
482 27-07-2019 16:05:00 26.1 C 70 % 20.2 C
483 27-07-2019 16:10:00 26.2 C 68 % 19.82 C
484 27-07-2019 16:15:00 26.2 C 67 % 19.59 C
485 27-07-2019 16:20:00 26.2 C 68 % 19.82 C
486 27-07-2019 16:25:00 26.3 C 68 % 19.92 C
487 27-07-2019 16:30:00 26.3 C 67 % 19.68 C
488 27-07-2019 16:35:00 26.2 C 67 % 19.59 C
489 27-07-2019 16:40:00 25.9 C 68 % 19.54 C
490 27-07-2019 16:45:00 25.7 C 67 % 19.11 C
491 27-07-2019 16:50:00 25.5 C 69 % 19.39 C
492 27-07-2019 16:55:00 25.2 C 71 % 19.56 C
493 27-07-2019 17:00:00 24.9 C 73 % 19.72 C
494 27-07-2019 17:05:00 24.6 C 74 % 19.66 C
495 27-07-2019 17:10:00 24.5 C 76 % 19.99 C
496 27-07-2019 17:15:00 24.5 C 77 % 20.2 C
497 27-07-2019 17:20:00 24.5 C 77 % 20.2 C
498 27-07-2019 17:25:00 24.5 C 77 % 20.2 C
499 27-07-2019 17:30:00 24.4 C 76 % 19.89 C
500 27-07-2019 17:35:00 24.4 C 76 % 19.89 C
Sensor: Nr:Datum:Temp:Feuchte:Taupunkt:
Aussen-T/F 501 27-07-2019 17:40:00 24.4 C 77 % 20.1 C
502 27-07-2019 17:45:00 24.4 C 76 % 19.89 C
503 27-07-2019 17:50:00 24.4 C 76 % 19.89 C
504 27-07-2019 17:55:00 24.4 C 76 % 19.89 C
505 27-07-2019 18:00:00 24.4 C 77 % 20.1 C
506 27-07-2019 18:05:00 24.4 C 77 % 20.1 C
507 27-07-2019 18:10:00 24.4 C 76 % 19.89 C
508 27-07-2019 18:15:00 24.6 C 77 % 20.3 C
509 27-07-2019 18:20:00 24.8 C 76 % 20.28 C
510 27-07-2019 18:25:00 25.1 C 75 % 20.35 C
511 27-07-2019 18:30:00 25.4 C 75 % 20.64 C
512 27-07-2019 18:35:00 25.3 C 75 % 20.55 C
513 27-07-2019 18:40:00 25.3 C 75 % 20.55 C
514 27-07-2019 18:45:00 25.2 C 75 % 20.45 C
515 27-07-2019 18:50:00 25.1 C 75 % 20.35 C
516 27-07-2019 18:55:00 24.9 C 76 % 20.38 C
517 27-07-2019 19:00:00 24.7 C 77 % 20.39 C
518 27-07-2019 19:05:00 24.5 C 77 % 20.2 C
519 27-07-2019 19:10:00 24.3 C 76 % 19.8 C
520 27-07-2019 19:15:00 24.1 C 77 % 19.81 C
521 27-07-2019 19:20:00 23.9 C 79 % 20.03 C
522 27-07-2019 19:25:00 23.8 C 81 % 20.34 C
523 27-07-2019 19:30:00 23.7 C 82 % 20.44 C
524 27-07-2019 19:35:00 23.6 C 83 % 20.54 C
525 27-07-2019 19:40:00 23.4 C 84 % 20.54 C
Sensor: Nr:Datum:Temp:Feuchte:Taupunkt:
Aussen-T/F 526 27-07-2019 19:45:00 23.4 C 84 % 20.54 C
527 27-07-2019 19:50:00 23.4 C 85 % 20.73 C
528 27-07-2019 19:55:00 23.3 C 84 % 20.44 C
529 27-07-2019 20:00:00 23.2 C 84 % 20.34 C
530 27-07-2019 20:05:00 23.1 C 85 % 20.44 C
531 27-07-2019 20:10:00 23.1 C 85 % 20.44 C
532 27-07-2019 20:15:00 23 C 85 % 20.34 C
533 27-07-2019 20:20:00 23 C 85 % 20.34 C
534 27-07-2019 20:25:00 22.9 C 85 % 20.24 C
535 27-07-2019 20:30:00 22.8 C 85 % 20.14 C
536 27-07-2019 20:35:00 22.8 C 85 % 20.14 C
537 27-07-2019 20:40:00 22.8 C 85 % 20.14 C
538 27-07-2019 20:45:00 22.7 C 85 % 20.05 C
539 27-07-2019 20:50:00 22.6 C 85 % 19.95 C
540 27-07-2019 20:55:00 22.6 C 85 % 19.95 C
541 27-07-2019 21:00:00 22.4 C 85 % 19.75 C
542 27-07-2019 21:05:00 22.4 C 85 % 19.75 C
543 27-07-2019 21:10:00 22.3 C 85 % 19.65 C
544 27-07-2019 21:15:00 22.3 C 85 % 19.65 C
545 27-07-2019 21:20:00 22.2 C 86 % 19.75 C
546 27-07-2019 21:25:00 22.1 C 86 % 19.65 C
547 27-07-2019 21:30:00 22.1 C 86 % 19.65 C
548 27-07-2019 21:35:00 21.9 C 86 % 19.45 C
549 27-07-2019 21:40:00 21.9 C 86 % 19.45 C
550 27-07-2019 21:45:00 21.8 C 86 % 19.35 C
Sensor: Nr:Datum:Temp:Feuchte:Taupunkt:
Aussen-T/F 551 27-07-2019 21:50:00 21.8 C 86 % 19.35 C
552 27-07-2019 21:55:00 21.7 C 86 % 19.25 C
553 27-07-2019 22:00:00 21.7 C 86 % 19.25 C
554 27-07-2019 22:05:00 21.6 C 87 % 19.34 C
555 27-07-2019 22:10:00 21.6 C 87 % 19.34 C
556 27-07-2019 22:15:00 21.6 C 87 % 19.34 C
557 27-07-2019 22:20:00 21.5 C 87 % 19.24 C
558 27-07-2019 22:25:00 21.4 C 87 % 19.15 C
559 27-07-2019 22:30:00 21.4 C 87 % 19.15 C
560 27-07-2019 22:35:00 21.4 C 87 % 19.15 C
561 27-07-2019 22:40:00 21.3 C 87 % 19.05 C
562 27-07-2019 22:45:00 21.3 C 88 % 19.23 C
563 27-07-2019 22:50:00 21.3 C 88 % 19.23 C
564 27-07-2019 22:55:00 21.3 C 88 % 19.23 C
565 27-07-2019 23:00:00 21.3 C 88 % 19.23 C
566 27-07-2019 23:05:00 21.2 C 88 % 19.13 C
567 27-07-2019 23:10:00 21.2 C 88 % 19.13 C
568 27-07-2019 23:15:00 21.2 C 89 % 19.31 C
569 27-07-2019 23:20:00 21.2 C 89 % 19.31 C
570 27-07-2019 23:25:00 21.2 C 89 % 19.31 C
571 27-07-2019 23:30:00 21.1 C 89 % 19.22 C
572 27-07-2019 23:35:00 21.1 C 89 % 19.22 C
573 27-07-2019 23:40:00 21.1 C 89 % 19.22 C
574 27-07-2019 23:45:00 21.1 C 89 % 19.22 C
575 27-07-2019 23:50:00 21 C 89 % 19.12 C
Sensor: Nr:Datum:Temp:Feuchte:Taupunkt:
Aussen-T/F 576 27-07-2019 23:55:00 21 C 89 % 19.12 C
577 28-07-2019 00:00:00 20.9 C 89 % 19.02 C
578 28-07-2019 00:05:00 20.9 C 90 % 19.2 C
579 28-07-2019 00:10:00 20.9 C 90 % 19.2 C
580 28-07-2019 00:15:00 20.9 C 90 % 19.2 C
581 28-07-2019 00:20:00 20.8 C 90 % 19.1 C
582 28-07-2019 00:25:00 20.8 C 90 % 19.1 C
583 28-07-2019 00:30:00 20.8 C 90 % 19.1 C
584 28-07-2019 00:35:00 20.8 C 90 % 19.1 C
585 28-07-2019 00:40:00 20.8 C 90 % 19.1 C
586 28-07-2019 00:45:00 20.8 C 90 % 19.1 C
587 28-07-2019 00:50:00 20.8 C 90 % 19.1 C
588 28-07-2019 00:55:00 20.8 C 90 % 19.1 C
589 28-07-2019 01:00:00 20.8 C 90 % 19.1 C
590 28-07-2019 01:05:00 20.7 C 90 % 19 C
591 28-07-2019 01:10:00 20.7 C 90 % 19 C
592 28-07-2019 01:15:00 20.7 C 90 % 19 C
593 28-07-2019 01:20:00 20.7 C 90 % 19 C
594 28-07-2019 01:25:00 20.7 C 90 % 19 C
595 28-07-2019 01:30:00 20.7 C 90 % 19 C
596 28-07-2019 01:35:00 20.7 C 90 % 19 C
597 28-07-2019 01:40:00 20.7 C 90 % 19 C
598 28-07-2019 01:45:00 20.7 C 90 % 19 C
599 28-07-2019 01:50:00 20.7 C 90 % 19 C
600 28-07-2019 01:55:00 20.7 C 90 % 19 C
Sensor: Nr:Datum:Temp:Feuchte:Taupunkt:
Aussen-T/F 601 28-07-2019 02:00:00 20.7 C 90 % 19 C
602 28-07-2019 02:05:00 20.7 C 90 % 19 C
603 28-07-2019 02:10:00 20.7 C 90 % 19 C
604 28-07-2019 02:15:00 20.7 C 90 % 19 C
605 28-07-2019 02:20:00 20.7 C 90 % 19 C
606 28-07-2019 02:25:00 20.7 C 90 % 19 C
607 28-07-2019 02:30:00 20.7 C 90 % 19 C
608 28-07-2019 02:35:00 20.7 C 90 % 19 C
609 28-07-2019 02:40:00 20.7 C 90 % 19 C
610 28-07-2019 02:45:00 20.7 C 90 % 19 C
611 28-07-2019 02:50:00 20.7 C 90 % 19 C
612 28-07-2019 02:55:00 20.7 C 90 % 19 C
613 28-07-2019 03:00:00 20.7 C 90 % 19 C
614 28-07-2019 03:05:00 20.7 C 90 % 19 C
615 28-07-2019 03:10:00 20.7 C 90 % 19 C
616 28-07-2019 03:15:00 20.7 C 90 % 19 C
617 28-07-2019 03:20:00 20.7 C 90 % 19 C
618 28-07-2019 03:25:00 20.7 C 90 % 19 C
619 28-07-2019 03:30:00 20.7 C 90 % 19 C
620 28-07-2019 03:35:00 20.7 C 90 % 19 C
621 28-07-2019 03:40:00 20.7 C 90 % 19 C
622 28-07-2019 03:45:00 20.7 C 90 % 19 C
623 28-07-2019 03:50:00 20.6 C 90 % 18.9 C
624 28-07-2019 03:55:00 20.6 C 90 % 18.9 C
625 28-07-2019 04:00:00 20.7 C 90 % 19 C
Sensor: Nr:Datum:Temp:Feuchte:Taupunkt:
Aussen-T/F 626 28-07-2019 04:05:00 20.6 C 90 % 18.9 C
627 28-07-2019 04:10:00 20.6 C 91 % 19.08 C
628 28-07-2019 04:15:00 20.6 C 91 % 19.08 C
629 28-07-2019 04:20:00 20.6 C 91 % 19.08 C
630 28-07-2019 04:25:00 20.6 C 91 % 19.08 C
631 28-07-2019 04:30:00 20.6 C 91 % 19.08 C
632 28-07-2019 04:35:00 20.6 C 91 % 19.08 C
633 28-07-2019 04:40:00 20.6 C 91 % 19.08 C
634 28-07-2019 04:45:00 20.6 C 91 % 19.08 C
635 28-07-2019 04:50:00 20.6 C 91 % 19.08 C
636 28-07-2019 04:55:00 20.6 C 91 % 19.08 C
637 28-07-2019 05:00:00 20.6 C 91 % 19.08 C
638 28-07-2019 05:05:00 20.6 C 91 % 19.08 C
639 28-07-2019 05:10:00 20.6 C 91 % 19.08 C
640 28-07-2019 05:15:00 20.6 C 91 % 19.08 C
641 28-07-2019 05:20:00 20.6 C 91 % 19.08 C
642 28-07-2019 05:25:00 20.6 C 91 % 19.08 C
643 28-07-2019 05:30:00 20.5 C 91 % 18.98 C
644 28-07-2019 05:35:00 20.5 C 91 % 18.98 C
645 28-07-2019 05:40:00 20.5 C 91 % 18.98 C
646 28-07-2019 05:45:00 20.5 C 91 % 18.98 C
647 28-07-2019 05:50:00 20.5 C 91 % 18.98 C
648 28-07-2019 05:55:00 20.5 C 91 % 18.98 C
649 28-07-2019 06:00:00 20.5 C 91 % 18.98 C
650 28-07-2019 06:05:00 20.5 C 91 % 18.98 C
Sensor: Nr:Datum:Temp:Feuchte:Taupunkt:
Aussen-T/F 651 28-07-2019 06:10:00 20.5 C 91 % 18.98 C
652 28-07-2019 06:15:00 20.5 C 91 % 18.98 C
653 28-07-2019 06:20:00 20.5 C 91 % 18.98 C
654 28-07-2019 06:25:00 20.5 C 91 % 18.98 C
655 28-07-2019 06:30:00 20.5 C 91 % 18.98 C
656 28-07-2019 06:35:00 20.6 C 91 % 19.08 C
657 28-07-2019 06:40:00 20.6 C 91 % 19.08 C
658 28-07-2019 06:45:00 20.6 C 91 % 19.08 C
659 28-07-2019 06:50:00 20.6 C 91 % 19.08 C
660 28-07-2019 06:55:00 20.6 C 91 % 19.08 C
661 28-07-2019 07:00:00 20.6 C 91 % 19.08 C
662 28-07-2019 07:05:00 20.7 C 91 % 19.18 C
663 28-07-2019 07:10:00 20.7 C 91 % 19.18 C
664 28-07-2019 07:15:00 20.7 C 90 % 19 C
665 28-07-2019 07:20:00 20.7 C 90 % 19 C
666 28-07-2019 07:25:00 20.7 C 90 % 19 C
667 28-07-2019 07:30:00 20.7 C 90 % 19 C
668 28-07-2019 07:35:00 20.7 C 90 % 19 C
669 28-07-2019 07:40:00 20.7 C 90 % 19 C
670 28-07-2019 07:45:00 20.7 C 89 % 18.82 C
671 28-07-2019 07:50:00 20.7 C 89 % 18.82 C
672 28-07-2019 07:55:00 20.7 C 89 % 18.82 C
673 28-07-2019 08:00:00 20.7 C 89 % 18.82 C
674 28-07-2019 08:05:00 20.7 C 89 % 18.82 C
675 28-07-2019 08:10:00 20.8 C 89 % 18.92 C
Sensor: Nr:Datum:Temp:Feuchte:Taupunkt:
Aussen-T/F 676 28-07-2019 08:15:00 20.8 C 89 % 18.92 C
677 28-07-2019 08:20:00 20.7 C 89 % 18.82 C
678 28-07-2019 08:25:00 20.7 C 89 % 18.82 C
679 28-07-2019 08:30:00 20.7 C 89 % 18.82 C
680 28-07-2019 08:35:00 20.7 C 89 % 18.82 C
681 28-07-2019 08:40:00 20.7 C 89 % 18.82 C
682 28-07-2019 08:45:00 20.7 C 89 % 18.82 C
683 28-07-2019 08:50:00 20.7 C 89 % 18.82 C
684 28-07-2019 08:55:00 20.7 C 90 % 19 C
685 28-07-2019 09:00:00 20.6 C 90 % 18.9 C
686 28-07-2019 09:05:00 20.6 C 90 % 18.9 C
687 28-07-2019 09:10:00 20.6 C 90 % 18.9 C
688 28-07-2019 09:15:00 20.6 C 90 % 18.9 C
689 28-07-2019 09:20:00 20.5 C 90 % 18.8 C
690 28-07-2019 09:25:00 20.4 C 90 % 18.7 C
691 28-07-2019 09:30:00 20.4 C 90 % 18.7 C
692 28-07-2019 09:35:00 20.3 C 90 % 18.61 C
693 28-07-2019 09:40:00 20.3 C 91 % 18.78 C
694 28-07-2019 09:45:00 20.3 C 91 % 18.78 C
695 28-07-2019 09:50:00 20.3 C 91 % 18.78 C
696 28-07-2019 09:55:00 20.2 C 91 % 18.68 C
697 28-07-2019 10:00:00 20.2 C 91 % 18.68 C
698 28-07-2019 10:05:00 20.2 C 91 % 18.68 C
699 28-07-2019 10:10:00 20.2 C 91 % 18.68 C
700 28-07-2019 10:15:00 20.2 C 91 % 18.68 C
Sensor: Nr:Datum:Temp:Feuchte:Taupunkt:
Aussen-T/F 701 28-07-2019 10:20:00 20.1 C 91 % 18.58 C
702 28-07-2019 10:25:00 20.1 C 92 % 18.76 C
703 28-07-2019 10:30:00 19.9 C 92 % 18.56 C
704 28-07-2019 10:35:00 19.9 C 92 % 18.56 C
705 28-07-2019 10:40:00 19.9 C 92 % 18.56 C
706 28-07-2019 10:45:00 19.9 C 93 % 18.73 C
707 28-07-2019 10:50:00 19.8 C 93 % 18.63 C
708 28-07-2019 10:55:00 19.9 C 93 % 18.73 C
709 28-07-2019 11:00:00 19.8 C 93 % 18.63 C
710 28-07-2019 11:05:00 19.8 C 93 % 18.63 C
711 28-07-2019 11:10:00 19.8 C 93 % 18.63 C
712 28-07-2019 11:15:00 19.8 C 93 % 18.63 C
713 28-07-2019 11:20:00 19.9 C 93 % 18.73 C
714 28-07-2019 11:25:00 19.9 C 93 % 18.73 C
715 28-07-2019 11:30:00 20.1 C 92 % 18.76 C
716 28-07-2019 11:35:00 20.2 C 92 % 18.86 C
717 28-07-2019 11:40:00 20.3 C 91 % 18.78 C
718 28-07-2019 11:45:00 20.4 C 90 % 18.7 C
719 28-07-2019 11:50:00 20.4 C 90 % 18.7 C
720 28-07-2019 11:55:00 20.6 C 89 % 18.72 C
721 28-07-2019 12:00:00 20.6 C 89 % 18.72 C
722 28-07-2019 12:05:00 20.5 C 89 % 18.62 C
723 28-07-2019 12:10:00 20.5 C 89 % 18.62 C
724 28-07-2019 12:15:00 20.5 C 88 % 18.44 C
725 28-07-2019 12:20:00 20.5 C 88 % 18.44 C
Sensor: Nr:Datum:Temp:Feuchte:Taupunkt:
Aussen-T/F 726 28-07-2019 12:25:00 20.5 C 88 % 18.44 C
727 28-07-2019 12:30:00 20.4 C 87 % 18.16 C
728 28-07-2019 12:35:00 20.5 C 87 % 18.26 C
729 28-07-2019 12:40:00 20.6 C 88 % 18.54 C
730 28-07-2019 12:45:00 20.5 C 87 % 18.26 C
731 28-07-2019 12:50:00 20.5 C 87 % 18.26 C
732 28-07-2019 12:55:00 20.5 C 87 % 18.26 C
733 28-07-2019 13:00:00 20.5 C 87 % 18.26 C
734 28-07-2019 13:05:00 20.6 C 87 % 18.36 C
735 28-07-2019 13:10:00 20.5 C 86 % 18.08 C
736 28-07-2019 13:15:00 20.5 C 86 % 18.08 C
737 28-07-2019 13:20:00 20.4 C 86 % 17.98 C
738 28-07-2019 13:25:00 20.4 C 87 % 18.16 C
739 28-07-2019 13:30:00 20.4 C 87 % 18.16 C
740 28-07-2019 13:35:00 20.3 C 87 % 18.06 C
741 28-07-2019 13:40:00 20.2 C 88 % 18.15 C
742 28-07-2019 13:45:00 20.1 C 89 % 18.23 C
743 28-07-2019 13:50:00 19.9 C 89 % 18.03 C
744 28-07-2019 13:55:00 19.9 C 89 % 18.03 C
745 28-07-2019 14:00:00 19.9 C 89 % 18.03 C
746 28-07-2019 14:05:00 19.9 C 89 % 18.03 C
747 28-07-2019 14:10:00 19.9 C 90 % 18.21 C
748 28-07-2019 14:15:00 19.9 C 90 % 18.21 C
749 28-07-2019 14:20:00 19.9 C 90 % 18.21 C
750 28-07-2019 14:25:00 20 C 89 % 18.13 C
Sensor: Nr:Datum:Temp:Feuchte:Taupunkt:
Aussen-T/F 751 28-07-2019 14:30:00 20.1 C 89 % 18.23 C
752 28-07-2019 14:35:00 20.1 C 89 % 18.23 C
753 28-07-2019 14:40:00 20.1 C 89 % 18.23 C
754 28-07-2019 14:45:00 20.1 C 89 % 18.23 C
755 28-07-2019 14:50:00 20 C 89 % 18.13 C
756 28-07-2019 14:55:00 19.9 C 89 % 18.03 C
757 28-07-2019 15:00:00 20 C 89 % 18.13 C
758 28-07-2019 15:05:00 19.9 C 89 % 18.03 C
759 28-07-2019 15:10:00 19.9 C 88 % 17.85 C
760 28-07-2019 15:15:00 19.9 C 88 % 17.85 C
761 28-07-2019 15:20:00 19.9 C 89 % 18.03 C
762 28-07-2019 15:25:00 19.9 C 88 % 17.85 C
763 28-07-2019 15:30:00 19.9 C 88 % 17.85 C
764 28-07-2019 15:35:00 19.9 C 88 % 17.85 C
765 28-07-2019 15:40:00 19.9 C 88 % 17.85 C
766 28-07-2019 15:45:00 19.9 C 88 % 17.85 C
767 28-07-2019 15:50:00 19.9 C 88 % 17.85 C
768 28-07-2019 15:55:00 19.9 C 87 % 17.67 C
769 28-07-2019 16:00:00 19.9 C 88 % 17.85 C
770 28-07-2019 16:05:00 19.9 C 87 % 17.67 C
771 28-07-2019 16:10:00 19.9 C 87 % 17.67 C
772 28-07-2019 16:15:00 19.9 C 87 % 17.67 C
773 28-07-2019 16:20:00 19.8 C 87 % 17.57 C
774 28-07-2019 16:25:00 19.8 C 88 % 17.75 C
775 28-07-2019 16:30:00 19.8 C 88 % 17.75 C
Sensor: Nr:Datum:Temp:Feuchte:Taupunkt:
Aussen-T/F 776 28-07-2019 16:35:00 19.8 C 88 % 17.75 C
777 28-07-2019 16:40:00 19.8 C 88 % 17.75 C
778 28-07-2019 16:45:00 19.7 C 88 % 17.66 C
779 28-07-2019 16:50:00 19.7 C 88 % 17.66 C
780 28-07-2019 16:55:00 19.8 C 88 % 17.75 C
781 28-07-2019 17:00:00 19.7 C 88 % 17.66 C
782 28-07-2019 17:05:00 19.8 C 89 % 17.93 C
783 28-07-2019 17:10:00 19.7 C 89 % 17.84 C
784 28-07-2019 17:15:00 19.6 C 89 % 17.74 C
785 28-07-2019 17:20:00 19.4 C 89 % 17.54 C
786 28-07-2019 17:25:00 19.4 C 90 % 17.72 C
787 28-07-2019 17:30:00 19.4 C 90 % 17.72 C
788 28-07-2019 17:35:00 19.3 C 90 % 17.62 C
789 28-07-2019 17:40:00 19.3 C 90 % 17.62 C
790 28-07-2019 17:45:00 19.3 C 91 % 17.79 C
791 28-07-2019 17:50:00 19.3 C 91 % 17.79 C
792 28-07-2019 17:55:00 19.3 C 92 % 17.97 C
793 28-07-2019 18:00:00 19.2 C 91 % 17.69 C
794 28-07-2019 18:05:00 19.2 C 91 % 17.69 C
795 28-07-2019 18:10:00 19.2 C 91 % 17.69 C
796 28-07-2019 18:15:00 19.3 C 91 % 17.79 C
797 28-07-2019 18:20:00 19.2 C 90 % 17.52 C
798 28-07-2019 18:25:00 19.2 C 90 % 17.52 C
799 28-07-2019 18:30:00 19.2 C 90 % 17.52 C
800 28-07-2019 18:35:00 19.2 C 90 % 17.52 C
Sensor: Nr:Datum:Temp:Feuchte:Taupunkt:
Aussen-T/F 801 28-07-2019 18:40:00 19.1 C 90 % 17.42 C
802 28-07-2019 18:45:00 19.1 C 90 % 17.42 C
803 28-07-2019 18:50:00 19.1 C 90 % 17.42 C
804 28-07-2019 18:55:00 19.1 C 91 % 17.6 C
805 28-07-2019 19:00:00 19.1 C 91 % 17.6 C
806 28-07-2019 19:05:00 19.1 C 91 % 17.6 C
807 28-07-2019 19:10:00 19 C 91 % 17.5 C
808 28-07-2019 19:15:00 18.9 C 91 % 17.4 C
809 28-07-2019 19:20:00 18.9 C 91 % 17.4 C
810 28-07-2019 19:25:00 18.9 C 92 % 17.57 C
811 28-07-2019 19:30:00 18.9 C 92 % 17.57 C
812 28-07-2019 19:35:00 18.8 C 92 % 17.47 C
813 28-07-2019 19:40:00 18.8 C 92 % 17.47 C
814 28-07-2019 19:45:00 18.7 C 92 % 17.37 C
815 28-07-2019 19:50:00 18.7 C 92 % 17.37 C
816 28-07-2019 19:55:00 18.7 C 92 % 17.37 C
817 28-07-2019 20:00:00 18.7 C 92 % 17.37 C
818 28-07-2019 20:05:00 18.7 C 92 % 17.37 C
819 28-07-2019 20:10:00 18.6 C 92 % 17.27 C
820 28-07-2019 20:15:00 18.6 C 93 % 17.45 C
821 28-07-2019 20:20:00 18.6 C 93 % 17.45 C
822 28-07-2019 20:25:00 18.6 C 93 % 17.45 C
823 28-07-2019 20:30:00 18.5 C 93 % 17.35 C
824 28-07-2019 20:35:00 18.4 C 93 % 17.25 C
825 28-07-2019 20:40:00 18.4 C 93 % 17.25 C
Sensor: Nr:Datum:Temp:Feuchte:Taupunkt:
Aussen-T/F 826 28-07-2019 20:45:00 18.3 C 93 % 17.15 C
827 28-07-2019 20:50:00 18.3 C 93 % 17.15 C
828 28-07-2019 20:55:00 18.3 C 93 % 17.15 C
829 28-07-2019 21:00:00 18.2 C 93 % 17.05 C
830 28-07-2019 21:05:00 18.2 C 93 % 17.05 C
831 28-07-2019 21:10:00 18.2 C 94 % 17.22 C
832 28-07-2019 21:15:00 18.2 C 94 % 17.22 C
833 28-07-2019 21:20:00 18.2 C 94 % 17.22 C
834 28-07-2019 21:25:00 18.2 C 94 % 17.22 C
835 28-07-2019 21:30:00 18.2 C 94 % 17.22 C
836 28-07-2019 21:35:00 18.2 C 94 % 17.22 C
837 28-07-2019 21:40:00 18.2 C 94 % 17.22 C
838 28-07-2019 21:45:00 18.1 C 94 % 17.12 C
839 28-07-2019 21:50:00 18.1 C 94 % 17.12 C
840 28-07-2019 21:55:00 18.1 C 94 % 17.12 C
841 28-07-2019 22:00:00 18.1 C 94 % 17.12 C
842 28-07-2019 22:05:00 18.1 C 94 % 17.12 C
843 28-07-2019 22:10:00 18 C 94 % 17.02 C
844 28-07-2019 22:15:00 17.9 C 95 % 17.09 C
845 28-07-2019 22:20:00 17.9 C 95 % 17.09 C
846 28-07-2019 22:25:00 17.9 C 95 % 17.09 C
847 28-07-2019 22:30:00 17.9 C 95 % 17.09 C
848 28-07-2019 22:35:00 17.9 C 95 % 17.09 C
849 28-07-2019 22:40:00 17.8 C 95 % 16.99 C
850 28-07-2019 22:45:00 17.8 C 95 % 16.99 C
Sensor: Nr:Datum:Temp:Feuchte:Taupunkt:
Aussen-T/F 851 28-07-2019 22:50:00 17.8 C 95 % 16.99 C
852 28-07-2019 22:55:00 17.8 C 95 % 16.99 C
853 28-07-2019 23:00:00 17.7 C 95 % 16.89 C
854 28-07-2019 23:05:00 17.7 C 95 % 16.89 C
855 28-07-2019 23:10:00 17.7 C 95 % 16.89 C
856 28-07-2019 23:15:00 17.7 C 95 % 16.89 C
857 28-07-2019 23:20:00 17.7 C 95 % 16.89 C
858 28-07-2019 23:25:00 17.6 C 95 % 16.79 C
859 28-07-2019 23:30:00 17.6 C 95 % 16.79 C
860 28-07-2019 23:35:00 17.6 C 95 % 16.79 C
861 28-07-2019 23:40:00 17.5 C 95 % 16.69 C
862 28-07-2019 23:45:00 17.5 C 95 % 16.69 C
863 28-07-2019 23:50:00 17.4 C 95 % 16.59 C
864 28-07-2019 23:55:00 17.5 C 95 % 16.69 C
865 29-07-2019 00:00:00 17.4 C 95 % 16.59 C
866 29-07-2019 00:05:00 17.4 C 95 % 16.59 C
867 29-07-2019 00:10:00 17.4 C 95 % 16.59 C
868 29-07-2019 00:15:00 17.4 C 95 % 16.59 C
869 29-07-2019 00:20:00 17.4 C 95 % 16.59 C
870 29-07-2019 00:25:00 17.4 C 95 % 16.59 C
871 29-07-2019 00:30:00 17.3 C 95 % 16.49 C
872 29-07-2019 00:35:00 17.3 C 95 % 16.49 C
873 29-07-2019 00:40:00 17.3 C 95 % 16.49 C
874 29-07-2019 00:45:00 17.2 C 95 % 16.39 C
875 29-07-2019 00:50:00 17.2 C 95 % 16.39 C
Sensor: Nr:Datum:Temp:Feuchte:Taupunkt:
Aussen-T/F 876 29-07-2019 00:55:00 17.2 C 95 % 16.39 C
877 29-07-2019 01:00:00 17.1 C 95 % 16.29 C
878 29-07-2019 01:05:00 17.2 C 95 % 16.39 C
879 29-07-2019 01:10:00 17.1 C 95 % 16.29 C
880 29-07-2019 01:15:00 17.1 C 95 % 16.29 C
881 29-07-2019 01:20:00 17.1 C 95 % 16.29 C
882 29-07-2019 01:25:00 17.1 C 95 % 16.29 C
883 29-07-2019 01:30:00 17.1 C 95 % 16.29 C
884 29-07-2019 01:35:00 17.1 C 95 % 16.29 C
885 29-07-2019 01:40:00 17.1 C 95 % 16.29 C
886 29-07-2019 01:45:00 17.1 C 95 % 16.29 C
887 29-07-2019 01:50:00 17.1 C 95 % 16.29 C
888 29-07-2019 01:55:00 17.1 C 95 % 16.29 C
889 29-07-2019 02:00:00 17.1 C 95 % 16.29 C
890 29-07-2019 02:05:00 17 C 95 % 16.19 C
891 29-07-2019 02:10:00 17 C 95 % 16.19 C
892 29-07-2019 02:15:00 17 C 96 % 16.36 C
893 29-07-2019 02:20:00 17 C 96 % 16.36 C
894 29-07-2019 02:25:00 17 C 96 % 16.36 C
895 29-07-2019 02:30:00 17 C 96 % 16.36 C
896 29-07-2019 02:35:00 17 C 96 % 16.36 C
897 29-07-2019 02:40:00 16.9 C 96 % 16.26 C
898 29-07-2019 02:45:00 16.9 C 96 % 16.26 C
899 29-07-2019 02:50:00 16.9 C 96 % 16.26 C
900 29-07-2019 02:55:00 16.9 C 96 % 16.26 C
Sensor: Nr:Datum:Temp:Feuchte:Taupunkt:
Aussen-T/F 901 29-07-2019 03:00:00 16.9 C 96 % 16.26 C
902 29-07-2019 03:05:00 16.9 C 96 % 16.26 C
903 29-07-2019 03:10:00 16.9 C 96 % 16.26 C
904 29-07-2019 03:15:00 16.9 C 96 % 16.26 C
905 29-07-2019 03:20:00 16.9 C 96 % 16.26 C
906 29-07-2019 03:25:00 16.8 C 96 % 16.16 C
907 29-07-2019 03:30:00 16.8 C 96 % 16.16 C
908 29-07-2019 03:35:00 16.8 C 96 % 16.16 C
909 29-07-2019 03:40:00 16.8 C 96 % 16.16 C
910 29-07-2019 03:45:00 16.8 C 96 % 16.16 C
911 29-07-2019 03:50:00 16.8 C 96 % 16.16 C
912 29-07-2019 03:55:00 16.8 C 96 % 16.16 C
913 29-07-2019 04:00:00 16.9 C 96 % 16.26 C
914 29-07-2019 04:05:00 16.8 C 96 % 16.16 C
915 29-07-2019 04:10:00 16.8 C 96 % 16.16 C
916 29-07-2019 04:15:00 16.8 C 96 % 16.16 C
917 29-07-2019 04:20:00 16.8 C 96 % 16.16 C
918 29-07-2019 04:25:00 16.8 C 96 % 16.16 C
919 29-07-2019 04:30:00 16.8 C 96 % 16.16 C
920 29-07-2019 04:35:00 16.8 C 96 % 16.16 C
921 29-07-2019 04:40:00 16.8 C 96 % 16.16 C
922 29-07-2019 04:45:00 16.8 C 96 % 16.16 C
923 29-07-2019 04:50:00 16.8 C 96 % 16.16 C
924 29-07-2019 04:55:00 16.8 C 96 % 16.16 C
925 29-07-2019 05:00:00 16.8 C 96 % 16.16 C
Sensor: Nr:Datum:Temp:Feuchte:Taupunkt:
Aussen-T/F 926 29-07-2019 05:05:00 16.8 C 96 % 16.16 C
927 29-07-2019 05:10:00 16.8 C 96 % 16.16 C
928 29-07-2019 05:15:00 16.8 C 96 % 16.16 C
929 29-07-2019 05:20:00 16.8 C 96 % 16.16 C
930 29-07-2019 05:25:00 16.7 C 96 % 16.06 C
931 29-07-2019 05:30:00 16.7 C 96 % 16.06 C
932 29-07-2019 05:35:00 16.7 C 96 % 16.06 C
933 29-07-2019 05:40:00 16.7 C 96 % 16.06 C
934 29-07-2019 05:45:00 16.7 C 96 % 16.06 C
935 29-07-2019 05:50:00 16.7 C 96 % 16.06 C
936 29-07-2019 05:55:00 16.7 C 96 % 16.06 C
937 29-07-2019 06:00:00 16.7 C 96 % 16.06 C
938 29-07-2019 06:05:00 16.7 C 96 % 16.06 C
939 29-07-2019 06:10:00 16.7 C 96 % 16.06 C
940 29-07-2019 06:15:00 16.7 C 96 % 16.06 C
941 29-07-2019 06:20:00 16.7 C 96 % 16.06 C
942 29-07-2019 06:25:00 16.7 C 96 % 16.06 C
943 29-07-2019 06:30:00 16.7 C 96 % 16.06 C
944 29-07-2019 06:35:00 16.7 C 96 % 16.06 C
945 29-07-2019 06:40:00 16.7 C 96 % 16.06 C
946 29-07-2019 06:45:00 16.8 C 96 % 16.16 C
947 29-07-2019 06:50:00 16.8 C 96 % 16.16 C
948 29-07-2019 06:55:00 16.8 C 96 % 16.16 C
949 29-07-2019 07:00:00 16.9 C 96 % 16.26 C
950 29-07-2019 07:05:00 16.9 C 96 % 16.26 C
Sensor: Nr:Datum:Temp:Feuchte:Taupunkt:
Aussen-T/F 951 29-07-2019 07:10:00 16.9 C 96 % 16.26 C
952 29-07-2019 07:15:00 17 C 96 % 16.36 C
953 29-07-2019 07:20:00 17.1 C 96 % 16.46 C
954 29-07-2019 07:25:00 17.1 C 96 % 16.46 C
955 29-07-2019 07:30:00 16.9 C 96 % 16.26 C
956 29-07-2019 07:35:00 16.9 C 96 % 16.26 C
957 29-07-2019 07:40:00 17 C 96 % 16.36 C
958 29-07-2019 07:45:00 17 C 95 % 16.19 C
959 29-07-2019 07:50:00 17.1 C 95 % 16.29 C
960 29-07-2019 07:55:00 17.1 C 95 % 16.29 C
961 29-07-2019 08:00:00 17.2 C 95 % 16.39 C
962 29-07-2019 08:05:00 17.2 C 94 % 16.23 C
963 29-07-2019 08:10:00 17.3 C 94 % 16.33 C
964 29-07-2019 08:15:00 17.3 C 93 % 16.16 C
965 29-07-2019 08:20:00 17.4 C 94 % 16.42 C
966 29-07-2019 08:25:00 17.4 C 93 % 16.26 C
967 29-07-2019 08:30:00 17.4 C 92 % 16.09 C
968 29-07-2019 08:35:00 17.6 C 92 % 16.28 C
969 29-07-2019 08:40:00 17.6 C 92 % 16.28 C
970 29-07-2019 08:45:00 17.6 C 91 % 16.11 C
971 29-07-2019 08:50:00 17.7 C 90 % 16.04 C
972 29-07-2019 08:55:00 17.9 C 91 % 16.41 C
973 29-07-2019 09:00:00 18 C 90 % 16.34 C
974 29-07-2019 09:05:00 18.2 C 90 % 16.53 C
975 29-07-2019 09:10:00 18.2 C 88 % 16.18 C
Sensor: Nr:Datum:Temp:Feuchte:Taupunkt:
Aussen-T/F 976 29-07-2019 09:15:00 18.3 C 88 % 16.28 C
977 29-07-2019 09:20:00 18.3 C 88 % 16.28 C
978 29-07-2019 09:25:00 18.4 C 87 % 16.2 C
979 29-07-2019 09:30:00 18.6 C 86 % 16.21 C
980 29-07-2019 09:35:00 18.7 C 86 % 16.31 C
981 29-07-2019 09:40:00 18.8 C 84 % 16.04 C
982 29-07-2019 09:45:00 18.8 C 83 % 15.85 C
983 29-07-2019 09:50:00 18.8 C 83 % 15.85 C
984 29-07-2019 09:55:00 18.8 C 83 % 15.85 C
985 29-07-2019 10:00:00 18.8 C 82 % 15.66 C
986 29-07-2019 10:05:00 18.8 C 83 % 15.85 C
987 29-07-2019 10:10:00 18.9 C 83 % 15.95 C
988 29-07-2019 10:15:00 19.1 C 81 % 15.76 C
989 29-07-2019 10:20:00 19.3 C 80 % 15.76 C
990 29-07-2019 10:25:00 19.4 C 79 % 15.66 C
991 29-07-2019 10:30:00 19.5 C 79 % 15.76 C
992 29-07-2019 10:35:00 19.7 C 79 % 15.96 C
993 29-07-2019 10:40:00 19.7 C 77 % 15.56 C
994 29-07-2019 10:45:00 19.8 C 78 % 15.85 C
995 29-07-2019 10:50:00 19.8 C 76 % 15.45 C
996 29-07-2019 10:55:00 19.9 C 75 % 15.34 C
997 29-07-2019 11:00:00 19.9 C 75 % 15.34 C
998 29-07-2019 11:05:00 20 C 76 % 15.64 C
999 29-07-2019 11:10:00 20 C 75 % 15.43 C
1000 29-07-2019 11:15:00 20.1 C 75 % 15.53 C
Sensor: Nr:Datum:Temp:Feuchte:Taupunkt:
Aussen-T/F 1001 29-07-2019 11:20:00 20.2 C 75 % 15.63 C
1002 29-07-2019 11:25:00 20.3 C 76 % 15.93 C
1003 29-07-2019 11:30:00 20.4 C 74 % 15.61 C
1004 29-07-2019 11:35:00 20.6 C 73 % 15.59 C
1005 29-07-2019 11:40:00 20.8 C 72 % 15.57 C
1006 29-07-2019 11:45:00 21 C 72 % 15.76 C
1007 29-07-2019 11:50:00 21.2 C 72 % 15.95 C
1008 29-07-2019 11:55:00 21.2 C 70 % 15.51 C
1009 29-07-2019 12:00:00 21.4 C 68 % 15.25 C
1010 29-07-2019 12:05:00 21.5 C 67 % 15.12 C
1011 29-07-2019 12:10:00 21.6 C 69 % 15.67 C
1012 29-07-2019 12:15:00 21.6 C 68 % 15.44 C
1013 29-07-2019 12:20:00 21.8 C 68 % 15.63 C
1014 29-07-2019 12:25:00 21.9 C 66 % 15.26 C
1015 29-07-2019 12:30:00 22.1 C 66 % 15.45 C
1016 29-07-2019 12:35:00 22.1 C 65 % 15.21 C
1017 29-07-2019 12:40:00 22.2 C 66 % 15.55 C
1018 29-07-2019 12:45:00 22.3 C 65 % 15.4 C
1019 29-07-2019 12:50:00 22.4 C 65 % 15.5 C
1020 29-07-2019 12:55:00 22.5 C 64 % 15.35 C
1021 29-07-2019 13:00:00 22.6 C 65 % 15.69 C
1022 29-07-2019 13:05:00 22.7 C 63 % 15.3 C
1023 29-07-2019 13:10:00 22.8 C 64 % 15.64 C
1024 29-07-2019 13:15:00 23 C 61 % 15.08 C
1025 29-07-2019 13:20:00 23.2 C 61 % 15.26 C
Sensor: Nr:Datum:Temp:Feuchte:Taupunkt:
Aussen-T/F 1026 29-07-2019 13:25:00 23.3 C 62 % 15.61 C
1027 29-07-2019 13:30:00 23.5 C 61 % 15.55 C
1028 29-07-2019 13:35:00 23.6 C 62 % 15.89 C
1029 29-07-2019 13:40:00 23.5 C 62 % 15.8 C
1030 29-07-2019 13:45:00 23.5 C 62 % 15.8 C
1031 29-07-2019 13:50:00 23.6 C 61 % 15.64 C
1032 29-07-2019 13:55:00 23.7 C 60 % 15.48 C
1033 29-07-2019 14:00:00 23.7 C 60 % 15.48 C
1034 29-07-2019 14:05:00 23.8 C 60 % 15.57 C
1035 29-07-2019 14:10:00 23.9 C 61 % 15.92 C
1036 29-07-2019 14:15:00 24.2 C 59 % 15.68 C
1037 29-07-2019 14:20:00 24.4 C 58 % 15.6 C
1038 29-07-2019 14:25:00 24.5 C 58 % 15.7 C
1039 29-07-2019 14:30:00 24.7 C 56 % 15.33 C
1040 29-07-2019 14:35:00 24.7 C 57 % 15.61 C
1041 29-07-2019 14:40:00 24.7 C 57 % 15.61 C
1042 29-07-2019 14:45:00 24.8 C 54 % 14.86 C
1043 29-07-2019 14:50:00 24.8 C 55 % 15.15 C
1044 29-07-2019 14:55:00 24.8 C 55 % 15.15 C
1045 29-07-2019 15:00:00 24.8 C 54 % 14.86 C
1046 29-07-2019 15:05:00 24.9 C 54 % 14.95 C
1047 29-07-2019 15:10:00 25.1 C 54 % 15.14 C
1048 29-07-2019 15:15:00 25.4 C 53 % 15.13 C
1049 29-07-2019 15:20:00 25.6 C 52 % 15.02 C
1050 29-07-2019 15:25:00 25.7 C 51 % 14.81 C
Sensor: Nr:Datum:Temp:Feuchte:Taupunkt:
Aussen-T/F 1051 29-07-2019 15:30:00 25.9 C 51 % 14.99 C
1052 29-07-2019 15:35:00 26.1 C 51 % 15.17 C
1053 29-07-2019 15:40:00 26.1 C 50 % 14.87 C
1054 29-07-2019 15:45:00 26.4 C 50 % 15.14 C
1055 29-07-2019 15:50:00 26.8 C 49 % 15.19 C
1056 29-07-2019 15:55:00 27.2 C 48 % 15.24 C
1057 29-07-2019 16:00:00 27.3 C 47 % 15 C
1058 29-07-2019 16:05:00 27.4 C 47 % 15.09 C
1059 29-07-2019 16:10:00 27.6 C 46 % 14.94 C
1060 29-07-2019 16:15:00 27.3 C 47 % 15 C
1061 29-07-2019 16:20:00 27.2 C 47 % 14.91 C
1062 29-07-2019 16:25:00 27.2 C 46 % 14.58 C
1063 29-07-2019 16:30:00 27.3 C 47 % 15 C
1064 29-07-2019 16:35:00 27.7 C 45 % 14.69 C
1065 29-07-2019 16:40:00 27.9 C 45 % 14.87 C
1066 29-07-2019 16:45:00 28.2 C 44 % 14.79 C
1067 29-07-2019 16:50:00 28.2 C 44 % 14.79 C
1068 29-07-2019 16:55:00 27.9 C 44 % 14.52 C
1069 29-07-2019 17:00:00 27.9 C 45 % 14.87 C
1070 29-07-2019 17:05:00 28 C 45 % 14.96 C
1071 29-07-2019 17:10:00 28.3 C 44 % 14.88 C
1072 29-07-2019 17:15:00 28.4 C 43 % 14.62 C
1073 29-07-2019 17:20:00 28.3 C 42 % 14.16 C
1074 29-07-2019 17:25:00 28.4 C 43 % 14.62 C
1075 29-07-2019 17:30:00 28.4 C 42 % 14.25 C
Sensor: Nr:Datum:Temp:Feuchte:Taupunkt:
Aussen-T/F 1076 29-07-2019 17:35:00 28.4 C 43 % 14.62 C
1077 29-07-2019 17:40:00 28.6 C 43 % 14.8 C
1078 29-07-2019 17:45:00 28.3 C 43 % 14.53 C
1079 29-07-2019 17:50:00 28.1 C 43 % 14.35 C
1080 29-07-2019 17:55:00 27.7 C 43 % 13.99 C
1081 29-07-2019 18:00:00 27.4 C 44 % 14.07 C
1082 29-07-2019 18:05:00 27.2 C 44 % 13.89 C
1083 29-07-2019 18:10:00 27.1 C 45 % 14.15 C
1084 29-07-2019 18:15:00 27.3 C 45 % 14.33 C
1085 29-07-2019 18:20:00 27.4 C 44 % 14.07 C
1086 29-07-2019 18:25:00 27.4 C 44 % 14.07 C
1087 29-07-2019 18:30:00 27.4 C 44 % 14.07 C
1088 29-07-2019 18:35:00 27.7 C 44 % 14.34 C
1089 29-07-2019 18:40:00 28 C 43 % 14.26 C
1090 29-07-2019 18:45:00 28.3 C 42 % 14.16 C
1091 29-07-2019 18:50:00 28.6 C 42 % 14.43 C
1092 29-07-2019 18:55:00 28.7 C 41 % 14.15 C
1093 29-07-2019 19:00:00 28.8 C 41 % 14.24 C
1094 29-07-2019 19:05:00 28.9 C 42 % 14.7 C
1095 29-07-2019 19:10:00 28.9 C 41 % 14.33 C
1096 29-07-2019 19:15:00 28.8 C 41 % 14.24 C
1097 29-07-2019 19:20:00 28.6 C 42 % 14.43 C
1098 29-07-2019 19:25:00 28.1 C 43 % 14.35 C
1099 29-07-2019 19:30:00 27.9 C 44 % 14.52 C
1100 29-07-2019 19:35:00 27.7 C 44 % 14.34 C
Sensor: Nr:Datum:Temp:Feuchte:Taupunkt:
Aussen-T/F 1101 29-07-2019 19:40:00 27.6 C 45 % 14.6 C
1102 29-07-2019 19:45:00 27.4 C 46 % 14.76 C
1103 29-07-2019 19:50:00 27.3 C 45 % 14.33 C
1104 29-07-2019 19:55:00 27.2 C 46 % 14.58 C
1105 29-07-2019 20:00:00 27.1 C 46 % 14.49 C
1106 29-07-2019 20:05:00 27 C 47 % 14.73 C
1107 29-07-2019 20:10:00 26.8 C 47 % 14.55 C
1108 29-07-2019 20:15:00 26.6 C 48 % 14.69 C
1109 29-07-2019 20:20:00 26.4 C 49 % 14.83 C
1110 29-07-2019 20:25:00 26.3 C 49 % 14.74 C
1111 29-07-2019 20:30:00 26.3 C 50 % 15.05 C
1112 29-07-2019 20:35:00 26.2 C 50 % 14.96 C
1113 29-07-2019 20:40:00 26 C 50 % 14.77 C
1114 29-07-2019 20:45:00 25.9 C 51 % 14.99 C
1115 29-07-2019 20:50:00 25.8 C 51 % 14.9 C
1116 29-07-2019 20:55:00 25.6 C 52 % 15.02 C
1117 29-07-2019 21:00:00 25.3 C 55 % 15.61 C
1118 29-07-2019 21:05:00 24.9 C 56 % 15.52 C
1119 29-07-2019 21:10:00 24.5 C 59 % 15.96 C
1120 29-07-2019 21:15:00 24 C 59 % 15.5 C
1121 29-07-2019 21:20:00 23.5 C 60 % 15.29 C
1122 29-07-2019 21:25:00 23 C 61 % 15.08 C
1123 29-07-2019 21:30:00 22.6 C 63 % 15.2 C
1124 29-07-2019 21:35:00 22.2 C 64 % 15.07 C
1125 29-07-2019 21:40:00 21.9 C 65 % 15.02 C
Sensor: Nr:Datum:Temp:Feuchte:Taupunkt:
Aussen-T/F 1126 29-07-2019 21:45:00 21.8 C 66 % 15.17 C
1127 29-07-2019 21:50:00 21.6 C 66 % 14.98 C
1128 29-07-2019 21:55:00 21.4 C 66 % 14.79 C
1129 29-07-2019 22:00:00 21.3 C 67 % 14.93 C
1130 29-07-2019 22:05:00 21.2 C 68 % 15.06 C
1131 29-07-2019 22:10:00 21.1 C 68 % 14.97 C
1132 29-07-2019 22:15:00 21 C 68 % 14.87 C
1133 29-07-2019 22:20:00 20.9 C 68 % 14.77 C
1134 29-07-2019 22:25:00 20.8 C 69 % 14.91 C
1135 29-07-2019 22:30:00 20.8 C 70 % 15.13 C
1136 29-07-2019 22:35:00 20.7 C 71 % 15.25 C
1137 29-07-2019 22:40:00 20.6 C 71 % 15.16 C
1138 29-07-2019 22:45:00 20.4 C 71 % 14.97 C
1139 29-07-2019 22:50:00 20.2 C 72 % 14.99 C
1140 29-07-2019 22:55:00 20.1 C 73 % 15.11 C
1141 29-07-2019 23:00:00 20 C 73 % 15.01 C
1142 29-07-2019 23:05:00 19.9 C 73 % 14.92 C
1143 29-07-2019 23:10:00 19.8 C 74 % 15.03 C
1144 29-07-2019 23:15:00 19.7 C 75 % 15.15 C
1145 29-07-2019 23:20:00 19.6 C 75 % 15.05 C
1146 29-07-2019 23:25:00 19.4 C 75 % 14.86 C
1147 29-07-2019 23:30:00 19.3 C 76 % 14.97 C
1148 29-07-2019 23:35:00 19.1 C 76 % 14.77 C
1149 29-07-2019 23:40:00 19 C 77 % 14.88 C
1150 29-07-2019 23:45:00 18.8 C 77 % 14.68 C
Sensor: Nr:Datum:Temp:Feuchte:Taupunkt:
Aussen-T/F 1151 29-07-2019 23:50:00 18.8 C 78 % 14.88 C
1152 29-07-2019 23:55:00 18.7 C 78 % 14.79 C
1153 30-07-2019 00:00:00 18.5 C 79 % 14.79 C
1154 30-07-2019 00:05:00 18.3 C 79 % 14.6 C
1155 30-07-2019 00:10:00 18.2 C 80 % 14.69 C
1156 30-07-2019 00:15:00 18.1 C 80 % 14.6 C
1157 30-07-2019 00:20:00 18 C 81 % 14.69 C
1158 30-07-2019 00:25:00 17.9 C 81 % 14.59 C
1159 30-07-2019 00:30:00 17.8 C 81 % 14.5 C
1160 30-07-2019 00:35:00 17.8 C 82 % 14.69 C
1161 30-07-2019 00:40:00 17.7 C 82 % 14.59 C
1162 30-07-2019 00:45:00 17.7 C 82 % 14.59 C
1163 30-07-2019 00:50:00 17.7 C 83 % 14.78 C
1164 30-07-2019 00:55:00 17.7 C 83 % 14.78 C
1165 30-07-2019 01:00:00 17.7 C 83 % 14.78 C
1166 30-07-2019 01:05:00 17.7 C 84 % 14.96 C
1167 30-07-2019 01:10:00 17.7 C 83 % 14.78 C
1168 30-07-2019 01:15:00 17.7 C 83 % 14.78 C
1169 30-07-2019 01:20:00 17.6 C 83 % 14.68 C
1170 30-07-2019 01:25:00 17.5 C 83 % 14.58 C
1171 30-07-2019 01:30:00 17.4 C 83 % 14.48 C
1172 30-07-2019 01:35:00 17.3 C 84 % 14.57 C
1173 30-07-2019 01:40:00 17.2 C 84 % 14.47 C
1174 30-07-2019 01:45:00 17.2 C 84 % 14.47 C
1175 30-07-2019 01:50:00 17.1 C 84 % 14.38 C
Sensor: Nr:Datum:Temp:Feuchte:Taupunkt:
Aussen-T/F 1176 30-07-2019 01:55:00 17 C 84 % 14.28 C
1177 30-07-2019 02:00:00 16.9 C 84 % 14.18 C
1178 30-07-2019 02:05:00 16.9 C 85 % 14.36 C
1179 30-07-2019 02:10:00 16.8 C 85 % 14.26 C
1180 30-07-2019 02:15:00 16.8 C 85 % 14.26 C
1181 30-07-2019 02:20:00 16.7 C 85 % 14.17 C
1182 30-07-2019 02:25:00 16.6 C 85 % 14.07 C
1183 30-07-2019 02:30:00 16.6 C 86 % 14.25 C
1184 30-07-2019 02:35:00 16.5 C 86 % 14.15 C
1185 30-07-2019 02:40:00 16.4 C 86 % 14.05 C
1186 30-07-2019 02:45:00 16.4 C 86 % 14.05 C
1187 30-07-2019 02:50:00 16.3 C 86 % 13.95 C
1188 30-07-2019 02:55:00 16.3 C 87 % 14.13 C
1189 30-07-2019 03:00:00 16.2 C 87 % 14.03 C
1190 30-07-2019 03:05:00 16.1 C 87 % 13.94 C
1191 30-07-2019 03:10:00 16 C 87 % 13.84 C
1192 30-07-2019 03:15:00 15.9 C 88 % 13.92 C
1193 30-07-2019 03:20:00 15.9 C 88 % 13.92 C
1194 30-07-2019 03:25:00 15.9 C 88 % 13.92 C
1195 30-07-2019 03:30:00 15.9 C 88 % 13.92 C
1196 30-07-2019 03:35:00 15.8 C 89 % 13.99 C
1197 30-07-2019 03:40:00 15.8 C 89 % 13.99 C
1198 30-07-2019 03:45:00 15.7 C 89 % 13.89 C
1199 30-07-2019 03:50:00 15.7 C 89 % 13.89 C
1200 30-07-2019 03:55:00 15.6 C 89 % 13.79 C
Sensor: Nr:Datum:Temp:Feuchte:Taupunkt:
Aussen-T/F 1201 30-07-2019 04:00:00 15.6 C 89 % 13.79 C
1202 30-07-2019 04:05:00 15.6 C 89 % 13.79 C
1203 30-07-2019 04:10:00 15.5 C 90 % 13.87 C
1204 30-07-2019 04:15:00 15.5 C 90 % 13.87 C
1205 30-07-2019 04:20:00 15.4 C 90 % 13.77 C
1206 30-07-2019 04:25:00 15.4 C 90 % 13.77 C
1207 30-07-2019 04:30:00 15.4 C 90 % 13.77 C
1208 30-07-2019 04:35:00 15.3 C 90 % 13.67 C
1209 30-07-2019 04:40:00 15.3 C 90 % 13.67 C
1210 30-07-2019 04:45:00 15.3 C 91 % 13.84 C
1211 30-07-2019 04:50:00 15.3 C 91 % 13.84 C
1212 30-07-2019 04:55:00 15.2 C 91 % 13.74 C
1213 30-07-2019 05:00:00 15.2 C 91 % 13.74 C
1214 30-07-2019 05:05:00 15.1 C 91 % 13.64 C
1215 30-07-2019 05:10:00 15.1 C 91 % 13.64 C
1216 30-07-2019 05:15:00 15.1 C 91 % 13.64 C
1217 30-07-2019 05:20:00 15.1 C 91 % 13.64 C
1218 30-07-2019 05:25:00 15.1 C 91 % 13.64 C
1219 30-07-2019 05:30:00 15.1 C 92 % 13.81 C
1220 30-07-2019 05:35:00 15 C 92 % 13.71 C
1221 30-07-2019 05:40:00 15 C 92 % 13.71 C
1222 30-07-2019 05:45:00 14.9 C 92 % 13.61 C
1223 30-07-2019 05:50:00 14.9 C 92 % 13.61 C
1224 30-07-2019 05:55:00 14.8 C 92 % 13.51 C
1225 30-07-2019 06:00:00 14.8 C 92 % 13.51 C
Sensor: Nr:Datum:Temp:Feuchte:Taupunkt:
Aussen-T/F 1226 30-07-2019 06:05:00 14.8 C 92 % 13.51 C
1227 30-07-2019 06:10:00 14.7 C 93 % 13.58 C
1228 30-07-2019 06:15:00 14.7 C 93 % 13.58 C
1229 30-07-2019 06:20:00 14.7 C 93 % 13.58 C
1230 30-07-2019 06:25:00 14.7 C 93 % 13.58 C
1231 30-07-2019 06:30:00 14.7 C 93 % 13.58 C
1232 30-07-2019 06:35:00 14.7 C 93 % 13.58 C
1233 30-07-2019 06:40:00 14.8 C 93 % 13.68 C
1234 30-07-2019 06:45:00 14.7 C 93 % 13.58 C
1235 30-07-2019 06:50:00 14.7 C 93 % 13.58 C
1236 30-07-2019 06:55:00 14.7 C 93 % 13.58 C
1237 30-07-2019 07:00:00 14.7 C 93 % 13.58 C
1238 30-07-2019 07:05:00 14.7 C 93 % 13.58 C
1239 30-07-2019 07:10:00 14.8 C 94 % 13.84 C
1240 30-07-2019 07:15:00 14.8 C 94 % 13.84 C
1241 30-07-2019 07:20:00 14.8 C 94 % 13.84 C
1242 30-07-2019 07:25:00 14.9 C 94 % 13.94 C
1243 30-07-2019 07:30:00 15 C 94 % 14.04 C
1244 30-07-2019 07:35:00 15 C 94 % 14.04 C
1245 30-07-2019 07:40:00 15.1 C 94 % 14.14 C
1246 30-07-2019 07:45:00 15.1 C 94 % 14.14 C
1247 30-07-2019 07:50:00 15.1 C 94 % 14.14 C
1248 30-07-2019 07:55:00 15.2 C 94 % 14.24 C
1249 30-07-2019 08:00:00 15.3 C 94 % 14.34 C
1250 30-07-2019 08:05:00 15.6 C 94 % 14.64 C
Sensor: Nr:Datum:Temp:Feuchte:Taupunkt:
Aussen-T/F 1251 30-07-2019 08:10:00 15.7 C 94 % 14.74 C
1252 30-07-2019 08:15:00 15.7 C 94 % 14.74 C
1253 30-07-2019 08:20:00 15.7 C 94 % 14.74 C
1254 30-07-2019 08:25:00 15.8 C 94 % 14.84 C
1255 30-07-2019 08:30:00 15.9 C 94 % 14.94 C
1256 30-07-2019 08:35:00 15.9 C 94 % 14.94 C
1257 30-07-2019 08:40:00 16.1 C 94 % 15.13 C
1258 30-07-2019 08:45:00 16.2 C 94 % 15.23 C
1259 30-07-2019 08:50:00 16.3 C 94 % 15.33 C
1260 30-07-2019 08:55:00 16.4 C 93 % 15.27 C
1261 30-07-2019 09:00:00 16.6 C 93 % 15.46 C
1262 30-07-2019 09:05:00 16.7 C 93 % 15.56 C
1263 30-07-2019 09:10:00 16.8 C 93 % 15.66 C
1264 30-07-2019 09:15:00 16.9 C 93 % 15.76 C
1265 30-07-2019 09:20:00 17.1 C 93 % 15.96 C
1266 30-07-2019 09:25:00 17.2 C 92 % 15.89 C
1267 30-07-2019 09:30:00 17.4 C 92 % 16.09 C
1268 30-07-2019 09:35:00 17.7 C 92 % 16.38 C
1269 30-07-2019 09:40:00 17.8 C 91 % 16.31 C
1270 30-07-2019 09:45:00 18 C 91 % 16.51 C
1271 30-07-2019 09:50:00 18.2 C 90 % 16.53 C
1272 30-07-2019 09:55:00 18.4 C 89 % 16.55 C
1273 30-07-2019 10:00:00 18.6 C 89 % 16.75 C
1274 30-07-2019 10:05:00 18.8 C 88 % 16.77 C
1275 30-07-2019 10:10:00 19.2 C 87 % 16.98 C
Sensor: Nr:Datum:Temp:Feuchte:Taupunkt:
Aussen-T/F 1276 30-07-2019 10:15:00 19.4 C 86 % 17 C
1277 30-07-2019 10:20:00 19.7 C 84 % 16.92 C
1278 30-07-2019 10:25:00 20.1 C 83 % 17.12 C
1279 30-07-2019 10:30:00 20.3 C 82 % 17.13 C
1280 30-07-2019 10:35:00 20.7 C 81 % 17.32 C
1281 30-07-2019 10:40:00 21.1 C 79 % 17.32 C
1282 30-07-2019 10:45:00 21.4 C 79 % 17.61 C
1283 30-07-2019 10:50:00 21.8 C 75 % 17.17 C
1284 30-07-2019 10:55:00 22.2 C 74 % 17.34 C
1285 30-07-2019 11:00:00 22.6 C 72 % 17.3 C
1286 30-07-2019 11:05:00 22.9 C 70 % 17.14 C
1287 30-07-2019 11:10:00 23.4 C 63 % 15.96 C
1288 30-07-2019 11:15:00 24.3 C 61 % 16.3 C
1289 30-07-2019 11:20:00 24.7 C 58 % 15.88 C
1290 30-07-2019 11:25:00 25.3 C 55 % 15.61 C
1291 30-07-2019 11:30:00 25.7 C 54 % 15.7 C
1292 30-07-2019 11:35:00 26.1 C 53 % 15.77 C
1293 30-07-2019 11:40:00 26.2 C 53 % 15.87 C
1294 30-07-2019 11:45:00 26.1 C 52 % 15.48 C
1295 30-07-2019 11:50:00 26.1 C 52 % 15.48 C
1296 30-07-2019 11:55:00 26.2 C 52 % 15.57 C
1297 30-07-2019 12:00:00 26.3 C 51 % 15.36 C
1298 30-07-2019 12:05:00 26.5 C 49 % 14.92 C
1299 30-07-2019 12:10:00 26.6 C 49 % 15.01 C
1300 30-07-2019 12:15:00 26.8 C 46 % 14.21 C
Sensor: Nr:Datum:Temp:Feuchte:Taupunkt:
Aussen-T/F 1301 30-07-2019 12:20:00 26.9 C 48 % 14.96 C
1302 30-07-2019 12:25:00 27.1 C 45 % 14.15 C
1303 30-07-2019 12:30:00 27.2 C 44 % 13.89 C
1304 30-07-2019 12:35:00 27.2 C 43 % 13.54 C
1305 30-07-2019 12:40:00 27.2 C 44 % 13.89 C
1306 30-07-2019 12:45:00 27.3 C 42 % 13.27 C
1307 30-07-2019 12:50:00 27.5 C 44 % 14.16 C
1308 30-07-2019 12:55:00 27.7 C 41 % 13.25 C
1309 30-07-2019 13:00:00 27.7 C 43 % 13.99 C
1310 30-07-2019 13:05:00 27.7 C 41 % 13.25 C
1311 30-07-2019 13:10:00 27.9 C 42 % 13.8 C
1312 30-07-2019 13:15:00 28.1 C 40 % 13.23 C
1313 30-07-2019 13:20:00 28.1 C 39 % 12.85 C
1314 30-07-2019 13:25:00 28.1 C 39 % 12.85 C
1315 30-07-2019 13:30:00 28.3 C 39 % 13.02 C
1316 30-07-2019 13:35:00 28.4 C 39 % 13.11 C
1317 30-07-2019 13:40:00 28.5 C 39 % 13.2 C
1318 30-07-2019 13:45:00 28.6 C 39 % 13.29 C
1319 30-07-2019 13:50:00 28.7 C 36 % 12.16 C
1320 30-07-2019 13:55:00 28.8 C 35 % 11.82 C
1321 30-07-2019 14:00:00 28.8 C 36 % 12.25 C
1322 30-07-2019 14:05:00 28.9 C 36 % 12.33 C
1323 30-07-2019 14:10:00 29.1 C 37 % 12.93 C
1324 30-07-2019 14:15:00 29.2 C 39 % 13.82 C
1325 30-07-2019 14:20:00 29.3 C 37 % 13.1 C
Sensor: Nr:Datum:Temp:Feuchte:Taupunkt:
Aussen-T/F 1326 30-07-2019 14:25:00 29.3 C 39 % 13.91 C
1327 30-07-2019 14:30:00 29.6 C 39 % 14.18 C
1328 30-07-2019 14:35:00 29.8 C 37 % 13.54 C
1329 30-07-2019 14:40:00 29.9 C 39 % 14.44 C
1330 30-07-2019 14:45:00 29.9 C 37 % 13.63 C
1331 30-07-2019 14:50:00 30 C 39 % 14.53 C
1332 30-07-2019 14:55:00 30.1 C 37 % 13.81 C
1333 30-07-2019 15:00:00 30.1 C 38 % 14.22 C
1334 30-07-2019 15:05:00 30.3 C 38 % 14.4 C
1335 30-07-2019 15:10:00 30.4 C 36 % 13.65 C
1336 30-07-2019 15:15:00 30.4 C 37 % 14.07 C
1337 30-07-2019 15:20:00 30.5 C 36 % 13.74 C
1338 30-07-2019 15:25:00 30.5 C 37 % 14.16 C
1339 30-07-2019 15:30:00 30.8 C 36 % 14 C
1340 30-07-2019 15:35:00 31 C 35 % 13.75 C
1341 30-07-2019 15:40:00 31.3 C 34 % 13.56 C
1342 30-07-2019 15:45:00 30.9 C 35 % 13.66 C
1343 30-07-2019 15:50:00 31 C 36 % 14.18 C
1344 30-07-2019 15:55:00 31.1 C 35 % 13.83 C
1345 30-07-2019 16:00:00 31.2 C 33 % 13.02 C
1346 30-07-2019 16:05:00 31.3 C 34 % 13.56 C
1347 30-07-2019 16:10:00 31.6 C 33 % 13.36 C
1348 30-07-2019 16:15:00 32 C 32 % 13.24 C
1349 30-07-2019 16:20:00 31.9 C 31 % 12.67 C
1350 30-07-2019 16:25:00 31.3 C 34 % 13.56 C
Sensor: Nr:Datum:Temp:Feuchte:Taupunkt:
Aussen-T/F 1351 30-07-2019 16:30:00 31.3 C 35 % 14.01 C
1352 30-07-2019 16:35:00 31.6 C 35 % 14.27 C
1353 30-07-2019 16:40:00 31.1 C 35 % 13.83 C
1354 30-07-2019 16:45:00 30.7 C 36 % 13.92 C
1355 30-07-2019 16:50:00 30.4 C 36 % 13.65 C
1356 30-07-2019 16:55:00 30.1 C 37 % 13.81 C
1357 30-07-2019 17:00:00 29.8 C 38 % 13.95 C
1358 30-07-2019 17:05:00 29.9 C 38 % 14.04 C
1359 30-07-2019 17:10:00 30.5 C 37 % 14.16 C
1360 30-07-2019 17:15:00 30.6 C 37 % 14.25 C
1361 30-07-2019 17:20:00 30.3 C 37 % 13.99 C
1362 30-07-2019 17:25:00 29.7 C 38 % 13.87 C
1363 30-07-2019 17:30:00 29.1 C 39 % 13.73 C
1364 30-07-2019 17:35:00 28.8 C 39 % 13.47 C
1365 30-07-2019 17:40:00 28.6 C 40 % 13.68 C
1366 30-07-2019 17:45:00 28.4 C 38 % 12.72 C
1367 30-07-2019 17:50:00 28.2 C 36 % 11.72 C
1368 30-07-2019 17:55:00 27.8 C 37 % 11.78 C
1369 30-07-2019 18:00:00 27.4 C 37 % 11.43 C
1370 30-07-2019 18:05:00 27.2 C 38 % 11.65 C
1371 30-07-2019 18:10:00 27.1 C 39 % 11.96 C
1372 30-07-2019 18:15:00 26.9 C 39 % 11.78 C
1373 30-07-2019 18:20:00 26.8 C 40 % 12.07 C
1374 30-07-2019 18:25:00 26.7 C 40 % 11.99 C
1375 30-07-2019 18:30:00 26.6 C 41 % 12.27 C
Sensor: Nr:Datum:Temp:Feuchte:Taupunkt:
Aussen-T/F 1376 30-07-2019 18:35:00 26.4 C 42 % 12.46 C
1377 30-07-2019 18:40:00 26.3 C 42 % 12.37 C
1378 30-07-2019 18:45:00 26.2 C 43 % 12.64 C
1379 30-07-2019 18:50:00 26 C 44 % 12.81 C
1380 30-07-2019 18:55:00 25.9 C 44 % 12.72 C
1381 30-07-2019 19:00:00 25.8 C 45 % 12.97 C
1382 30-07-2019 19:05:00 25.7 C 45 % 12.88 C
1383 30-07-2019 19:10:00 25.6 C 45 % 12.79 C
1384 30-07-2019 19:15:00 25.6 C 45 % 12.79 C
1385 30-07-2019 19:20:00 25.5 C 46 % 13.03 C
1386 30-07-2019 19:25:00 24.9 C 53 % 14.66 C
1387 30-07-2019 19:30:00 23.8 C 56 % 14.5 C
1388 30-07-2019 19:35:00 23.4 C 56 % 14.13 C
1389 30-07-2019 19:40:00 23.4 C 55 % 13.85 C
1390 30-07-2019 19:45:00 23.6 C 56 % 14.31 C
1391 30-07-2019 19:50:00 23.7 C 56 % 14.4 C
1392 30-07-2019 19:55:00 23.7 C 55 % 14.13 C
1393 30-07-2019 20:00:00 23.7 C 56 % 14.4 C
1394 30-07-2019 20:05:00 23.8 C 56 % 14.5 C
1395 30-07-2019 20:10:00 23.9 C 55 % 14.31 C
1396 30-07-2019 20:15:00 23.9 C 55 % 14.31 C
1397 30-07-2019 20:20:00 24 C 55 % 14.41 C
1398 30-07-2019 20:25:00 24 C 55 % 14.41 C
1399 30-07-2019 20:30:00 24.1 C 55 % 14.5 C
1400 30-07-2019 20:35:00 24.2 C 55 % 14.59 C
Sensor: Nr:Datum:Temp:Feuchte:Taupunkt:
Aussen-T/F 1401 30-07-2019 20:40:00 24.3 C 55 % 14.68 C
1402 30-07-2019 20:45:00 24.4 C 55 % 14.78 C
1403 30-07-2019 20:50:00 24.4 C 55 % 14.78 C
1404 30-07-2019 20:55:00 24.4 C 55 % 14.78 C
1405 30-07-2019 21:00:00 24.3 C 55 % 14.68 C
1406 30-07-2019 21:05:00 24.3 C 54 % 14.4 C
1407 30-07-2019 21:10:00 24.2 C 54 % 14.31 C
1408 30-07-2019 21:15:00 24.1 C 55 % 14.5 C
1409 30-07-2019 21:20:00 23.9 C 56 % 14.59 C
1410 30-07-2019 21:25:00 23.8 C 57 % 14.77 C
1411 30-07-2019 21:30:00 23.6 C 57 % 14.59 C
1412 30-07-2019 21:35:00 23.4 C 58 % 14.67 C
1413 30-07-2019 21:40:00 23.3 C 58 % 14.58 C
1414 30-07-2019 21:45:00 23.2 C 59 % 14.75 C
1415 30-07-2019 21:50:00 23.1 C 59 % 14.65 C
1416 30-07-2019 21:55:00 22.9 C 59 % 14.47 C
1417 30-07-2019 22:00:00 22.7 C 60 % 14.54 C
1418 30-07-2019 22:05:00 22.6 C 60 % 14.44 C
1419 30-07-2019 22:10:00 22.5 C 61 % 14.61 C
1420 30-07-2019 22:15:00 22.4 C 62 % 14.76 C
1421 30-07-2019 22:20:00 22.3 C 62 % 14.67 C
1422 30-07-2019 22:25:00 22.2 C 63 % 14.82 C
1423 30-07-2019 22:30:00 22.1 C 63 % 14.73 C
1424 30-07-2019 22:35:00 22.1 C 63 % 14.73 C
1425 30-07-2019 22:40:00 22 C 63 % 14.63 C
Sensor: Nr:Datum:Temp:Feuchte:Taupunkt:
Aussen-T/F 1426 30-07-2019 22:45:00 21.9 C 64 % 14.78 C
1427 30-07-2019 22:50:00 21.9 C 66 % 15.26 C
1428 30-07-2019 22:55:00 21.8 C 66 % 15.17 C
1429 30-07-2019 23:00:00 21.7 C 66 % 15.07 C
1430 30-07-2019 23:05:00 21.6 C 66 % 14.98 C
1431 30-07-2019 23:10:00 21.5 C 67 % 15.12 C
1432 30-07-2019 23:15:00 21.4 C 67 % 15.02 C
1433 30-07-2019 23:20:00 21.3 C 68 % 15.16 C
1434 30-07-2019 23:25:00 21.2 C 69 % 15.29 C
1435 30-07-2019 23:30:00 21.1 C 69 % 15.19 C
1436 30-07-2019 23:35:00 21 C 69 % 15.1 C
1437 30-07-2019 23:40:00 20.9 C 68 % 14.77 C
1438 30-07-2019 23:45:00 20.8 C 69 % 14.91 C
1439 30-07-2019 23:50:00 20.8 C 69 % 14.91 C
1440 30-07-2019 23:55:00 20.8 C 69 % 14.91 C
1441 31-07-2019 00:00:00 20.7 C 69 % 14.81 C
1442 31-07-2019 00:05:00 20.7 C 69 % 14.81 C
1443 31-07-2019 00:10:00 20.7 C 69 % 14.81 C
1444 31-07-2019 00:15:00 20.6 C 69 % 14.71 C
1445 31-07-2019 00:20:00 20.6 C 70 % 14.94 C
1446 31-07-2019 00:25:00 20.6 C 70 % 14.94 C
1447 31-07-2019 00:30:00 20.6 C 69 % 14.71 C
1448 31-07-2019 00:35:00 20.5 C 70 % 14.84 C
1449 31-07-2019 00:40:00 20.4 C 70 % 14.75 C
1450 31-07-2019 00:45:00 20.4 C 71 % 14.97 C
Sensor: Nr:Datum:Temp:Feuchte:Taupunkt:
Aussen-T/F 1451 31-07-2019 00:50:00 20.4 C 71 % 14.97 C
1452 31-07-2019 00:55:00 20.4 C 71 % 14.97 C
1453 31-07-2019 01:00:00 20.3 C 71 % 14.87 C
1454 31-07-2019 01:05:00 20.3 C 71 % 14.87 C
1455 31-07-2019 01:10:00 20.3 C 71 % 14.87 C
1456 31-07-2019 01:15:00 20.3 C 71 % 14.87 C
1457 31-07-2019 01:20:00 20.3 C 71 % 14.87 C
1458 31-07-2019 01:25:00 20.3 C 71 % 14.87 C
1459 31-07-2019 01:30:00 20.3 C 71 % 14.87 C
1460 31-07-2019 01:35:00 20.3 C 71 % 14.87 C
1461 31-07-2019 01:40:00 20.4 C 71 % 14.97 C
1462 31-07-2019 01:45:00 20.4 C 71 % 14.97 C
1463 31-07-2019 01:50:00 20.4 C 71 % 14.97 C
1464 31-07-2019 01:55:00 20.3 C 71 % 14.87 C
1465 31-07-2019 02:00:00 20.2 C 71 % 14.78 C
1466 31-07-2019 02:05:00 20.1 C 71 % 14.68 C
1467 31-07-2019 02:10:00 19.9 C 71 % 14.49 C
1468 31-07-2019 02:15:00 19.8 C 71 % 14.39 C
1469 31-07-2019 02:20:00 19.8 C 72 % 14.61 C
1470 31-07-2019 02:25:00 19.7 C 72 % 14.51 C
1471 31-07-2019 02:30:00 19.7 C 72 % 14.51 C
1472 31-07-2019 02:35:00 19.6 C 72 % 14.42 C
1473 31-07-2019 02:40:00 19.6 C 72 % 14.42 C
1474 31-07-2019 02:45:00 19.4 C 72 % 14.22 C
1475 31-07-2019 02:50:00 19.4 C 72 % 14.22 C
Sensor: Nr:Datum:Temp:Feuchte:Taupunkt:
Aussen-T/F 1476 31-07-2019 02:55:00 19.3 C 72 % 14.13 C
1477 31-07-2019 03:00:00 19.2 C 72 % 14.03 C
1478 31-07-2019 03:05:00 19.1 C 73 % 14.15 C
1479 31-07-2019 03:10:00 18.9 C 73 % 13.96 C
1480 31-07-2019 03:15:00 18.8 C 74 % 14.07 C
1481 31-07-2019 03:20:00 18.7 C 74 % 13.97 C
1482 31-07-2019 03:25:00 18.6 C 75 % 14.08 C
1483 31-07-2019 03:30:00 18.6 C 76 % 14.29 C
1484 31-07-2019 03:35:00 18.4 C 76 % 14.1 C
1485 31-07-2019 03:40:00 18.4 C 76 % 14.1 C
1486 31-07-2019 03:45:00 18.3 C 77 % 14.2 C
1487 31-07-2019 03:50:00 18.3 C 77 % 14.2 C
1488 31-07-2019 03:55:00 18.3 C 78 % 14.4 C
1489 31-07-2019 04:00:00 18.3 C 78 % 14.4 C
1490 31-07-2019 04:05:00 18.3 C 79 % 14.6 C
1491 31-07-2019 04:10:00 18.3 C 78 % 14.4 C
1492 31-07-2019 04:15:00 18.4 C 78 % 14.5 C
1493 31-07-2019 04:20:00 18.6 C 77 % 14.49 C
1494 31-07-2019 04:25:00 18.7 C 77 % 14.59 C
1495 31-07-2019 04:30:00 18.7 C 76 % 14.39 C
1496 31-07-2019 04:35:00 18.7 C 76 % 14.39 C
1497 31-07-2019 04:40:00 18.8 C 76 % 14.48 C
1498 31-07-2019 04:45:00 18.8 C 77 % 14.68 C
1499 31-07-2019 04:50:00 18.7 C 76 % 14.39 C
1500 31-07-2019 04:55:00 18.6 C 76 % 14.29 C
Sensor: Nr:Datum:Temp:Feuchte:Taupunkt:
Aussen-T/F 1501 31-07-2019 05:00:00 18.4 C 76 % 14.1 C
1502 31-07-2019 05:05:00 18.3 C 76 % 14 C
1503 31-07-2019 05:10:00 18.1 C 76 % 13.81 C
1504 31-07-2019 05:15:00 17.9 C 77 % 13.81 C
1505 31-07-2019 05:20:00 17.8 C 78 % 13.91 C
1506 31-07-2019 05:25:00 17.7 C 78 % 13.82 C
1507 31-07-2019 05:30:00 17.7 C 79 % 14.01 C
1508 31-07-2019 05:35:00 17.6 C 79 % 13.92 C
1509 31-07-2019 05:40:00 17.6 C 79 % 13.92 C
1510 31-07-2019 05:45:00 17.6 C 79 % 13.92 C
1511 31-07-2019 05:50:00 17.6 C 80 % 14.11 C
1512 31-07-2019 05:55:00 17.7 C 79 % 14.01 C
1513 31-07-2019 06:00:00 17.7 C 79 % 14.01 C
1514 31-07-2019 06:05:00 17.7 C 79 % 14.01 C
1515 31-07-2019 06:10:00 17.7 C 79 % 14.01 C
1516 31-07-2019 06:15:00 17.8 C 78 % 13.91 C
1517 31-07-2019 06:20:00 17.8 C 78 % 13.91 C
1518 31-07-2019 06:25:00 17.7 C 78 % 13.82 C
1519 31-07-2019 06:30:00 17.7 C 78 % 13.82 C
1520 31-07-2019 06:35:00 17.7 C 78 % 13.82 C
1521 31-07-2019 06:40:00 17.6 C 78 % 13.72 C
1522 31-07-2019 06:45:00 17.5 C 78 % 13.62 C
1523 31-07-2019 06:50:00 17.4 C 79 % 13.72 C
1524 31-07-2019 06:55:00 17.4 C 79 % 13.72 C
1525 31-07-2019 07:00:00 17.3 C 79 % 13.63 C
Sensor: Nr:Datum:Temp:Feuchte:Taupunkt:
Aussen-T/F 1526 31-07-2019 07:05:00 17.3 C 80 % 13.82 C
1527 31-07-2019 07:10:00 17.3 C 80 % 13.82 C
1528 31-07-2019 07:15:00 17.3 C 80 % 13.82 C
1529 31-07-2019 07:20:00 17.3 C 80 % 13.82 C
1530 31-07-2019 07:25:00 17.3 C 80 % 13.82 C
1531 31-07-2019 07:30:00 17.3 C 80 % 13.82 C
1532 31-07-2019 07:35:00 17.4 C 80 % 13.92 C
1533 31-07-2019 07:40:00 17.4 C 80 % 13.92 C
1534 31-07-2019 07:45:00 17.4 C 80 % 13.92 C
1535 31-07-2019 07:50:00 17.6 C 80 % 14.11 C
1536 31-07-2019 07:55:00 17.6 C 80 % 14.11 C
1537 31-07-2019 08:00:00 17.7 C 79 % 14.01 C
1538 31-07-2019 08:05:00 17.8 C 78 % 13.91 C
1539 31-07-2019 08:10:00 17.9 C 78 % 14.01 C
1540 31-07-2019 08:15:00 18 C 78 % 14.11 C
1541 31-07-2019 08:20:00 18.1 C 79 % 14.4 C
1542 31-07-2019 08:25:00 18.2 C 76 % 13.9 C
1543 31-07-2019 08:30:00 18.4 C 75 % 13.89 C
1544 31-07-2019 08:35:00 18.7 C 74 % 13.97 C
1545 31-07-2019 08:40:00 18.9 C 73 % 13.96 C
1546 31-07-2019 08:45:00 19.1 C 72 % 13.94 C
1547 31-07-2019 08:50:00 19.2 C 72 % 14.03 C
1548 31-07-2019 08:55:00 19.3 C 71 % 13.91 C
1549 31-07-2019 09:00:00 19.4 C 72 % 14.22 C
1550 31-07-2019 09:05:00 19.5 C 71 % 14.1 C
Sensor: Nr:Datum:Temp:Feuchte:Taupunkt:
Aussen-T/F 1551 31-07-2019 09:10:00 19.6 C 70 % 13.98 C
1552 31-07-2019 09:15:00 19.8 C 70 % 14.17 C
1553 31-07-2019 09:20:00 19.8 C 69 % 13.95 C
1554 31-07-2019 09:25:00 19.9 C 68 % 13.82 C
1555 31-07-2019 09:30:00 20.1 C 67 % 13.78 C
1556 31-07-2019 09:35:00 20.2 C 67 % 13.88 C
1557 31-07-2019 09:40:00 20.4 C 66 % 13.84 C
1558 31-07-2019 09:45:00 20.4 C 65 % 13.6 C
1559 31-07-2019 09:50:00 20.5 C 64 % 13.46 C
1560 31-07-2019 09:55:00 20.6 C 63 % 13.31 C
1561 31-07-2019 10:00:00 20.7 C 64 % 13.65 C
1562 31-07-2019 10:05:00 20.8 C 62 % 13.26 C
1563 31-07-2019 10:10:00 20.9 C 61 % 13.1 C
1564 31-07-2019 10:15:00 21.2 C 61 % 13.38 C
1565 31-07-2019 10:20:00 21.4 C 59 % 13.06 C
1566 31-07-2019 10:25:00 21.4 C 57 % 12.53 C
1567 31-07-2019 10:30:00 21.4 C 57 % 12.53 C
1568 31-07-2019 10:35:00 21.5 C 56 % 12.36 C
1569 31-07-2019 10:40:00 21.7 C 57 % 12.81 C
1570 31-07-2019 10:45:00 21.8 C 58 % 13.17 C
1571 31-07-2019 10:50:00 21.8 C 56 % 12.64 C
1572 31-07-2019 10:55:00 21.7 C 57 % 12.81 C
1573 31-07-2019 11:00:00 21.5 C 56 % 12.36 C
1574 31-07-2019 11:05:00 21.3 C 56 % 12.17 C
1575 31-07-2019 11:10:00 21.1 C 58 % 12.52 C
Sensor: Nr:Datum:Temp:Feuchte:Taupunkt:
Aussen-T/F 1576 31-07-2019 11:15:00 21.1 C 57 % 12.25 C
1577 31-07-2019 11:20:00 21.2 C 57 % 12.35 C
1578 31-07-2019 11:25:00 21.4 C 56 % 12.27 C
1579 31-07-2019 11:30:00 21.6 C 55 % 12.18 C
1580 31-07-2019 11:35:00 21.8 C 54 % 12.08 C
1581 31-07-2019 11:40:00 21.9 C 54 % 12.18 C
1582 31-07-2019 11:45:00 22 C 54 % 12.27 C
1583 31-07-2019 11:50:00 22.2 C 53 % 12.17 C
1584 31-07-2019 11:55:00 22.2 C 53 % 12.17 C
1585 31-07-2019 12:00:00 22.1 C 52 % 11.79 C
1586 31-07-2019 12:05:00 22.2 C 52 % 11.88 C
1587 31-07-2019 12:10:00 22.3 C 52 % 11.97 C
1588 31-07-2019 12:15:00 22.6 C 53 % 12.54 C
1589 31-07-2019 12:20:00 22.8 C 52 % 12.43 C
1590 31-07-2019 12:25:00 22.9 C 51 % 12.23 C
1591 31-07-2019 12:30:00 22.9 C 48 % 11.31 C
1592 31-07-2019 12:35:00 22.7 C 49 % 11.44 C
1593 31-07-2019 12:40:00 22.8 C 49 % 11.53 C
1594 31-07-2019 12:45:00 22.8 C 50 % 11.84 C
1595 31-07-2019 12:50:00 22.9 C 51 % 12.23 C
1596 31-07-2019 12:55:00 23 C 51 % 12.32 C
1597 31-07-2019 13:00:00 23.1 C 52 % 12.71 C
1598 31-07-2019 13:05:00 23.2 C 51 % 12.51 C
1599 31-07-2019 13:10:00 23.3 C 49 % 11.99 C
1600 31-07-2019 13:15:00 23.3 C 47 % 11.36 C
Sensor: Nr:Datum:Temp:Feuchte:Taupunkt:
Aussen-T/F 1601 31-07-2019 13:20:00 23.4 C 47 % 11.45 C
1602 31-07-2019 13:25:00 23.6 C 47 % 11.63 C
1603 31-07-2019 13:30:00 23.9 C 46 % 11.58 C
1604 31-07-2019 13:35:00 24 C 45 % 11.34 C
1605 31-07-2019 13:40:00 24 C 46 % 11.67 C
1606 31-07-2019 13:45:00 24.1 C 45 % 11.43 C
1607 31-07-2019 13:50:00 24.2 C 44 % 11.18 C
1608 31-07-2019 13:55:00 24.2 C 45 % 11.52 C
1609 31-07-2019 14:00:00 24.3 C 44 % 11.27 C
1610 31-07-2019 14:05:00 24.4 C 44 % 11.36 C
1611 31-07-2019 14:10:00 24.3 C 43 % 10.93 C
1612 31-07-2019 14:15:00 24.4 C 43 % 11.02 C
1613 31-07-2019 14:20:00 24.5 C 44 % 11.45 C
1614 31-07-2019 14:25:00 24.7 C 44 % 11.63 C
1615 31-07-2019 14:30:00 25 C 42 % 11.2 C
1616 31-07-2019 14:35:00 25.1 C 41 % 10.93 C
1617 31-07-2019 14:40:00 24.9 C 41 % 10.75 C
1618 31-07-2019 14:45:00 25.1 C 41 % 10.93 C
1619 31-07-2019 14:50:00 25.2 C 41 % 11.02 C
1620 31-07-2019 14:55:00 25.3 C 41 % 11.11 C
1621 31-07-2019 15:00:00 25.4 C 39 % 10.45 C
1622 31-07-2019 15:05:00 25.4 C 40 % 10.83 C
1623 31-07-2019 15:10:00 25.1 C 41 % 10.93 C
1624 31-07-2019 15:15:00 25.1 C 43 % 11.65 C
1625 31-07-2019 15:20:00 25.4 C 40 % 10.83 C
Sensor: Nr:Datum:Temp:Feuchte:Taupunkt:
Aussen-T/F 1626 31-07-2019 15:25:00 25.8 C 40 % 11.18 C
1627 31-07-2019 15:30:00 26 C 39 % 10.98 C
1628 31-07-2019 15:35:00 26 C 39 % 10.98 C
1629 31-07-2019 15:40:00 25.6 C 40 % 11 C
1630 31-07-2019 15:45:00 25.7 C 40 % 11.09 C
1631 31-07-2019 15:50:00 25.6 C 40 % 11 C
1632 31-07-2019 15:55:00 25.5 C 40 % 10.91 C
1633 31-07-2019 16:00:00 25.9 C 40 % 11.27 C
1634 31-07-2019 16:05:00 26.3 C 38 % 10.86 C
1635 31-07-2019 16:10:00 25.8 C 39 % 10.8 C
1636 31-07-2019 16:15:00 25.2 C 41 % 11.02 C
1637 31-07-2019 16:20:00 24.8 C 42 % 11.02 C
1638 31-07-2019 16:25:00 24.7 C 43 % 11.29 C
1639 31-07-2019 16:30:00 24.6 C 43 % 11.2 C
1640 31-07-2019 16:35:00 24.4 C 43 % 11.02 C
1641 31-07-2019 16:40:00 24.3 C 44 % 11.27 C
1642 31-07-2019 16:45:00 24.3 C 45 % 11.61 C
1643 31-07-2019 16:50:00 24.4 C 45 % 11.7 C
1644 31-07-2019 16:55:00 24.8 C 45 % 12.06 C
1645 31-07-2019 17:00:00 24.8 C 44 % 11.72 C
1646 31-07-2019 17:05:00 25.1 C 44 % 12 C
1647 31-07-2019 17:10:00 25.4 C 43 % 11.92 C
1648 31-07-2019 17:15:00 25.6 C 43 % 12.1 C
1649 31-07-2019 17:20:00 25.7 C 43 % 12.19 C
1650 31-07-2019 17:25:00 25.4 C 43 % 11.92 C
Sensor: Nr:Datum:Temp:Feuchte:Taupunkt:
Aussen-T/F 1651 31-07-2019 17:30:00 25.2 C 41 % 11.02 C
1652 31-07-2019 17:35:00 25.2 C 42 % 11.38 C
1653 31-07-2019 17:40:00 25.1 C 43 % 11.65 C
1654 31-07-2019 17:45:00 25.1 C 43 % 11.65 C
1655 31-07-2019 17:50:00 25.2 C 43 % 11.74 C
1656 31-07-2019 17:55:00 25.2 C 43 % 11.74 C
1657 31-07-2019 18:00:00 24.8 C 44 % 11.72 C
1658 31-07-2019 18:05:00 24.4 C 45 % 11.7 C
1659 31-07-2019 18:10:00 24.2 C 46 % 11.85 C
1660 31-07-2019 18:15:00 23.9 C 46 % 11.58 C
1661 31-07-2019 18:20:00 23.8 C 48 % 12.14 C
1662 31-07-2019 18:25:00 23.7 C 47 % 11.73 C
1663 31-07-2019 18:30:00 23.7 C 47 % 11.73 C
1664 31-07-2019 18:35:00 23.6 C 48 % 11.95 C
1665 31-07-2019 18:40:00 23.6 C 50 % 12.57 C
1666 31-07-2019 18:45:00 23.6 C 48 % 11.95 C
1667 31-07-2019 18:50:00 23.6 C 48 % 11.95 C
1668 31-07-2019 18:55:00 23.6 C 48 % 11.95 C
1669 31-07-2019 19:00:00 23.6 C 48 % 11.95 C
1670 31-07-2019 19:05:00 23.7 C 47 % 11.73 C
1671 31-07-2019 19:10:00 23.9 C 48 % 12.23 C
1672 31-07-2019 19:15:00 24 C 48 % 12.32 C
1673 31-07-2019 19:20:00 23.9 C 50 % 12.85 C
1674 31-07-2019 19:25:00 23.7 C 50 % 12.67 C
1675 31-07-2019 19:30:00 23.4 C 50 % 12.39 C
Sensor: Nr:Datum:Temp:Feuchte:Taupunkt:
Aussen-T/F 1676 31-07-2019 19:35:00 23.3 C 46 % 11.04 C
1677 31-07-2019 19:40:00 23.2 C 45 % 10.62 C
1678 31-07-2019 19:45:00 23.2 C 46 % 10.95 C
1679 31-07-2019 19:50:00 23.1 C 51 % 12.42 C
1680 31-07-2019 19:55:00 22.9 C 53 % 12.82 C
1681 31-07-2019 20:00:00 22.8 C 53 % 12.73 C
1682 31-07-2019 20:05:00 22.7 C 53 % 12.63 C
1683 31-07-2019 20:10:00 22.4 C 53 % 12.36 C
1684 31-07-2019 20:15:00 22.3 C 54 % 12.55 C
1685 31-07-2019 20:20:00 22.2 C 54 % 12.45 C
1686 31-07-2019 20:25:00 22.2 C 56 % 13.01 C
1687 31-07-2019 20:30:00 22.2 C 57 % 13.28 C
1688 31-07-2019 20:35:00 22.1 C 57 % 13.19 C
1689 31-07-2019 20:40:00 21.9 C 57 % 13 C
1690 31-07-2019 20:45:00 21.7 C 58 % 13.08 C
1691 31-07-2019 20:50:00 21.4 C 58 % 12.8 C
1692 31-07-2019 20:55:00 21.2 C 59 % 12.87 C
1693 31-07-2019 21:00:00 21 C 60 % 12.94 C
1694 31-07-2019 21:05:00 20.8 C 60 % 12.76 C
1695 31-07-2019 21:10:00 20.7 C 61 % 12.91 C
1696 31-07-2019 21:15:00 20.4 C 60 % 12.38 C
1697 31-07-2019 21:20:00 20.2 C 60 % 12.19 C
1698 31-07-2019 21:25:00 20 C 60 % 12 C
1699 31-07-2019 21:30:00 19.8 C 59 % 11.56 C
1700 31-07-2019 21:35:00 19.6 C 59 % 11.37 C
Sensor: Nr:Datum:Temp:Feuchte:Taupunkt:
Aussen-T/F 1701 31-07-2019 21:40:00 19.4 C 59 % 11.19 C
1702 31-07-2019 21:45:00 19.2 C 59 % 11 C
1703 31-07-2019 21:50:00 19.1 C 59 % 10.91 C
1704 31-07-2019 21:55:00 18.9 C 60 % 10.97 C
1705 31-07-2019 22:00:00 18.8 C 60 % 10.88 C
1706 31-07-2019 22:05:00 18.7 C 61 % 11.03 C
1707 31-07-2019 22:10:00 18.7 C 60 % 10.78 C
1708 31-07-2019 22:15:00 18.6 C 61 % 10.94 C
1709 31-07-2019 22:20:00 18.6 C 61 % 10.94 C
1710 31-07-2019 22:25:00 18.6 C 61 % 10.94 C
1711 31-07-2019 22:30:00 18.6 C 61 % 10.94 C
1712 31-07-2019 22:35:00 18.6 C 61 % 10.94 C
1713 31-07-2019 22:40:00 18.7 C 62 % 11.28 C
1714 31-07-2019 22:45:00 18.7 C 62 % 11.28 C
1715 31-07-2019 22:50:00 18.8 C 61 % 11.13 C
1716 31-07-2019 22:55:00 18.8 C 61 % 11.13 C
1717 31-07-2019 23:00:00 18.9 C 61 % 11.22 C
1718 31-07-2019 23:05:00 18.9 C 61 % 11.22 C
1719 31-07-2019 23:10:00 18.9 C 61 % 11.22 C
1720 31-07-2019 23:15:00 18.8 C 62 % 11.37 C
1721 31-07-2019 23:20:00 18.8 C 62 % 11.37 C
1722 31-07-2019 23:25:00 18.7 C 62 % 11.28 C
1723 31-07-2019 23:30:00 18.5 C 63 % 11.33 C
1724 31-07-2019 23:35:00 18.4 C 63 % 11.23 C
1725 31-07-2019 23:40:00 18.2 C 64 % 11.28 C
Sensor: Nr:Datum:Temp:Feuchte:Taupunkt:
Aussen-T/F 1726 31-07-2019 23:45:00 17.9 C 65 % 11.23 C
1727 31-07-2019 23:50:00 17.8 C 66 % 11.37 C
1728 31-07-2019 23:55:00 17.6 C 67 % 11.4 C
1729 01-08-2019 00:00:00 17.4 C 68 % 11.44 C
1730 01-08-2019 00:05:00 17.3 C 69 % 11.56 C
1731 01-08-2019 00:10:00 17.2 C 69 % 11.47 C
1732 01-08-2019 00:15:00 17.1 C 70 % 11.59 C
1733 01-08-2019 00:20:00 17 C 70 % 11.49 C
1734 01-08-2019 00:25:00 16.9 C 71 % 11.61 C
1735 01-08-2019 00:30:00 16.9 C 71 % 11.61 C
1736 01-08-2019 00:35:00 16.8 C 70 % 11.3 C
1737 01-08-2019 00:40:00 16.7 C 71 % 11.42 C
1738 01-08-2019 00:45:00 16.6 C 71 % 11.32 C
1739 01-08-2019 00:50:00 16.4 C 71 % 11.13 C
1740 01-08-2019 00:55:00 16.3 C 72 % 11.25 C
1741 01-08-2019 01:00:00 16.1 C 73 % 11.26 C
1742 01-08-2019 01:05:00 15.9 C 73 % 11.07 C
1743 01-08-2019 01:10:00 15.8 C 74 % 11.18 C
1744 01-08-2019 01:15:00 15.7 C 75 % 11.28 C
1745 01-08-2019 01:20:00 15.6 C 75 % 11.19 C
1746 01-08-2019 01:25:00 15.6 C 75 % 11.19 C
1747 01-08-2019 01:30:00 15.4 C 75 % 11 C
1748 01-08-2019 01:35:00 15.4 C 75 % 11 C
1749 01-08-2019 01:40:00 15.3 C 76 % 11.1 C
1750 01-08-2019 01:45:00 15.2 C 76 % 11 C
Sensor: Nr:Datum:Temp:Feuchte:Taupunkt:
Aussen-T/F 1751 01-08-2019 01:50:00 15.2 C 76 % 11 C
1752 01-08-2019 01:55:00 15.1 C 77 % 11.1 C
1753 01-08-2019 02:00:00 15.1 C 77 % 11.1 C
1754 01-08-2019 02:05:00 14.9 C 77 % 10.91 C
1755 01-08-2019 02:10:00 14.9 C 78 % 11.1 C
1756 01-08-2019 02:15:00 14.8 C 78 % 11 C
1757 01-08-2019 02:20:00 14.8 C 79 % 11.2 C
1758 01-08-2019 02:25:00 14.7 C 79 % 11.1 C
1759 01-08-2019 02:30:00 14.6 C 79 % 11 C
1760 01-08-2019 02:35:00 14.6 C 80 % 11.19 C
1761 01-08-2019 02:40:00 14.6 C 80 % 11.19 C
1762 01-08-2019 02:45:00 14.6 C 80 % 11.19 C
1763 01-08-2019 02:50:00 14.6 C 80 % 11.19 C
1764 01-08-2019 02:55:00 14.6 C 80 % 11.19 C
1765 01-08-2019 03:00:00 14.6 C 81 % 11.38 C
1766 01-08-2019 03:05:00 14.6 C 81 % 11.38 C
1767 01-08-2019 03:10:00 14.7 C 80 % 11.29 C
1768 01-08-2019 03:15:00 14.6 C 80 % 11.19 C
1769 01-08-2019 03:20:00 14.5 C 80 % 11.09 C
1770 01-08-2019 03:25:00 14.3 C 80 % 10.9 C
1771 01-08-2019 03:30:00 14.2 C 81 % 10.99 C
1772 01-08-2019 03:35:00 14 C 81 % 10.79 C
1773 01-08-2019 03:40:00 13.8 C 81 % 10.6 C
1774 01-08-2019 03:45:00 13.7 C 82 % 10.69 C
1775 01-08-2019 03:50:00 13.5 C 82 % 10.49 C
Sensor: Nr:Datum:Temp:Feuchte:Taupunkt:
Aussen-T/F 1776 01-08-2019 03:55:00 13.4 C 83 % 10.57 C
1777 01-08-2019 04:00:00 13.3 C 83 % 10.48 C
1778 01-08-2019 04:05:00 13.2 C 83 % 10.38 C
1779 01-08-2019 04:10:00 13.1 C 84 % 10.46 C
1780 01-08-2019 04:15:00 13 C 84 % 10.36 C
1781 01-08-2019 04:20:00 13 C 85 % 10.54 C
1782 01-08-2019 04:25:00 12.9 C 85 % 10.44 C
1783 01-08-2019 04:30:00 12.9 C 85 % 10.44 C
1784 01-08-2019 04:35:00 12.8 C 86 % 10.52 C
1785 01-08-2019 04:40:00 12.8 C 86 % 10.52 C
1786 01-08-2019 04:45:00 12.9 C 86 % 10.62 C
1787 01-08-2019 04:50:00 12.8 C 86 % 10.52 C
1788 01-08-2019 04:55:00 12.8 C 86 % 10.52 C
1789 01-08-2019 05:00:00 12.8 C 86 % 10.52 C
1790 01-08-2019 05:05:00 12.8 C 86 % 10.52 C
1791 01-08-2019 05:10:00 12.7 C 86 % 10.42 C
1792 01-08-2019 05:15:00 12.7 C 87 % 10.59 C
1793 01-08-2019 05:20:00 12.6 C 87 % 10.5 C
1794 01-08-2019 05:25:00 12.6 C 87 % 10.5 C
1795 01-08-2019 05:30:00 12.7 C 88 % 10.77 C
1796 01-08-2019 05:35:00 12.7 C 87 % 10.59 C
1797 01-08-2019 05:40:00 12.6 C 87 % 10.5 C
1798 01-08-2019 05:45:00 12.5 C 87 % 10.4 C
1799 01-08-2019 05:50:00 12.4 C 87 % 10.3 C
1800 01-08-2019 05:55:00 12.4 C 87 % 10.3 C
Sensor: Nr:Datum:Temp:Feuchte:Taupunkt:
Aussen-T/F 1801 01-08-2019 06:00:00 12.3 C 88 % 10.37 C
1802 01-08-2019 06:05:00 12.3 C 88 % 10.37 C
1803 01-08-2019 06:10:00 12.2 C 88 % 10.27 C
1804 01-08-2019 06:15:00 12.2 C 88 % 10.27 C
1805 01-08-2019 06:20:00 12.1 C 88 % 10.17 C
1806 01-08-2019 06:25:00 12.1 C 89 % 10.34 C
1807 01-08-2019 06:30:00 12.1 C 88 % 10.17 C
1808 01-08-2019 06:35:00 12 C 89 % 10.25 C
1809 01-08-2019 06:40:00 12 C 89 % 10.25 C
1810 01-08-2019 06:45:00 12 C 89 % 10.25 C
1811 01-08-2019 06:50:00 12.1 C 89 % 10.34 C
1812 01-08-2019 06:55:00 12.1 C 89 % 10.34 C
1813 01-08-2019 07:00:00 12.1 C 89 % 10.34 C
1814 01-08-2019 07:05:00 12.1 C 89 % 10.34 C
1815 01-08-2019 07:10:00 12.1 C 89 % 10.34 C
1816 01-08-2019 07:15:00 12.2 C 89 % 10.44 C
1817 01-08-2019 07:20:00 12.2 C 89 % 10.44 C
1818 01-08-2019 07:25:00 12.2 C 90 % 10.61 C
1819 01-08-2019 07:30:00 12.3 C 90 % 10.71 C
1820 01-08-2019 07:35:00 12.5 C 90 % 10.91 C
1821 01-08-2019 07:40:00 12.8 C 90 % 11.2 C
1822 01-08-2019 07:45:00 13.1 C 89 % 11.33 C
1823 01-08-2019 07:50:00 13.4 C 88 % 11.45 C
1824 01-08-2019 07:55:00 13.7 C 88 % 11.75 C
1825 01-08-2019 08:00:00 13.9 C 87 % 11.77 C
Sensor: Nr:Datum:Temp:Feuchte:Taupunkt:
Aussen-T/F 1826 01-08-2019 08:05:00 14.2 C 86 % 11.89 C
1827 01-08-2019 08:10:00 14.4 C 85 % 11.91 C
1828 01-08-2019 08:15:00 14.7 C 83 % 11.85 C
1829 01-08-2019 08:20:00 15 C 83 % 12.14 C
1830 01-08-2019 08:25:00 15.2 C 81 % 11.96 C
1831 01-08-2019 08:30:00 15.3 C 80 % 11.87 C
1832 01-08-2019 08:35:00 15.5 C 80 % 12.07 C
1833 01-08-2019 08:40:00 15.7 C 79 % 12.07 C
1834 01-08-2019 08:45:00 15.8 C 79 % 12.17 C
1835 01-08-2019 08:50:00 16.1 C 78 % 12.27 C
1836 01-08-2019 08:55:00 16.3 C 77 % 12.26 C
1837 01-08-2019 09:00:00 16.6 C 77 % 12.55 C
1838 01-08-2019 09:05:00 16.9 C 76 % 12.65 C
1839 01-08-2019 09:10:00 17.2 C 75 % 12.73 C
1840 01-08-2019 09:15:00 17.3 C 75 % 12.83 C
1841 01-08-2019 09:20:00 17.4 C 74 % 12.72 C
1842 01-08-2019 09:25:00 17.5 C 74 % 12.82 C
1843 01-08-2019 09:30:00 17.6 C 73 % 12.71 C
1844 01-08-2019 09:35:00 17.6 C 73 % 12.71 C
1845 01-08-2019 09:40:00 17.7 C 73 % 12.8 C
1846 01-08-2019 09:45:00 18 C 72 % 12.88 C
1847 01-08-2019 09:50:00 18.3 C 71 % 12.95 C
1848 01-08-2019 09:55:00 18.7 C 70 % 13.12 C
1849 01-08-2019 10:00:00 19.2 C 68 % 13.15 C
1850 01-08-2019 10:05:00 19.4 C 67 % 13.12 C
Sensor: Nr:Datum:Temp:Feuchte:Taupunkt:
Aussen-T/F 1851 01-08-2019 10:10:00 19.7 C 65 % 12.94 C
1852 01-08-2019 10:15:00 20 C 63 % 12.75 C
1853 01-08-2019 10:20:00 20.2 C 63 % 12.94 C
1854 01-08-2019 10:25:00 20.3 C 62 % 12.79 C
1855 01-08-2019 10:30:00 20.5 C 60 % 12.47 C
1856 01-08-2019 10:35:00 20.6 C 61 % 12.82 C
1857 01-08-2019 10:40:00 20.7 C 61 % 12.91 C
1858 01-08-2019 10:45:00 20.8 C 62 % 13.26 C
1859 01-08-2019 10:50:00 21.1 C 59 % 12.78 C
1860 01-08-2019 10:55:00 21.1 C 58 % 12.52 C
1861 01-08-2019 11:00:00 21.2 C 57 % 12.35 C
1862 01-08-2019 11:05:00 21.2 C 57 % 12.35 C
1863 01-08-2019 11:10:00 21.3 C 57 % 12.44 C
1864 01-08-2019 11:15:00 21.4 C 58 % 12.8 C
1865 01-08-2019 11:20:00 21.6 C 57 % 12.72 C
1866 01-08-2019 11:25:00 21.7 C 56 % 12.54 C
1867 01-08-2019 11:30:00 21.9 C 55 % 12.46 C
1868 01-08-2019 11:35:00 22.1 C 54 % 12.36 C
1869 01-08-2019 11:40:00 22 C 55 % 12.55 C
1870 01-08-2019 11:45:00 22.2 C 55 % 12.73 C
1871 01-08-2019 11:50:00 22.3 C 54 % 12.55 C
1872 01-08-2019 11:55:00 22.4 C 54 % 12.64 C
1873 01-08-2019 12:00:00 22.4 C 54 % 12.64 C
1874 01-08-2019 12:05:00 22.6 C 53 % 12.54 C
1875 01-08-2019 12:10:00 22.6 C 53 % 12.54 C
Sensor: Nr:Datum:Temp:Feuchte:Taupunkt:
Aussen-T/F 1876 01-08-2019 12:15:00 22.6 C 53 % 12.54 C
1877 01-08-2019 12:20:00 22.7 C 53 % 12.63 C
1878 01-08-2019 12:25:00 22.8 C 52 % 12.43 C
1879 01-08-2019 12:30:00 22.7 C 53 % 12.63 C
1880 01-08-2019 12:35:00 22.4 C 53 % 12.36 C
1881 01-08-2019 12:40:00 22.2 C 54 % 12.45 C
1882 01-08-2019 12:45:00 22.1 C 55 % 12.64 C
1883 01-08-2019 12:50:00 22.1 C 55 % 12.64 C
1884 01-08-2019 12:55:00 22.2 C 54 % 12.45 C
1885 01-08-2019 13:00:00 22.3 C 55 % 12.83 C
1886 01-08-2019 13:05:00 22.6 C 55 % 13.11 C
1887 01-08-2019 13:10:00 22.8 C 53 % 12.73 C
1888 01-08-2019 13:15:00 23.1 C 52 % 12.71 C
1889 01-08-2019 13:20:00 23.1 C 52 % 12.71 C
1890 01-08-2019 13:25:00 23.1 C 52 % 12.71 C
1891 01-08-2019 13:30:00 23.2 C 54 % 13.38 C
1892 01-08-2019 13:35:00 23.2 C 54 % 13.38 C
1893 01-08-2019 13:40:00 23.3 C 54 % 13.47 C
1894 01-08-2019 13:45:00 23.6 C 53 % 13.46 C
1895 01-08-2019 13:50:00 23.8 C 51 % 13.06 C
1896 01-08-2019 13:55:00 23.9 C 51 % 13.15 C
1897 01-08-2019 14:00:00 23.9 C 50 % 12.85 C
1898 01-08-2019 14:05:00 24.1 C 50 % 13.03 C
1899 01-08-2019 14:10:00 24.1 C 49 % 12.72 C
1900 01-08-2019 14:15:00 24.1 C 49 % 12.72 C
Sensor: Nr:Datum:Temp:Feuchte:Taupunkt:
Aussen-T/F 1901 01-08-2019 14:20:00 24.1 C 51 % 13.34 C
1902 01-08-2019 14:25:00 24.2 C 49 % 12.81 C
1903 01-08-2019 14:30:00 24.2 C 49 % 12.81 C
1904 01-08-2019 14:35:00 24.2 C 49 % 12.81 C
1905 01-08-2019 14:40:00 24.2 C 50 % 13.12 C
1906 01-08-2019 14:45:00 24.2 C 49 % 12.81 C
1907 01-08-2019 14:50:00 24.2 C 49 % 12.81 C
1908 01-08-2019 14:55:00 24.3 C 49 % 12.91 C
1909 01-08-2019 15:00:00 24.4 C 50 % 13.31 C
1910 01-08-2019 15:05:00 24.5 C 48 % 12.77 C
1911 01-08-2019 15:10:00 24.6 C 49 % 13.18 C
1912 01-08-2019 15:15:00 24.7 C 48 % 12.96 C
1913 01-08-2019 15:20:00 24.8 C 48 % 13.05 C
1914 01-08-2019 15:25:00 24.8 C 49 % 13.36 C
1915 01-08-2019 15:30:00 24.7 C 48 % 12.96 C
1916 01-08-2019 15:35:00 24.7 C 49 % 13.27 C
1917 01-08-2019 15:40:00 24.6 C 49 % 13.18 C
1918 01-08-2019 15:45:00 24.5 C 49 % 13.09 C
1919 01-08-2019 15:50:00 24.3 C 50 % 13.22 C
1920 01-08-2019 15:55:00 24.3 C 50 % 13.22 C
1921 01-08-2019 16:00:00 24.2 C 51 % 13.43 C
1922 01-08-2019 16:05:00 24.2 C 51 % 13.43 C
1923 01-08-2019 16:10:00 24.2 C 51 % 13.43 C
1924 01-08-2019 16:15:00 24.2 C 51 % 13.43 C
1925 01-08-2019 16:20:00 24.2 C 51 % 13.43 C
Sensor: Nr:Datum:Temp:Feuchte:Taupunkt:
Aussen-T/F 1926 01-08-2019 16:25:00 24.2 C 51 % 13.43 C
1927 01-08-2019 16:30:00 24.3 C 51 % 13.52 C
1928 01-08-2019 16:35:00 24.4 C 51 % 13.61 C
1929 01-08-2019 16:40:00 24.6 C 49 % 13.18 C
1930 01-08-2019 16:45:00 24.7 C 48 % 12.96 C
1931 01-08-2019 16:50:00 24.8 C 48 % 13.05 C
1932 01-08-2019 16:55:00 24.8 C 47 % 12.73 C
1933 01-08-2019 17:00:00 24.8 C 47 % 12.73 C
1934 01-08-2019 17:05:00 25 C 48 % 13.23 C
1935 01-08-2019 17:10:00 25 C 48 % 13.23 C
1936 01-08-2019 17:15:00 24.8 C 47 % 12.73 C
1937 01-08-2019 17:20:00 24.8 C 48 % 13.05 C
1938 01-08-2019 17:25:00 24.8 C 49 % 13.36 C
1939 01-08-2019 17:30:00 24.7 C 49 % 13.27 C
1940 01-08-2019 17:35:00 25 C 49 % 13.55 C
1941 01-08-2019 17:40:00 25.4 C 47 % 13.27 C
1942 01-08-2019 17:45:00 25.5 C 47 % 13.36 C
1943 01-08-2019 17:50:00 25.7 C 47 % 13.55 C
1944 01-08-2019 17:55:00 26.1 C 46 % 13.58 C
1945 01-08-2019 18:00:00 26.6 C 46 % 14.03 C
1946 01-08-2019 18:05:00 26.9 C 44 % 13.62 C
1947 01-08-2019 18:10:00 26.7 C 44 % 13.44 C
1948 01-08-2019 18:15:00 26.4 C 46 % 13.85 C
1949 01-08-2019 18:20:00 26.2 C 45 % 13.33 C
1950 01-08-2019 18:25:00 25.8 C 45 % 12.97 C
Sensor: Nr:Datum:Temp:Feuchte:Taupunkt:
Aussen-T/F 1951 01-08-2019 18:30:00 25.7 C 46 % 13.22 C
1952 01-08-2019 18:35:00 25.6 C 46 % 13.12 C
1953 01-08-2019 18:40:00 26.1 C 46 % 13.58 C
1954 01-08-2019 18:45:00 26.6 C 44 % 13.35 C
1955 01-08-2019 18:50:00 26.8 C 43 % 13.18 C
1956 01-08-2019 18:55:00 26.8 C 42 % 12.82 C
1957 01-08-2019 19:00:00 26.8 C 43 % 13.18 C
1958 01-08-2019 19:05:00 26.8 C 43 % 13.18 C
1959 01-08-2019 19:10:00 26.8 C 44 % 13.53 C
1960 01-08-2019 19:15:00 26.7 C 44 % 13.44 C
1961 01-08-2019 19:20:00 26.6 C 45 % 13.69 C
1962 01-08-2019 19:25:00 26.4 C 45 % 13.51 C
1963 01-08-2019 19:30:00 26.3 C 45 % 13.42 C
1964 01-08-2019 19:35:00 26.1 C 46 % 13.58 C
1965 01-08-2019 19:40:00 25.9 C 46 % 13.4 C
1966 01-08-2019 19:45:00 25.7 C 47 % 13.55 C
1967 01-08-2019 19:50:00 25.6 C 47 % 13.45 C
1968 01-08-2019 19:55:00 25.5 C 47 % 13.36 C
1969 01-08-2019 20:00:00 25.4 C 48 % 13.6 C
1970 01-08-2019 20:05:00 25.2 C 51 % 14.35 C
1971 01-08-2019 20:10:00 24.9 C 52 % 14.37 C
1972 01-08-2019 20:15:00 24.6 C 52 % 14.09 C
1973 01-08-2019 20:20:00 24.4 C 53 % 14.2 C
1974 01-08-2019 20:25:00 24.2 C 54 % 14.31 C
1975 01-08-2019 20:30:00 24 C 53 % 13.83 C
Sensor: Nr:Datum:Temp:Feuchte:Taupunkt:
Aussen-T/F 1976 01-08-2019 20:35:00 23.9 C 55 % 14.31 C
1977 01-08-2019 20:40:00 23.7 C 56 % 14.4 C
1978 01-08-2019 20:45:00 23.4 C 57 % 14.4 C
1979 01-08-2019 20:50:00 23 C 57 % 14.03 C
1980 01-08-2019 20:55:00 22.6 C 58 % 13.92 C
1981 01-08-2019 21:00:00 22.3 C 59 % 13.9 C
1982 01-08-2019 21:05:00 22.1 C 60 % 13.98 C
1983 01-08-2019 21:10:00 21.8 C 60 % 13.69 C
1984 01-08-2019 21:15:00 21.6 C 61 % 13.76 C
1985 01-08-2019 21:20:00 21.3 C 62 % 13.73 C
1986 01-08-2019 21:25:00 21.1 C 62 % 13.54 C
1987 01-08-2019 21:30:00 20.9 C 63 % 13.6 C
1988 01-08-2019 21:35:00 20.8 C 64 % 13.74 C
1989 01-08-2019 21:40:00 20.7 C 64 % 13.65 C
1990 01-08-2019 21:45:00 20.5 C 65 % 13.7 C
1991 01-08-2019 21:50:00 20.4 C 66 % 13.84 C
1992 01-08-2019 21:55:00 20.3 C 66 % 13.74 C
1993 01-08-2019 22:00:00 20.3 C 66 % 13.74 C
1994 01-08-2019 22:05:00 20.2 C 67 % 13.88 C
1995 01-08-2019 22:10:00 20.1 C 67 % 13.78 C
1996 01-08-2019 22:15:00 19.9 C 67 % 13.59 C
1997 01-08-2019 22:20:00 19.8 C 68 % 13.73 C
1998 01-08-2019 22:25:00 19.7 C 68 % 13.63 C
1999 01-08-2019 22:30:00 19.6 C 67 % 13.31 C
2000 01-08-2019 22:35:00 19.6 C 68 % 13.54 C
Sensor: Nr:Datum:Temp:Feuchte:Taupunkt:
Aussen-T/F 2001 01-08-2019 22:40:00 19.5 C 68 % 13.44 C
2002 01-08-2019 22:45:00 19.5 C 68 % 13.44 C
2003 01-08-2019 22:50:00 19.5 C 69 % 13.66 C
2004 01-08-2019 22:55:00 19.5 C 69 % 13.66 C
2005 01-08-2019 23:00:00 19.5 C 68 % 13.44 C
2006 01-08-2019 23:05:00 19.4 C 68 % 13.34 C
2007 01-08-2019 23:10:00 19.4 C 68 % 13.34 C
2008 01-08-2019 23:15:00 19.3 C 68 % 13.25 C
2009 01-08-2019 23:20:00 19.3 C 69 % 13.47 C
2010 01-08-2019 23:25:00 19.2 C 70 % 13.6 C
2011 01-08-2019 23:30:00 19.2 C 70 % 13.6 C
2012 01-08-2019 23:35:00 19.2 C 70 % 13.6 C
2013 01-08-2019 23:40:00 19.1 C 71 % 13.72 C
2014 01-08-2019 23:45:00 19.1 C 71 % 13.72 C
2015 01-08-2019 23:50:00 19.1 C 71 % 13.72 C
2016 01-08-2019 23:55:00 19.1 C 71 % 13.72 C
2017 02-08-2019 00:00:00 19.1 C 72 % 13.94 C
2018 02-08-2019 00:05:00 19.1 C 72 % 13.94 C
2019 02-08-2019 00:10:00 19 C 72 % 13.84 C
2020 02-08-2019 00:15:00 18.9 C 72 % 13.74 C
2021 02-08-2019 00:20:00 18.9 C 73 % 13.96 C
2022 02-08-2019 00:25:00 18.8 C 73 % 13.86 C
2023 02-08-2019 00:30:00 18.8 C 73 % 13.86 C
2024 02-08-2019 00:35:00 18.7 C 74 % 13.97 C
2025 02-08-2019 00:40:00 18.7 C 74 % 13.97 C
Sensor: Nr:Datum:Temp:Feuchte:Taupunkt:
Aussen-T/F 2026 02-08-2019 00:45:00 18.6 C 74 % 13.88 C
2027 02-08-2019 00:50:00 18.6 C 75 % 14.08 C
2028 02-08-2019 00:55:00 18.6 C 75 % 14.08 C
2029 02-08-2019 01:00:00 18.5 C 75 % 13.99 C
2030 02-08-2019 01:05:00 18.5 C 75 % 13.99 C
2031 02-08-2019 01:10:00 18.5 C 75 % 13.99 C
2032 02-08-2019 01:15:00 18.4 C 75 % 13.89 C
2033 02-08-2019 01:20:00 18.4 C 75 % 13.89 C
2034 02-08-2019 01:25:00 18.4 C 76 % 14.1 C
2035 02-08-2019 01:30:00 18.3 C 76 % 14 C
2036 02-08-2019 01:35:00 18.3 C 75 % 13.79 C
2037 02-08-2019 01:40:00 18.3 C 77 % 14.2 C
2038 02-08-2019 01:45:00 18.2 C 77 % 14.1 C
2039 02-08-2019 01:50:00 18.2 C 76 % 13.9 C
2040 02-08-2019 01:55:00 18.1 C 76 % 13.81 C
2041 02-08-2019 02:00:00 18.1 C 76 % 13.81 C
2042 02-08-2019 02:05:00 18.1 C 76 % 13.81 C
2043 02-08-2019 02:10:00 18 C 77 % 13.91 C
2044 02-08-2019 02:15:00 18 C 76 % 13.71 C
2045 02-08-2019 02:20:00 17.9 C 77 % 13.81 C
2046 02-08-2019 02:25:00 17.9 C 77 % 13.81 C
2047 02-08-2019 02:30:00 17.9 C 77 % 13.81 C
2048 02-08-2019 02:35:00 17.8 C 77 % 13.72 C
2049 02-08-2019 02:40:00 17.8 C 77 % 13.72 C
2050 02-08-2019 02:45:00 17.7 C 77 % 13.62 C
Sensor: Nr:Datum:Temp:Feuchte:Taupunkt:
Aussen-T/F 2051 02-08-2019 02:50:00 17.6 C 77 % 13.52 C
2052 02-08-2019 02:55:00 17.6 C 78 % 13.72 C
2053 02-08-2019 03:00:00 17.4 C 78 % 13.53 C
2054 02-08-2019 03:05:00 17.3 C 78 % 13.43 C
2055 02-08-2019 03:10:00 17.2 C 79 % 13.53 C
2056 02-08-2019 03:15:00 17.1 C 79 % 13.43 C
2057 02-08-2019 03:20:00 17.1 C 80 % 13.62 C
2058 02-08-2019 03:25:00 16.9 C 80 % 13.43 C
2059 02-08-2019 03:30:00 16.8 C 80 % 13.33 C
2060 02-08-2019 03:35:00 16.8 C 80 % 13.33 C
2061 02-08-2019 03:40:00 16.7 C 80 % 13.23 C
2062 02-08-2019 03:45:00 16.7 C 80 % 13.23 C
2063 02-08-2019 03:50:00 16.7 C 81 % 13.43 C
2064 02-08-2019 03:55:00 16.6 C 81 % 13.33 C
2065 02-08-2019 04:00:00 16.6 C 81 % 13.33 C
2066 02-08-2019 04:05:00 16.5 C 82 % 13.42 C
2067 02-08-2019 04:10:00 16.4 C 82 % 13.32 C
2068 02-08-2019 04:15:00 16.4 C 82 % 13.32 C
2069 02-08-2019 04:20:00 16.3 C 82 % 13.22 C
2070 02-08-2019 04:25:00 16.3 C 82 % 13.22 C
2071 02-08-2019 04:30:00 16.3 C 83 % 13.41 C
2072 02-08-2019 04:35:00 16.2 C 83 % 13.31 C
2073 02-08-2019 04:40:00 16.2 C 84 % 13.5 C
2074 02-08-2019 04:45:00 16.2 C 83 % 13.31 C
2075 02-08-2019 04:50:00 16.2 C 83 % 13.31 C
Sensor: Nr:Datum:Temp:Feuchte:Taupunkt:
Aussen-T/F 2076 02-08-2019 04:55:00 16.2 C 83 % 13.31 C
2077 02-08-2019 05:00:00 16.2 C 84 % 13.5 C
2078 02-08-2019 05:05:00 16.2 C 83 % 13.31 C
2079 02-08-2019 05:10:00 16.2 C 83 % 13.31 C
2080 02-08-2019 05:15:00 16.2 C 83 % 13.31 C
2081 02-08-2019 05:20:00 16.2 C 83 % 13.31 C
2082 02-08-2019 05:25:00 16.2 C 84 % 13.5 C
2083 02-08-2019 05:30:00 16.2 C 84 % 13.5 C
2084 02-08-2019 05:35:00 16.2 C 84 % 13.5 C
2085 02-08-2019 05:40:00 16.2 C 84 % 13.5 C
2086 02-08-2019 05:45:00 16.2 C 84 % 13.5 C
2087 02-08-2019 05:50:00 16.2 C 84 % 13.5 C
2088 02-08-2019 05:55:00 16.2 C 84 % 13.5 C
2089 02-08-2019 06:00:00 16.2 C 85 % 13.68 C
2090 02-08-2019 06:05:00 16.2 C 85 % 13.68 C
2091 02-08-2019 06:10:00 16.2 C 85 % 13.68 C
2092 02-08-2019 06:15:00 16.2 C 85 % 13.68 C
2093 02-08-2019 06:20:00 16.2 C 85 % 13.68 C
2094 02-08-2019 06:25:00 16.2 C 85 % 13.68 C
2095 02-08-2019 06:30:00 16.2 C 85 % 13.68 C
2096 02-08-2019 06:35:00 16.3 C 85 % 13.77 C
2097 02-08-2019 06:40:00 16.3 C 85 % 13.77 C
2098 02-08-2019 06:45:00 16.3 C 85 % 13.77 C
2099 02-08-2019 06:50:00 16.3 C 85 % 13.77 C
2100 02-08-2019 06:55:00 16.4 C 85 % 13.87 C
Sensor: Nr:Datum:Temp:Feuchte:Taupunkt:
Aussen-T/F 2101 02-08-2019 07:00:00 16.4 C 85 % 13.87 C
2102 02-08-2019 07:05:00 16.5 C 85 % 13.97 C
2103 02-08-2019 07:10:00 16.6 C 85 % 14.07 C
2104 02-08-2019 07:15:00 16.7 C 85 % 14.17 C
2105 02-08-2019 07:20:00 16.8 C 85 % 14.26 C
2106 02-08-2019 07:25:00 16.9 C 85 % 14.36 C
2107 02-08-2019 07:30:00 17 C 84 % 14.28 C
2108 02-08-2019 07:35:00 17.1 C 84 % 14.38 C
2109 02-08-2019 07:40:00 17.2 C 84 % 14.47 C
2110 02-08-2019 07:45:00 17.2 C 84 % 14.47 C
2111 02-08-2019 07:50:00 17.3 C 84 % 14.57 C
2112 02-08-2019 07:55:00 17.4 C 84 % 14.67 C
2113 02-08-2019 08:00:00 17.5 C 83 % 14.58 C
2114 02-08-2019 08:05:00 17.6 C 83 % 14.68 C
2115 02-08-2019 08:10:00 17.6 C 83 % 14.68 C
2116 02-08-2019 08:15:00 17.7 C 83 % 14.78 C
2117 02-08-2019 08:20:00 17.8 C 82 % 14.69 C
2118 02-08-2019 08:25:00 17.9 C 83 % 14.97 C
2119 02-08-2019 08:30:00 18 C 82 % 14.88 C
2120 02-08-2019 08:35:00 18.1 C 82 % 14.98 C
2121 02-08-2019 08:40:00 18.2 C 82 % 15.08 C
2122 02-08-2019 08:45:00 18.2 C 82 % 15.08 C
2123 02-08-2019 08:50:00 18.3 C 82 % 15.17 C
2124 02-08-2019 08:55:00 18.3 C 81 % 14.98 C
2125 02-08-2019 09:00:00 18.4 C 82 % 15.27 C
Sensor: Nr:Datum:Temp:Feuchte:Taupunkt:
Aussen-T/F 2126 02-08-2019 09:05:00 18.6 C 81 % 15.28 C
2127 02-08-2019 09:10:00 18.7 C 80 % 15.18 C
2128 02-08-2019 09:15:00 18.8 C 79 % 15.08 C
2129 02-08-2019 09:20:00 19 C 79 % 15.28 C
2130 02-08-2019 09:25:00 19.2 C 78 % 15.27 C
2131 02-08-2019 09:30:00 19.4 C 78 % 15.47 C
2132 02-08-2019 09:35:00 19.7 C 77 % 15.56 C
2133 02-08-2019 09:40:00 19.9 C 76 % 15.54 C
2134 02-08-2019 09:45:00 20.1 C 76 % 15.74 C
2135 02-08-2019 09:50:00 20.2 C 75 % 15.63 C
2136 02-08-2019 09:55:00 20.2 C 74 % 15.42 C
2137 02-08-2019 10:00:00 20.3 C 74 % 15.51 C
2138 02-08-2019 10:05:00 20.3 C 74 % 15.51 C
2139 02-08-2019 10:10:00 20.4 C 74 % 15.61 C
2140 02-08-2019 10:15:00 20.5 C 74 % 15.71 C
2141 02-08-2019 10:20:00 20.6 C 73 % 15.59 C
2142 02-08-2019 10:25:00 20.7 C 73 % 15.69 C
2143 02-08-2019 10:30:00 20.8 C 72 % 15.57 C
2144 02-08-2019 10:35:00 20.8 C 71 % 15.35 C
2145 02-08-2019 10:40:00 20.9 C 71 % 15.45 C
2146 02-08-2019 10:45:00 21 C 70 % 15.32 C
2147 02-08-2019 10:50:00 21.1 C 71 % 15.64 C
2148 02-08-2019 10:55:00 21.2 C 69 % 15.29 C
2149 02-08-2019 11:00:00 21.4 C 69 % 15.48 C
2150 02-08-2019 11:05:00 21.7 C 67 % 15.31 C
Sensor: Nr:Datum:Temp:Feuchte:Taupunkt:
Aussen-T/F 2151 02-08-2019 11:10:00 21.7 C 67 % 15.31 C
2152 02-08-2019 11:15:00 21.8 C 66 % 15.17 C
2153 02-08-2019 11:20:00 21.9 C 66 % 15.26 C
2154 02-08-2019 11:25:00 22.1 C 65 % 15.21 C
2155 02-08-2019 11:30:00 22.3 C 64 % 15.16 C
2156 02-08-2019 11:35:00 22.5 C 63 % 15.11 C
2157 02-08-2019 11:40:00 22.6 C 63 % 15.2 C
2158 02-08-2019 11:45:00 22.6 C 63 % 15.2 C
2159 02-08-2019 11:50:00 22.7 C 62 % 15.05 C
2160 02-08-2019 11:55:00 22.7 C 63 % 15.3 C
2161 02-08-2019 12:00:00 22.6 C 67 % 16.16 C
2162 02-08-2019 12:05:00 22.5 C 73 % 17.42 C
2163 02-08-2019 12:10:00 22.3 C 76 % 17.86 C
2164 02-08-2019 12:15:00 21.9 C 75 % 17.27 C
2165 02-08-2019 12:20:00 21.4 C 74 % 16.57 C
2166 02-08-2019 12:25:00 21.2 C 76 % 16.8 C
2167 02-08-2019 12:30:00 20.8 C 78 % 16.82 C
2168 02-08-2019 12:35:00 20.7 C 79 % 16.93 C
2169 02-08-2019 12:40:00 20.6 C 80 % 17.03 C
2170 02-08-2019 12:45:00 20.5 C 78 % 16.53 C
2171 02-08-2019 12:50:00 20.4 C 76 % 16.03 C
2172 02-08-2019 12:55:00 20.4 C 74 % 15.61 C
2173 02-08-2019 13:00:00 20.4 C 75 % 15.82 C
2174 02-08-2019 13:05:00 20.5 C 71 % 15.06 C
2175 02-08-2019 13:10:00 20.7 C 75 % 16.11 C
Sensor: Nr:Datum:Temp:Feuchte:Taupunkt:
Aussen-T/F 2176 02-08-2019 13:15:00 20.7 C 72 % 15.47 C
2177 02-08-2019 13:20:00 20.8 C 72 % 15.57 C
2178 02-08-2019 13:25:00 20.9 C 71 % 15.45 C
2179 02-08-2019 13:30:00 21.1 C 71 % 15.64 C
2180 02-08-2019 13:35:00 21.4 C 69 % 15.48 C
2181 02-08-2019 13:40:00 21.6 C 70 % 15.89 C
2182 02-08-2019 13:45:00 21.7 C 70 % 15.99 C
2183 02-08-2019 13:50:00 21.8 C 71 % 16.31 C
2184 02-08-2019 13:55:00 21.9 C 68 % 15.73 C
2185 02-08-2019 14:00:00 22 C 65 % 15.12 C
2186 02-08-2019 14:05:00 22.1 C 64 % 14.97 C
2187 02-08-2019 14:10:00 22.3 C 63 % 14.92 C
2188 02-08-2019 14:15:00 22.5 C 62 % 14.86 C
2189 02-08-2019 14:20:00 22.8 C 61 % 14.89 C
2190 02-08-2019 14:25:00 23 C 62 % 15.33 C
2191 02-08-2019 14:30:00 23.3 C 61 % 15.36 C
2192 02-08-2019 14:35:00 23.5 C 62 % 15.8 C
2193 02-08-2019 14:40:00 23.8 C 61 % 15.83 C
2194 02-08-2019 14:45:00 24.1 C 59 % 15.59 C
2195 02-08-2019 14:50:00 24.2 C 61 % 16.2 C
2196 02-08-2019 14:55:00 24.4 C 60 % 16.13 C
2197 02-08-2019 15:00:00 24.5 C 59 % 15.96 C
2198 02-08-2019 15:05:00 24.5 C 59 % 15.96 C
2199 02-08-2019 15:10:00 24.7 C 58 % 15.88 C
2200 02-08-2019 15:15:00 24.8 C 57 % 15.7 C
Sensor: Nr:Datum:Temp:Feuchte:Taupunkt:
Aussen-T/F 2201 02-08-2019 15:20:00 24.8 C 55 % 15.15 C
2202 02-08-2019 15:25:00 24.7 C 55 % 15.05 C
2203 02-08-2019 15:30:00 24.5 C 56 % 15.15 C
2204 02-08-2019 15:35:00 24.4 C 57 % 15.33 C
2205 02-08-2019 15:40:00 24.4 C 55 % 14.78 C
2206 02-08-2019 15:45:00 24.4 C 56 % 15.06 C
2207 02-08-2019 15:50:00 24.6 C 54 % 14.68 C
2208 02-08-2019 15:55:00 24.7 C 55 % 15.05 C
2209 02-08-2019 16:00:00 25.2 C 53 % 14.94 C
2210 02-08-2019 16:05:00 25.5 C 52 % 14.92 C
2211 02-08-2019 16:10:00 25.6 C 51 % 14.71 C
2212 02-08-2019 16:15:00 25.6 C 52 % 15.02 C
2213 02-08-2019 16:20:00 26.1 C 51 % 15.17 C
2214 02-08-2019 16:25:00 26.2 C 50 % 14.96 C
2215 02-08-2019 16:30:00 26.1 C 49 % 14.55 C
2216 02-08-2019 16:35:00 25.7 C 50 % 14.5 C
2217 02-08-2019 16:40:00 25.4 C 52 % 14.83 C
2218 02-08-2019 16:45:00 25.3 C 52 % 14.74 C
2219 02-08-2019 16:50:00 25.2 C 51 % 14.35 C
2220 02-08-2019 16:55:00 25.2 C 50 % 14.04 C
2221 02-08-2019 17:00:00 25.4 C 51 % 14.53 C
2222 02-08-2019 17:05:00 26.1 C 48 % 14.23 C
2223 02-08-2019 17:10:00 26.7 C 46 % 14.12 C
2224 02-08-2019 17:15:00 27.1 C 46 % 14.49 C
2225 02-08-2019 17:20:00 27.3 C 44 % 13.98 C
Sensor: Nr:Datum:Temp:Feuchte:Taupunkt:
Aussen-T/F 2226 02-08-2019 17:25:00 27.3 C 44 % 13.98 C
2227 02-08-2019 17:30:00 27.5 C 45 % 14.51 C
2228 02-08-2019 17:35:00 27.4 C 43 % 13.72 C
2229 02-08-2019 17:40:00 27 C 44 % 13.71 C
2230 02-08-2019 17:45:00 26.6 C 46 % 14.03 C
2231 02-08-2019 17:50:00 26.3 C 47 % 14.09 C
2232 02-08-2019 17:55:00 26 C 48 % 14.14 C
2233 02-08-2019 18:00:00 25.8 C 48 % 13.96 C
2234 02-08-2019 18:05:00 26 C 48 % 14.14 C
2235 02-08-2019 18:10:00 25.9 C 49 % 14.37 C
2236 02-08-2019 18:15:00 25.6 C 50 % 14.41 C
2237 02-08-2019 18:20:00 25.3 C 53 % 15.03 C
2238 02-08-2019 18:25:00 24.9 C 55 % 15.24 C
2239 02-08-2019 18:30:00 24.5 C 56 % 15.15 C
2240 02-08-2019 18:35:00 24.3 C 57 % 15.24 C
2241 02-08-2019 18:40:00 24.4 C 56 % 15.06 C
2242 02-08-2019 18:45:00 24.4 C 57 % 15.33 C
2243 02-08-2019 18:50:00 24.5 C 56 % 15.15 C
2244 02-08-2019 18:55:00 24.5 C 56 % 15.15 C
2245 02-08-2019 19:00:00 24.3 C 57 % 15.24 C
2246 02-08-2019 19:05:00 24.2 C 58 % 15.42 C
2247 02-08-2019 19:10:00 24 C 58 % 15.23 C
2248 02-08-2019 19:15:00 23.9 C 53 % 13.74 C
2249 02-08-2019 19:20:00 23.8 C 53 % 13.65 C
2250 02-08-2019 19:25:00 23.7 C 54 % 13.84 C
Sensor: Nr:Datum:Temp:Feuchte:Taupunkt:
Aussen-T/F 2251 02-08-2019 19:30:00 23.6 C 54 % 13.75 C
2252 02-08-2019 19:35:00 23.6 C 53 % 13.46 C
2253 02-08-2019 19:40:00 23.4 C 54 % 13.57 C
2254 02-08-2019 19:45:00 23.4 C 55 % 13.85 C
2255 02-08-2019 19:50:00 23.3 C 54 % 13.47 C
2256 02-08-2019 19:55:00 23.2 C 55 % 13.66 C
2257 02-08-2019 20:00:00 23.1 C 56 % 13.85 C
2258 02-08-2019 20:05:00 22.9 C 60 % 14.73 C
2259 02-08-2019 20:10:00 22.8 C 59 % 14.37 C
2260 02-08-2019 20:15:00 22.7 C 61 % 14.79 C
2261 02-08-2019 20:20:00 22.5 C 61 % 14.61 C
2262 02-08-2019 20:25:00 22.4 C 60 % 14.26 C
2263 02-08-2019 20:30:00 22.3 C 60 % 14.16 C
2264 02-08-2019 20:35:00 22.3 C 60 % 14.16 C
2265 02-08-2019 20:40:00 22.3 C 61 % 14.42 C
2266 02-08-2019 20:45:00 22.2 C 62 % 14.58 C
2267 02-08-2019 20:50:00 22.1 C 62 % 14.48 C
2268 02-08-2019 20:55:00 21.9 C 63 % 14.54 C
2269 02-08-2019 21:00:00 21.7 C 64 % 14.6 C
2270 02-08-2019 21:05:00 21.5 C 65 % 14.65 C
2271 02-08-2019 21:10:00 21.2 C 64 % 14.12 C
2272 02-08-2019 21:15:00 21.1 C 65 % 14.27 C
2273 02-08-2019 21:20:00 20.9 C 66 % 14.31 C
2274 02-08-2019 21:25:00 20.9 C 64 % 13.84 C
2275 02-08-2019 21:30:00 21.1 C 63 % 13.79 C
Sensor: Nr:Datum:Temp:Feuchte:Taupunkt:
Aussen-T/F 2276 02-08-2019 21:35:00 21.3 C 63 % 13.97 C
2277 02-08-2019 21:40:00 21.4 C 62 % 13.82 C
2278 02-08-2019 21:45:00 21.4 C 62 % 13.82 C
2279 02-08-2019 21:50:00 21.4 C 62 % 13.82 C
2280 02-08-2019 21:55:00 21.4 C 63 % 14.07 C
2281 02-08-2019 22:00:00 21.4 C 63 % 14.07 C
2282 02-08-2019 22:05:00 21.3 C 63 % 13.97 C
2283 02-08-2019 22:10:00 21.1 C 64 % 14.03 C
2284 02-08-2019 22:15:00 21 C 65 % 14.17 C
2285 02-08-2019 22:20:00 20.9 C 65 % 14.08 C
2286 02-08-2019 22:25:00 20.9 C 66 % 14.31 C
2287 02-08-2019 22:30:00 20.8 C 67 % 14.45 C
2288 02-08-2019 22:35:00 20.8 C 66 % 14.22 C
2289 02-08-2019 22:40:00 20.8 C 66 % 14.22 C
2290 02-08-2019 22:45:00 20.8 C 66 % 14.22 C
2291 02-08-2019 22:50:00 20.8 C 67 % 14.45 C
2292 02-08-2019 22:55:00 20.8 C 66 % 14.22 C
2293 02-08-2019 23:00:00 20.6 C 68 % 14.49 C
2294 02-08-2019 23:05:00 20.3 C 72 % 15.09 C
2295 02-08-2019 23:10:00 19.9 C 74 % 15.13 C
2296 02-08-2019 23:15:00 19.6 C 77 % 15.46 C
2297 02-08-2019 23:20:00 19.3 C 78 % 15.37 C
2298 02-08-2019 23:25:00 18.9 C 80 % 15.38 C
2299 02-08-2019 23:30:00 18.7 C 81 % 15.37 C
2300 02-08-2019 23:35:00 18.4 C 81 % 15.08 C
Sensor: Nr:Datum:Temp:Feuchte:Taupunkt:
Aussen-T/F 2301 02-08-2019 23:40:00 18.3 C 83 % 15.36 C
2302 02-08-2019 23:45:00 18.1 C 83 % 15.17 C
2303 02-08-2019 23:50:00 17.9 C 84 % 15.16 C
2304 02-08-2019 23:55:00 17.7 C 85 % 15.15 C
2305 03-08-2019 00:00:00 17.5 C 85 % 14.95 C
2306 03-08-2019 00:05:00 17.4 C 86 % 15.03 C
2307 03-08-2019 00:10:00 17.4 C 86 % 15.03 C
2308 03-08-2019 00:15:00 17.4 C 86 % 15.03 C
2309 03-08-2019 00:20:00 17.4 C 86 % 15.03 C
2310 03-08-2019 00:25:00 17.7 C 85 % 15.15 C
2311 03-08-2019 00:30:00 17.8 C 84 % 15.06 C
2312 03-08-2019 00:35:00 17.9 C 84 % 15.16 C
2313 03-08-2019 00:40:00 18.1 C 83 % 15.17 C
2314 03-08-2019 00:45:00 18.1 C 83 % 15.17 C
2315 03-08-2019 00:50:00 18.2 C 82 % 15.08 C
2316 03-08-2019 00:55:00 18.2 C 82 % 15.08 C
2317 03-08-2019 01:00:00 18.3 C 82 % 15.17 C
2318 03-08-2019 01:05:00 18.3 C 82 % 15.17 C
2319 03-08-2019 01:10:00 18.3 C 83 % 15.36 C
2320 03-08-2019 01:15:00 18.3 C 82 % 15.17 C
2321 03-08-2019 01:20:00 18.3 C 82 % 15.17 C
2322 03-08-2019 01:25:00 18.3 C 82 % 15.17 C
2323 03-08-2019 01:30:00 18.3 C 82 % 15.17 C
2324 03-08-2019 01:35:00 18.3 C 82 % 15.17 C
2325 03-08-2019 01:40:00 18.3 C 83 % 15.36 C
Sensor: Nr:Datum:Temp:Feuchte:Taupunkt:
Aussen-T/F 2326 03-08-2019 01:45:00 18.3 C 83 % 15.36 C
2327 03-08-2019 01:50:00 18.2 C 83 % 15.27 C
2328 03-08-2019 01:55:00 18.2 C 84 % 15.45 C
2329 03-08-2019 02:00:00 18.2 C 84 % 15.45 C
2330 03-08-2019 02:05:00 18.2 C 84 % 15.45 C
2331 03-08-2019 02:10:00 18.2 C 84 % 15.45 C
2332 03-08-2019 02:15:00 18.2 C 84 % 15.45 C
2333 03-08-2019 02:20:00 18.2 C 84 % 15.45 C
2334 03-08-2019 02:25:00 18.2 C 84 % 15.45 C
2335 03-08-2019 02:30:00 18.3 C 85 % 15.74 C
2336 03-08-2019 02:35:00 18.3 C 84 % 15.55 C
2337 03-08-2019 02:40:00 18.3 C 85 % 15.74 C
2338 03-08-2019 02:45:00 18.3 C 85 % 15.74 C
2339 03-08-2019 02:50:00 18.3 C 85 % 15.74 C
2340 03-08-2019 02:55:00 18.2 C 85 % 15.64 C
2341 03-08-2019 03:00:00 18.2 C 85 % 15.64 C
2342 03-08-2019 03:05:00 18.2 C 85 % 15.64 C
2343 03-08-2019 03:10:00 18.2 C 85 % 15.64 C
2344 03-08-2019 03:15:00 18.2 C 85 % 15.64 C
2345 03-08-2019 03:20:00 18.2 C 86 % 15.82 C
2346 03-08-2019 03:25:00 18.2 C 86 % 15.82 C
2347 03-08-2019 03:30:00 18.2 C 86 % 15.82 C
2348 03-08-2019 03:35:00 18.2 C 86 % 15.82 C
2349 03-08-2019 03:40:00 18.2 C 86 % 15.82 C
2350 03-08-2019 03:45:00 18.2 C 86 % 15.82 C
Sensor: Nr:Datum:Temp:Feuchte:Taupunkt:
Aussen-T/F 2351 03-08-2019 03:50:00 18.2 C 86 % 15.82 C
2352 03-08-2019 03:55:00 18.2 C 86 % 15.82 C
2353 03-08-2019 04:00:00 18.2 C 86 % 15.82 C
2354 03-08-2019 04:05:00 18.1 C 87 % 15.9 C
2355 03-08-2019 04:10:00 18.1 C 87 % 15.9 C
2356 03-08-2019 04:15:00 18.1 C 87 % 15.9 C
2357 03-08-2019 04:20:00 18.1 C 87 % 15.9 C
2358 03-08-2019 04:25:00 18.1 C 87 % 15.9 C
2359 03-08-2019 04:30:00 18.1 C 87 % 15.9 C
2360 03-08-2019 04:35:00 18.2 C 87 % 16 C
2361 03-08-2019 04:40:00 18.2 C 87 % 16 C
2362 03-08-2019 04:45:00 18.2 C 87 % 16 C
2363 03-08-2019 04:50:00 18.2 C 87 % 16 C
2364 03-08-2019 04:55:00 18.2 C 87 % 16 C
2365 03-08-2019 05:00:00 18.2 C 87 % 16 C
2366 03-08-2019 05:05:00 18.2 C 87 % 16 C
2367 03-08-2019 05:10:00 18.2 C 87 % 16 C
2368 03-08-2019 05:15:00 18.2 C 87 % 16 C
2369 03-08-2019 05:20:00 18.2 C 87 % 16 C
2370 03-08-2019 05:25:00 18.1 C 87 % 15.9 C
2371 03-08-2019 05:30:00 18.1 C 87 % 15.9 C
2372 03-08-2019 05:35:00 18.1 C 87 % 15.9 C
2373 03-08-2019 05:40:00 18.1 C 87 % 15.9 C
2374 03-08-2019 05:45:00 18.1 C 87 % 15.9 C
2375 03-08-2019 05:50:00 18.1 C 87 % 15.9 C
Sensor: Nr:Datum:Temp:Feuchte:Taupunkt:
Aussen-T/F 2376 03-08-2019 05:55:00 18.1 C 87 % 15.9 C
2377 03-08-2019 06:00:00 18 C 87 % 15.8 C
2378 03-08-2019 06:05:00 18 C 87 % 15.8 C
2379 03-08-2019 06:10:00 17.9 C 87 % 15.71 C
2380 03-08-2019 06:15:00 17.9 C 88 % 15.88 C
2381 03-08-2019 06:20:00 17.9 C 88 % 15.88 C
2382 03-08-2019 06:25:00 17.9 C 88 % 15.88 C
2383 03-08-2019 06:30:00 17.9 C 87 % 15.71 C
2384 03-08-2019 06:35:00 17.9 C 87 % 15.71 C
2385 03-08-2019 06:40:00 17.9 C 87 % 15.71 C
2386 03-08-2019 06:45:00 17.8 C 87 % 15.61 C
2387 03-08-2019 06:50:00 17.8 C 87 % 15.61 C
2388 03-08-2019 06:55:00 17.8 C 87 % 15.61 C
2389 03-08-2019 07:00:00 17.8 C 87 % 15.61 C
2390 03-08-2019 07:05:00 17.8 C 86 % 15.43 C
2391 03-08-2019 07:10:00 17.8 C 86 % 15.43 C
2392 03-08-2019 07:15:00 17.8 C 86 % 15.43 C
2393 03-08-2019 07:20:00 17.8 C 86 % 15.43 C
2394 03-08-2019 07:25:00 17.8 C 86 % 15.43 C
2395 03-08-2019 07:30:00 17.9 C 86 % 15.53 C
2396 03-08-2019 07:35:00 17.9 C 85 % 15.34 C
2397 03-08-2019 07:40:00 17.9 C 85 % 15.34 C
2398 03-08-2019 07:45:00 17.9 C 85 % 15.34 C
2399 03-08-2019 07:50:00 17.9 C 85 % 15.34 C
2400 03-08-2019 07:55:00 17.8 C 85 % 15.25 C
Sensor: Nr:Datum:Temp:Feuchte:Taupunkt:
Aussen-T/F 2401 03-08-2019 08:00:00 17.8 C 86 % 15.43 C
2402 03-08-2019 08:05:00 17.8 C 86 % 15.43 C
2403 03-08-2019 08:10:00 17.8 C 85 % 15.25 C
2404 03-08-2019 08:15:00 17.8 C 85 % 15.25 C
2405 03-08-2019 08:20:00 17.8 C 85 % 15.25 C
2406 03-08-2019 08:25:00 17.8 C 85 % 15.25 C
2407 03-08-2019 08:30:00 17.9 C 85 % 15.34 C
2408 03-08-2019 08:35:00 18 C 84 % 15.26 C
2409 03-08-2019 08:40:00 18.1 C 84 % 15.35 C
2410 03-08-2019 08:45:00 18.2 C 84 % 15.45 C
2411 03-08-2019 08:50:00 18.2 C 83 % 15.27 C
2412 03-08-2019 08:55:00 18.2 C 82 % 15.08 C
2413 03-08-2019 09:00:00 18.2 C 82 % 15.08 C
2414 03-08-2019 09:05:00 18.3 C 81 % 14.98 C
2415 03-08-2019 09:10:00 18.3 C 81 % 14.98 C
2416 03-08-2019 09:15:00 18.4 C 79 % 14.69 C
2417 03-08-2019 09:20:00 18.5 C 79 % 14.79 C
2418 03-08-2019 09:25:00 18.6 C 79 % 14.89 C
2419 03-08-2019 09:30:00 18.7 C 79 % 14.99 C
2420 03-08-2019 09:35:00 18.8 C 79 % 15.08 C
2421 03-08-2019 09:40:00 18.8 C 78 % 14.88 C
2422 03-08-2019 09:45:00 18.8 C 78 % 14.88 C
2423 03-08-2019 09:50:00 18.9 C 78 % 14.98 C
2424 03-08-2019 09:55:00 18.9 C 78 % 14.98 C
2425 03-08-2019 10:00:00 19.1 C 77 % 14.97 C
Sensor: Nr:Datum:Temp:Feuchte:Taupunkt:
Aussen-T/F 2426 03-08-2019 10:05:00 19.2 C 76 % 14.87 C
2427 03-08-2019 10:10:00 19.3 C 76 % 14.97 C
2428 03-08-2019 10:15:00 19.4 C 76 % 15.06 C
2429 03-08-2019 10:20:00 19.7 C 76 % 15.35 C
2430 03-08-2019 10:25:00 19.9 C 76 % 15.54 C
2431 03-08-2019 10:30:00 19.8 C 75 % 15.24 C
2432 03-08-2019 10:35:00 19.8 C 75 % 15.24 C
2433 03-08-2019 10:40:00 19.7 C 76 % 15.35 C
2434 03-08-2019 10:45:00 19.8 C 74 % 15.03 C
2435 03-08-2019 10:50:00 19.8 C 74 % 15.03 C
2436 03-08-2019 10:55:00 19.9 C 75 % 15.34 C
2437 03-08-2019 11:00:00 19.9 C 74 % 15.13 C
2438 03-08-2019 11:05:00 20 C 74 % 15.23 C
2439 03-08-2019 11:10:00 20 C 75 % 15.43 C
2440 03-08-2019 11:15:00 20.1 C 74 % 15.32 C
2441 03-08-2019 11:20:00 20.2 C 73 % 15.21 C
2442 03-08-2019 11:25:00 20.3 C 73 % 15.3 C
2443 03-08-2019 11:30:00 20.3 C 73 % 15.3 C
2444 03-08-2019 11:35:00 20.4 C 74 % 15.61 C
2445 03-08-2019 11:40:00 20.7 C 73 % 15.69 C
2446 03-08-2019 11:45:00 20.8 C 72 % 15.57 C
2447 03-08-2019 11:50:00 20.8 C 71 % 15.35 C
2448 03-08-2019 11:55:00 20.8 C 72 % 15.57 C
2449 03-08-2019 12:00:00 20.8 C 71 % 15.35 C
2450 03-08-2019 12:05:00 21 C 71 % 15.54 C
Sensor: Nr:Datum:Temp:Feuchte:Taupunkt:
Aussen-T/F 2451 03-08-2019 12:10:00 21.3 C 69 % 15.38 C
2452 03-08-2019 12:15:00 21.3 C 70 % 15.61 C
2453 03-08-2019 12:20:00 21.4 C 68 % 15.25 C
2454 03-08-2019 12:25:00 21.6 C 66 % 14.98 C
2455 03-08-2019 12:30:00 21.8 C 66 % 15.17 C
2456 03-08-2019 12:35:00 21.9 C 65 % 15.02 C
2457 03-08-2019 12:40:00 21.9 C 65 % 15.02 C
2458 03-08-2019 12:45:00 21.9 C 64 % 14.78 C
2459 03-08-2019 12:50:00 21.9 C 64 % 14.78 C
2460 03-08-2019 12:55:00 21.9 C 64 % 14.78 C
2461 03-08-2019 13:00:00 21.9 C 65 % 15.02 C
2462 03-08-2019 13:05:00 21.9 C 66 % 15.26 C
2463 03-08-2019 13:10:00 21.9 C 66 % 15.26 C
2464 03-08-2019 13:15:00 22.2 C 66 % 15.55 C
2465 03-08-2019 13:20:00 22.3 C 63 % 14.92 C
2466 03-08-2019 13:25:00 22.3 C 64 % 15.16 C
2467 03-08-2019 13:30:00 22.3 C 64 % 15.16 C
2468 03-08-2019 13:35:00 22.3 C 68 % 16.11 C
2469 03-08-2019 13:40:00 22 C 68 % 15.82 C
2470 03-08-2019 13:45:00 21.9 C 69 % 15.96 C
2471 03-08-2019 13:50:00 21.8 C 68 % 15.63 C
2472 03-08-2019 13:55:00 21.8 C 69 % 15.86 C
2473 03-08-2019 14:00:00 21.7 C 69 % 15.77 C
2474 03-08-2019 14:05:00 21.7 C 70 % 15.99 C
2475 03-08-2019 14:10:00 21.6 C 68 % 15.44 C
Sensor: Nr:Datum:Temp:Feuchte:Taupunkt:
Aussen-T/F 2476 03-08-2019 14:15:00 21.7 C 68 % 15.54 C
2477 03-08-2019 14:20:00 21.8 C 67 % 15.4 C
2478 03-08-2019 14:25:00 22 C 66 % 15.36 C
2479 03-08-2019 14:30:00 22.1 C 65 % 15.21 C
2480 03-08-2019 14:35:00 22.3 C 65 % 15.4 C
2481 03-08-2019 14:40:00 22.5 C 64 % 15.35 C
2482 03-08-2019 14:45:00 22.8 C 64 % 15.64 C
2483 03-08-2019 14:50:00 23.1 C 62 % 15.42 C
2484 03-08-2019 14:55:00 23.2 C 62 % 15.52 C
2485 03-08-2019 15:00:00 23.5 C 60 % 15.29 C
2486 03-08-2019 15:05:00 23.4 C 58 % 14.67 C
2487 03-08-2019 15:10:00 23.4 C 56 % 14.13 C
2488 03-08-2019 15:15:00 23.7 C 58 % 14.95 C
2489 03-08-2019 15:20:00 23.9 C 55 % 14.31 C
2490 03-08-2019 15:25:00 23.7 C 56 % 14.4 C
2491 03-08-2019 15:30:00 23.6 C 60 % 15.38 C
2492 03-08-2019 15:35:00 23.6 C 60 % 15.38 C
2493 03-08-2019 15:40:00 23.7 C 60 % 15.48 C
2494 03-08-2019 15:45:00 24.2 C 58 % 15.42 C
2495 03-08-2019 15:50:00 24.4 C 59 % 15.87 C
2496 03-08-2019 15:55:00 24.6 C 56 % 15.24 C
2497 03-08-2019 16:00:00 24.7 C 56 % 15.33 C
2498 03-08-2019 16:05:00 24.9 C 55 % 15.24 C
2499 03-08-2019 16:10:00 24.9 C 54 % 14.95 C
2500 03-08-2019 16:15:00 25 C 53 % 14.76 C
Sensor: Nr:Datum:Temp:Feuchte:Taupunkt:
Aussen-T/F 2501 03-08-2019 16:20:00 25.1 C 54 % 15.14 C
2502 03-08-2019 16:25:00 25.1 C 54 % 15.14 C
2503 03-08-2019 16:30:00 25.2 C 53 % 14.94 C
2504 03-08-2019 16:35:00 25.4 C 52 % 14.83 C
2505 03-08-2019 16:40:00 25.3 C 52 % 14.74 C
2506 03-08-2019 16:45:00 25.4 C 52 % 14.83 C
2507 03-08-2019 16:50:00 25.5 C 52 % 14.92 C
2508 03-08-2019 16:55:00 25.5 C 51 % 14.62 C
2509 03-08-2019 17:00:00 25.6 C 52 % 15.02 C
2510 03-08-2019 17:05:00 25.7 C 52 % 15.11 C
2511 03-08-2019 17:10:00 25.7 C 51 % 14.81 C
2512 03-08-2019 17:15:00 25.4 C 51 % 14.53 C
2513 03-08-2019 17:20:00 25.3 C 51 % 14.44 C
2514 03-08-2019 17:25:00 25.2 C 52 % 14.65 C
2515 03-08-2019 17:30:00 25.2 C 52 % 14.65 C
2516 03-08-2019 17:35:00 25.3 C 51 % 14.44 C
2517 03-08-2019 17:40:00 25.4 C 51 % 14.53 C
2518 03-08-2019 17:45:00 25.7 C 49 % 14.19 C
2519 03-08-2019 17:50:00 25.7 C 50 % 14.5 C
2520 03-08-2019 17:55:00 25.7 C 50 % 14.5 C
2521 03-08-2019 18:00:00 25.6 C 50 % 14.41 C
2522 03-08-2019 18:05:00 25.6 C 50 % 14.41 C
2523 03-08-2019 18:10:00 25.7 C 50 % 14.5 C
2524 03-08-2019 18:15:00 25.6 C 51 % 14.71 C
2525 03-08-2019 18:20:00 25.6 C 51 % 14.71 C
Sensor: Nr:Datum:Temp:Feuchte:Taupunkt:
Aussen-T/F 2526 03-08-2019 18:25:00 25.6 C 50 % 14.41 C
2527 03-08-2019 18:30:00 25.6 C 50 % 14.41 C
2528 03-08-2019 18:35:00 25.6 C 51 % 14.71 C
2529 03-08-2019 18:40:00 25.3 C 52 % 14.74 C
2530 03-08-2019 18:45:00 25.2 C 52 % 14.65 C
2531 03-08-2019 18:50:00 25.1 C 52 % 14.55 C
2532 03-08-2019 18:55:00 25.1 C 53 % 14.85 C
2533 03-08-2019 19:00:00 25.1 C 53 % 14.85 C
2534 03-08-2019 19:05:00 25.1 C 53 % 14.85 C
2535 03-08-2019 19:10:00 24.9 C 53 % 14.66 C
2536 03-08-2019 19:15:00 24.8 C 53 % 14.57 C
2537 03-08-2019 19:20:00 24.6 C 54 % 14.68 C
2538 03-08-2019 19:25:00 24.3 C 54 % 14.4 C
2539 03-08-2019 19:30:00 24.1 C 55 % 14.5 C
2540 03-08-2019 19:35:00 23.9 C 56 % 14.59 C
2541 03-08-2019 19:40:00 23.8 C 56 % 14.5 C
2542 03-08-2019 19:45:00 23.8 C 55 % 14.22 C
2543 03-08-2019 19:50:00 23.7 C 56 % 14.4 C
2544 03-08-2019 19:55:00 23.6 C 56 % 14.31 C
2545 03-08-2019 20:00:00 23.5 C 56 % 14.22 C
2546 03-08-2019 20:05:00 23.4 C 57 % 14.4 C
2547 03-08-2019 20:10:00 23.2 C 58 % 14.48 C
2548 03-08-2019 20:15:00 23 C 59 % 14.56 C
2549 03-08-2019 20:20:00 22.9 C 59 % 14.47 C
2550 03-08-2019 20:25:00 22.7 C 60 % 14.54 C
Sensor: Nr:Datum:Temp:Feuchte:Taupunkt:
Aussen-T/F 2551 03-08-2019 20:30:00 22.6 C 60 % 14.44 C
2552 03-08-2019 20:35:00 22.3 C 61 % 14.42 C
2553 03-08-2019 20:40:00 22.2 C 61 % 14.32 C
2554 03-08-2019 20:45:00 22 C 62 % 14.39 C
2555 03-08-2019 20:50:00 21.9 C 62 % 14.29 C
2556 03-08-2019 20:55:00 21.7 C 63 % 14.35 C
2557 03-08-2019 21:00:00 21.5 C 63 % 14.16 C
2558 03-08-2019 21:05:00 21.3 C 64 % 14.22 C
2559 03-08-2019 21:10:00 21.1 C 64 % 14.03 C
2560 03-08-2019 21:15:00 20.9 C 65 % 14.08 C
2561 03-08-2019 21:20:00 20.8 C 66 % 14.22 C
2562 03-08-2019 21:25:00 20.6 C 65 % 13.79 C
2563 03-08-2019 21:30:00 20.5 C 66 % 13.93 C
2564 03-08-2019 21:35:00 20.3 C 66 % 13.74 C
2565 03-08-2019 21:40:00 20.2 C 66 % 13.65 C
2566 03-08-2019 21:45:00 20.1 C 67 % 13.78 C
2567 03-08-2019 21:50:00 19.8 C 68 % 13.73 C
2568 03-08-2019 21:55:00 19.6 C 69 % 13.76 C
2569 03-08-2019 22:00:00 19.2 C 70 % 13.6 C
2570 03-08-2019 22:05:00 18.9 C 71 % 13.53 C
2571 03-08-2019 22:10:00 18.6 C 72 % 13.46 C
2572 03-08-2019 22:15:00 18.4 C 73 % 13.48 C
2573 03-08-2019 22:20:00 18.2 C 73 % 13.28 C
2574 03-08-2019 22:25:00 18.1 C 74 % 13.4 C
2575 03-08-2019 22:30:00 17.9 C 75 % 13.41 C
Sensor: Nr:Datum:Temp:Feuchte:Taupunkt:
Aussen-T/F 2576 03-08-2019 22:35:00 17.8 C 75 % 13.31 C
2577 03-08-2019 22:40:00 17.7 C 76 % 13.42 C
2578 03-08-2019 22:45:00 17.6 C 76 % 13.32 C
2579 03-08-2019 22:50:00 17.5 C 77 % 13.43 C
2580 03-08-2019 22:55:00 17.4 C 78 % 13.53 C
2581 03-08-2019 23:00:00 17.3 C 78 % 13.43 C
2582 03-08-2019 23:05:00 17.3 C 78 % 13.43 C
2583 03-08-2019 23:10:00 17.2 C 79 % 13.53 C
2584 03-08-2019 23:15:00 17.2 C 79 % 13.53 C
2585 03-08-2019 23:20:00 17.1 C 80 % 13.62 C
2586 03-08-2019 23:25:00 17.1 C 80 % 13.62 C
2587 03-08-2019 23:30:00 17.1 C 80 % 13.62 C
2588 03-08-2019 23:35:00 17 C 79 % 13.33 C
2589 03-08-2019 23:40:00 16.9 C 79 % 13.24 C
2590 03-08-2019 23:45:00 16.9 C 80 % 13.43 C
2591 03-08-2019 23:50:00 16.8 C 80 % 13.33 C
2592 03-08-2019 23:55:00 16.7 C 80 % 13.23 C
2593 04-08-2019 00:00:00 16.7 C 80 % 13.23 C
2594 04-08-2019 00:05:00 16.6 C 81 % 13.33 C
2595 04-08-2019 00:10:00 16.5 C 81 % 13.23 C
2596 04-08-2019 00:15:00 16.4 C 81 % 13.13 C
2597 04-08-2019 00:20:00 16.3 C 81 % 13.04 C
2598 04-08-2019 00:25:00 16.3 C 81 % 13.04 C
2599 04-08-2019 00:30:00 16.2 C 82 % 13.13 C
2600 04-08-2019 00:35:00 16.1 C 83 % 13.21 C
Sensor: Nr:Datum:Temp:Feuchte:Taupunkt:
Aussen-T/F 2601 04-08-2019 00:40:00 16.1 C 83 % 13.21 C
2602 04-08-2019 00:45:00 15.9 C 83 % 13.02 C
2603 04-08-2019 00:50:00 15.8 C 83 % 12.92 C
2604 04-08-2019 00:55:00 15.8 C 83 % 12.92 C
2605 04-08-2019 01:00:00 15.7 C 84 % 13.01 C
2606 04-08-2019 01:05:00 15.6 C 84 % 12.91 C
2607 04-08-2019 01:10:00 15.6 C 84 % 12.91 C
2608 04-08-2019 01:15:00 15.4 C 85 % 12.89 C
2609 04-08-2019 01:20:00 15.3 C 85 % 12.79 C
2610 04-08-2019 01:25:00 15.2 C 85 % 12.7 C
2611 04-08-2019 01:30:00 15.1 C 86 % 12.78 C
2612 04-08-2019 01:35:00 14.9 C 86 % 12.58 C
2613 04-08-2019 01:40:00 14.8 C 86 % 12.48 C
2614 04-08-2019 01:45:00 14.7 C 87 % 12.56 C
2615 04-08-2019 01:50:00 14.6 C 87 % 12.46 C
2616 04-08-2019 01:55:00 14.6 C 87 % 12.46 C
2617 04-08-2019 02:00:00 14.4 C 87 % 12.27 C
2618 04-08-2019 02:05:00 14.3 C 88 % 12.34 C
2619 04-08-2019 02:10:00 14.3 C 88 % 12.34 C
2620 04-08-2019 02:15:00 14.2 C 88 % 12.24 C
2621 04-08-2019 02:20:00 14.1 C 88 % 12.14 C
2622 04-08-2019 02:25:00 14 C 89 % 12.22 C
2623 04-08-2019 02:30:00 13.9 C 89 % 12.12 C
2624 04-08-2019 02:35:00 13.9 C 89 % 12.12 C
2625 04-08-2019 02:40:00 13.8 C 90 % 12.19 C
Sensor: Nr:Datum:Temp:Feuchte:Taupunkt:
Aussen-T/F 2626 04-08-2019 02:45:00 13.7 C 89 % 11.92 C
2627 04-08-2019 02:50:00 13.7 C 90 % 12.09 C
2628 04-08-2019 02:55:00 13.7 C 90 % 12.09 C
2629 04-08-2019 03:00:00 13.6 C 90 % 11.99 C
2630 04-08-2019 03:05:00 13.5 C 90 % 11.89 C
2631 04-08-2019 03:10:00 13.4 C 90 % 11.79 C
2632 04-08-2019 03:15:00 13.3 C 91 % 11.86 C
2633 04-08-2019 03:20:00 13.3 C 91 % 11.86 C
2634 04-08-2019 03:25:00 13.3 C 91 % 11.86 C
2635 04-08-2019 03:30:00 13.3 C 91 % 11.86 C
2636 04-08-2019 03:35:00 13.2 C 91 % 11.76 C
2637 04-08-2019 03:40:00 13.2 C 91 % 11.76 C
2638 04-08-2019 03:45:00 13.2 C 91 % 11.76 C
2639 04-08-2019 03:50:00 13.2 C 92 % 11.93 C
2640 04-08-2019 03:55:00 13.1 C 92 % 11.83 C
2641 04-08-2019 04:00:00 13.1 C 92 % 11.83 C
2642 04-08-2019 04:05:00 13.1 C 92 % 11.83 C
2643 04-08-2019 04:10:00 12.9 C 91 % 11.47 C
2644 04-08-2019 04:15:00 12.9 C 92 % 11.63 C
2645 04-08-2019 04:20:00 12.9 C 92 % 11.63 C
2646 04-08-2019 04:25:00 12.9 C 92 % 11.63 C
2647 04-08-2019 04:30:00 12.9 C 93 % 11.8 C
2648 04-08-2019 04:35:00 12.9 C 92 % 11.63 C
2649 04-08-2019 04:40:00 12.8 C 92 % 11.53 C
2650 04-08-2019 04:45:00 12.8 C 92 % 11.53 C
Sensor: Nr:Datum:Temp:Feuchte:Taupunkt:
Aussen-T/F 2651 04-08-2019 04:50:00 12.7 C 93 % 11.6 C
2652 04-08-2019 04:55:00 12.7 C 92 % 11.43 C
2653 04-08-2019 05:00:00 12.7 C 93 % 11.6 C
2654 04-08-2019 05:05:00 12.7 C 93 % 11.6 C
2655 04-08-2019 05:10:00 12.6 C 93 % 11.5 C
2656 04-08-2019 05:15:00 12.6 C 93 % 11.5 C
2657 04-08-2019 05:20:00 12.6 C 93 % 11.5 C
2658 04-08-2019 05:25:00 12.5 C 93 % 11.4 C
2659 04-08-2019 05:30:00 12.4 C 93 % 11.3 C
2660 04-08-2019 05:35:00 12.4 C 93 % 11.3 C
2661 04-08-2019 05:40:00 12.4 C 93 % 11.3 C
2662 04-08-2019 05:45:00 12.4 C 93 % 11.3 C
2663 04-08-2019 05:50:00 12.3 C 93 % 11.2 C
2664 04-08-2019 05:55:00 12.3 C 93 % 11.2 C
2665 04-08-2019 06:00:00 12.3 C 93 % 11.2 C
2666 04-08-2019 06:05:00 12.3 C 94 % 11.36 C
2667 04-08-2019 06:10:00 12.3 C 93 % 11.2 C
2668 04-08-2019 06:15:00 12.2 C 94 % 11.26 C
2669 04-08-2019 06:20:00 12.3 C 94 % 11.36 C
2670 04-08-2019 06:25:00 12.3 C 94 % 11.36 C
2671 04-08-2019 06:30:00 12.3 C 94 % 11.36 C
2672 04-08-2019 06:35:00 12.3 C 94 % 11.36 C
2673 04-08-2019 06:40:00 12.4 C 94 % 11.46 C
2674 04-08-2019 06:45:00 12.4 C 94 % 11.46 C
2675 04-08-2019 06:50:00 12.5 C 94 % 11.56 C
Sensor: Nr:Datum:Temp:Feuchte:Taupunkt:
Aussen-T/F 2676 04-08-2019 06:55:00 12.5 C 94 % 11.56 C
2677 04-08-2019 07:00:00 12.5 C 94 % 11.56 C
2678 04-08-2019 07:05:00 12.5 C 94 % 11.56 C
2679 04-08-2019 07:10:00 12.5 C 94 % 11.56 C
2680 04-08-2019 07:15:00 12.6 C 94 % 11.66 C
2681 04-08-2019 07:20:00 12.6 C 94 % 11.66 C
2682 04-08-2019 07:25:00 12.7 C 94 % 11.76 C
2683 04-08-2019 07:30:00 12.7 C 94 % 11.76 C
2684 04-08-2019 07:35:00 12.8 C 95 % 12.02 C
2685 04-08-2019 07:40:00 12.8 C 95 % 12.02 C
2686 04-08-2019 07:45:00 12.9 C 95 % 12.12 C
2687 04-08-2019 07:50:00 13 C 95 % 12.22 C
2688 04-08-2019 07:55:00 13.1 C 95 % 12.32 C
2689 04-08-2019 08:00:00 13.2 C 95 % 12.42 C
2690 04-08-2019 08:05:00 13.3 C 95 % 12.52 C
2691 04-08-2019 08:10:00 13.4 C 95 % 12.62 C
2692 04-08-2019 08:15:00 13.4 C 95 % 12.62 C
2693 04-08-2019 08:20:00 13.6 C 95 % 12.81 C
2694 04-08-2019 08:25:00 13.7 C 95 % 12.91 C
2695 04-08-2019 08:30:00 13.8 C 95 % 13.01 C
2696 04-08-2019 08:35:00 13.8 C 95 % 13.01 C
2697 04-08-2019 08:40:00 14 C 95 % 13.21 C
2698 04-08-2019 08:45:00 14.1 C 95 % 13.31 C
2699 04-08-2019 08:50:00 14.2 C 95 % 13.41 C
2700 04-08-2019 08:55:00 14.3 C 95 % 13.51 C
Sensor: Nr:Datum:Temp:Feuchte:Taupunkt:
Aussen-T/F 2701 04-08-2019 09:00:00 14.5 C 95 % 13.71 C
2702 04-08-2019 09:05:00 14.7 C 94 % 13.74 C
2703 04-08-2019 09:10:00 14.8 C 94 % 13.84 C
2704 04-08-2019 09:15:00 14.9 C 94 % 13.94 C
2705 04-08-2019 09:20:00 15.1 C 94 % 14.14 C
2706 04-08-2019 09:25:00 15.2 C 94 % 14.24 C
2707 04-08-2019 09:30:00 15.3 C 93 % 14.18 C
2708 04-08-2019 09:35:00 15.6 C 93 % 14.47 C
2709 04-08-2019 09:40:00 15.7 C 92 % 14.4 C
2710 04-08-2019 09:45:00 15.9 C 92 % 14.6 C
2711 04-08-2019 09:50:00 16.1 C 91 % 14.63 C
2712 04-08-2019 09:55:00 16.3 C 91 % 14.83 C
2713 04-08-2019 10:00:00 16.6 C 90 % 14.95 C
2714 04-08-2019 10:05:00 16.8 C 89 % 14.98 C
2715 04-08-2019 10:10:00 17 C 89 % 15.17 C
2716 04-08-2019 10:15:00 17.2 C 88 % 15.2 C
2717 04-08-2019 10:20:00 17.4 C 87 % 15.21 C
2718 04-08-2019 10:25:00 17.8 C 84 % 15.06 C
2719 04-08-2019 10:30:00 18.2 C 82 % 15.08 C
2720 04-08-2019 10:35:00 18.6 C 83 % 15.66 C
2721 04-08-2019 10:40:00 18.8 C 80 % 15.28 C
2722 04-08-2019 10:45:00 19.2 C 77 % 15.07 C
2723 04-08-2019 10:50:00 19.7 C 76 % 15.35 C
2724 04-08-2019 10:55:00 20 C 75 % 15.43 C
2725 04-08-2019 11:00:00 20.3 C 73 % 15.3 C
Sensor: Nr:Datum:Temp:Feuchte:Taupunkt:
Aussen-T/F 2726 04-08-2019 11:05:00 20.6 C 71 % 15.16 C
2727 04-08-2019 11:10:00 20.7 C 71 % 15.25 C
2728 04-08-2019 11:15:00 20.9 C 69 % 15 C
2729 04-08-2019 11:20:00 21.2 C 69 % 15.29 C
2730 04-08-2019 11:25:00 21.3 C 67 % 14.93 C
2731 04-08-2019 11:30:00 21.4 C 66 % 14.79 C
2732 04-08-2019 11:35:00 21.6 C 66 % 14.98 C
2733 04-08-2019 11:40:00 21.7 C 65 % 14.84 C
2734 04-08-2019 11:45:00 21.8 C 65 % 14.93 C
2735 04-08-2019 11:50:00 22 C 65 % 15.12 C
2736 04-08-2019 11:55:00 22.3 C 63 % 14.92 C
2737 04-08-2019 12:00:00 22.4 C 63 % 15.01 C
2738 04-08-2019 12:05:00 22.6 C 62 % 14.95 C
2739 04-08-2019 12:10:00 22.8 C 61 % 14.89 C
2740 04-08-2019 12:15:00 22.8 C 61 % 14.89 C
2741 04-08-2019 12:20:00 22.9 C 61 % 14.98 C
2742 04-08-2019 12:25:00 23.1 C 62 % 15.42 C
2743 04-08-2019 12:30:00 23.3 C 60 % 15.1 C
2744 04-08-2019 12:35:00 23.5 C 59 % 15.03 C
2745 04-08-2019 12:40:00 23.7 C 58 % 14.95 C
2746 04-08-2019 12:45:00 24 C 57 % 14.96 C
2747 04-08-2019 12:50:00 24.2 C 55 % 14.59 C
2748 04-08-2019 12:55:00 24.3 C 55 % 14.68 C
2749 04-08-2019 13:00:00 24.4 C 55 % 14.78 C
2750 04-08-2019 13:05:00 24.4 C 55 % 14.78 C
Sensor: Nr:Datum:Temp:Feuchte:Taupunkt:
Aussen-T/F 2751 04-08-2019 13:10:00 24.4 C 56 % 15.06 C
2752 04-08-2019 13:15:00 24.5 C 56 % 15.15 C
2753 04-08-2019 13:20:00 24.7 C 55 % 15.05 C
2754 04-08-2019 13:25:00 24.7 C 54 % 14.77 C
2755 04-08-2019 13:30:00 24.8 C 53 % 14.57 C
2756 04-08-2019 13:35:00 24.8 C 53 % 14.57 C
2757 04-08-2019 13:40:00 25 C 52 % 14.46 C
2758 04-08-2019 13:45:00 25.1 C 53 % 14.85 C
2759 04-08-2019 13:50:00 25.1 C 51 % 14.25 C
2760 04-08-2019 13:55:00 25.1 C 51 % 14.25 C
2761 04-08-2019 14:00:00 25.1 C 52 % 14.55 C
2762 04-08-2019 14:05:00 25.2 C 52 % 14.65 C
2763 04-08-2019 14:10:00 25.4 C 50 % 14.22 C
2764 04-08-2019 14:15:00 25.6 C 50 % 14.41 C
2765 04-08-2019 14:20:00 25.6 C 50 % 14.41 C
2766 04-08-2019 14:25:00 25.7 C 49 % 14.19 C
2767 04-08-2019 14:30:00 25.9 C 48 % 14.05 C
2768 04-08-2019 14:35:00 26.2 C 48 % 14.32 C
2769 04-08-2019 14:40:00 26.3 C 46 % 13.76 C
2770 04-08-2019 14:45:00 26.4 C 45 % 13.51 C
2771 04-08-2019 14:50:00 26.4 C 46 % 13.85 C
2772 04-08-2019 14:55:00 26.6 C 47 % 14.36 C
2773 04-08-2019 15:00:00 26.8 C 46 % 14.21 C
2774 04-08-2019 15:05:00 26.9 C 44 % 13.62 C
2775 04-08-2019 15:10:00 27.2 C 42 % 13.18 C
Sensor: Nr:Datum:Temp:Feuchte:Taupunkt:
Aussen-T/F 2776 04-08-2019 15:15:00 27.3 C 44 % 13.98 C
2777 04-08-2019 15:20:00 27.6 C 43 % 13.9 C
2778 04-08-2019 15:25:00 28.1 C 41 % 13.61 C
2779 04-08-2019 15:30:00 28.3 C 39 % 13.02 C
2780 04-08-2019 15:35:00 28.6 C 39 % 13.29 C
2781 04-08-2019 15:40:00 29 C 39 % 13.65 C
2782 04-08-2019 15:45:00 29.4 C 37 % 13.19 C
2783 04-08-2019 15:50:00 29.7 C 37 % 13.46 C
2784 04-08-2019 15:55:00 29.8 C 37 % 13.54 C
2785 04-08-2019 16:00:00 29.9 C 35 % 12.78 C
2786 04-08-2019 16:05:00 30.1 C 36 % 13.39 C
2787 04-08-2019 16:10:00 30.2 C 35 % 13.04 C
2788 04-08-2019 16:15:00 30.2 C 35 % 13.04 C
2789 04-08-2019 16:20:00 30.2 C 36 % 13.48 C
2790 04-08-2019 16:25:00 29.8 C 35 % 12.69 C
2791 04-08-2019 16:30:00 29.7 C 37 % 13.46 C
2792 04-08-2019 16:35:00 29.9 C 35 % 12.78 C
2793 04-08-2019 16:40:00 30.1 C 33 % 12.06 C
2794 04-08-2019 16:45:00 30.1 C 32 % 11.59 C
2795 04-08-2019 16:50:00 30.1 C 32 % 11.59 C
2796 04-08-2019 16:55:00 30.1 C 33 % 12.06 C
2797 04-08-2019 17:00:00 30.2 C 34 % 12.6 C
2798 04-08-2019 17:05:00 30.4 C 32 % 11.85 C
2799 04-08-2019 17:10:00 30.7 C 33 % 12.58 C
2800 04-08-2019 17:15:00 30.9 C 32 % 12.29 C
Sensor: Nr:Datum:Temp:Feuchte:Taupunkt:
Aussen-T/F 2801 04-08-2019 17:20:00 31 C 32 % 12.37 C
2802 04-08-2019 17:25:00 31.1 C 32 % 12.46 C
2803 04-08-2019 17:30:00 31.2 C 32 % 12.55 C
2804 04-08-2019 17:35:00 31.2 C 32 % 12.55 C
2805 04-08-2019 17:40:00 31.3 C 31 % 12.15 C
2806 04-08-2019 17:45:00 31.3 C 31 % 12.15 C
2807 04-08-2019 17:50:00 31.2 C 31 % 12.06 C
2808 04-08-2019 17:55:00 31 C 33 % 12.84 C
2809 04-08-2019 18:00:00 30.8 C 34 % 13.13 C
2810 04-08-2019 18:05:00 30.8 C 33 % 12.67 C
2811 04-08-2019 18:10:00 30.7 C 34 % 13.04 C
2812 04-08-2019 18:15:00 30.7 C 34 % 13.04 C
2813 04-08-2019 18:20:00 30.8 C 34 % 13.13 C
2814 04-08-2019 18:25:00 31.2 C 34 % 13.47 C
2815 04-08-2019 18:30:00 31.2 C 35 % 13.92 C
2816 04-08-2019 18:35:00 31 C 34 % 13.3 C
2817 04-08-2019 18:40:00 30.7 C 34 % 13.04 C
2818 04-08-2019 18:45:00 30.6 C 33 % 12.5 C
2819 04-08-2019 18:50:00 30.6 C 33 % 12.5 C
2820 04-08-2019 18:55:00 30.4 C 33 % 12.32 C
2821 04-08-2019 19:00:00 30.2 C 34 % 12.6 C
2822 04-08-2019 19:05:00 29.8 C 35 % 12.69 C
2823 04-08-2019 19:10:00 29.5 C 35 % 12.43 C
2824 04-08-2019 19:15:00 29.3 C 39 % 13.91 C
2825 04-08-2019 19:20:00 29.2 C 38 % 13.42 C
Sensor: Nr:Datum:Temp:Feuchte:Taupunkt:
Aussen-T/F 2826 04-08-2019 19:25:00 28.9 C 41 % 14.33 C
2827 04-08-2019 19:30:00 28.8 C 44 % 15.33 C
2828 04-08-2019 19:35:00 28.5 C 43 % 14.71 C
2829 04-08-2019 19:40:00 28.2 C 49 % 16.47 C
2830 04-08-2019 19:45:00 27.8 C 46 % 15.12 C
2831 04-08-2019 19:50:00 27.6 C 48 % 15.6 C
2832 04-08-2019 19:55:00 27.3 C 48 % 15.33 C
2833 04-08-2019 20:00:00 27.1 C 48 % 15.15 C
2834 04-08-2019 20:05:00 26.8 C 48 % 14.87 C
2835 04-08-2019 20:10:00 26.7 C 51 % 15.72 C
2836 04-08-2019 20:15:00 26.6 C 50 % 15.32 C
2837 04-08-2019 20:20:00 26.3 C 51 % 15.36 C
2838 04-08-2019 20:25:00 26.1 C 51 % 15.17 C
2839 04-08-2019 20:30:00 25.8 C 52 % 15.2 C
2840 04-08-2019 20:35:00 25.5 C 53 % 15.22 C
2841 04-08-2019 20:40:00 25.1 C 53 % 14.85 C
2842 04-08-2019 20:45:00 24.8 C 55 % 15.15 C
2843 04-08-2019 20:50:00 24.4 C 55 % 14.78 C
2844 04-08-2019 20:55:00 24.2 C 56 % 14.87 C
2845 04-08-2019 21:00:00 23.8 C 56 % 14.5 C
2846 04-08-2019 21:05:00 23.5 C 57 % 14.49 C
2847 04-08-2019 21:10:00 23.2 C 58 % 14.48 C
2848 04-08-2019 21:15:00 22.9 C 59 % 14.47 C
2849 04-08-2019 21:20:00 22.6 C 60 % 14.44 C
2850 04-08-2019 21:25:00 22.4 C 61 % 14.51 C
Sensor: Nr:Datum:Temp:Feuchte:Taupunkt:
Aussen-T/F 2851 04-08-2019 21:30:00 22.2 C 61 % 14.32 C
2852 04-08-2019 21:35:00 22.1 C 61 % 14.23 C
2853 04-08-2019 21:40:00 22 C 62 % 14.39 C
2854 04-08-2019 21:45:00 21.9 C 62 % 14.29 C
2855 04-08-2019 21:50:00 21.8 C 63 % 14.45 C
2856 04-08-2019 21:55:00 21.8 C 64 % 14.69 C
2857 04-08-2019 22:00:00 21.8 C 64 % 14.69 C
2858 04-08-2019 22:05:00 21.7 C 64 % 14.6 C
2859 04-08-2019 22:10:00 21.8 C 64 % 14.69 C
2860 04-08-2019 22:15:00 21.8 C 63 % 14.45 C
2861 04-08-2019 22:20:00 21.8 C 63 % 14.45 C
2862 04-08-2019 22:25:00 22 C 63 % 14.63 C
2863 04-08-2019 22:30:00 22.1 C 64 % 14.97 C
2864 04-08-2019 22:35:00 22.1 C 63 % 14.73 C
2865 04-08-2019 22:40:00 22.1 C 64 % 14.97 C
2866 04-08-2019 22:45:00 22.1 C 64 % 14.97 C
2867 04-08-2019 22:50:00 22.1 C 64 % 14.97 C
2868 04-08-2019 22:55:00 22.1 C 64 % 14.97 C
2869 04-08-2019 23:00:00 22.1 C 64 % 14.97 C
2870 04-08-2019 23:05:00 22.1 C 63 % 14.73 C
2871 04-08-2019 23:10:00 22.2 C 63 % 14.82 C
2872 04-08-2019 23:15:00 22.3 C 63 % 14.92 C
2873 04-08-2019 23:20:00 22.3 C 62 % 14.67 C
2874 04-08-2019 23:25:00 22.3 C 61 % 14.42 C
2875 04-08-2019 23:30:00 22.4 C 61 % 14.51 C
Sensor: Nr:Datum:Temp:Feuchte:Taupunkt:
Aussen-T/F 2876 04-08-2019 23:35:00 22.4 C 60 % 14.26 C
2877 04-08-2019 23:40:00 22.5 C 60 % 14.35 C
2878 04-08-2019 23:45:00 22.6 C 59 % 14.18 C
2879 04-08-2019 23:50:00 22.7 C 60 % 14.54 C
2880 04-08-2019 23:55:00 22.8 C 59 % 14.37 C
2881 05-08-2019 00:00:00 22.8 C 59 % 14.37 C
2882 05-08-2019 00:05:00 22.9 C 58 % 14.2 C
2883 05-08-2019 00:10:00 22.9 C 57 % 13.93 C
2884 05-08-2019 00:15:00 22.9 C 58 % 14.2 C
2885 05-08-2019 00:20:00 23 C 57 % 14.03 C
2886 05-08-2019 00:25:00 23 C 58 % 14.29 C
2887 05-08-2019 00:30:00 22.9 C 57 % 13.93 C
2888 05-08-2019 00:35:00 22.9 C 56 % 13.66 C
2889 05-08-2019 00:40:00 22.9 C 57 % 13.93 C
2890 05-08-2019 00:45:00 22.8 C 59 % 14.37 C
2891 05-08-2019 00:50:00 22.8 C 58 % 14.11 C
2892 05-08-2019 00:55:00 22.7 C 60 % 14.54 C
2893 05-08-2019 01:00:00 22.6 C 60 % 14.44 C
2894 05-08-2019 01:05:00 22.3 C 61 % 14.42 C
2895 05-08-2019 01:10:00 22.1 C 61 % 14.23 C
2896 05-08-2019 01:15:00 21.9 C 62 % 14.29 C
2897 05-08-2019 01:20:00 21.8 C 62 % 14.2 C
2898 05-08-2019 01:25:00 21.7 C 62 % 14.1 C
2899 05-08-2019 01:30:00 21.6 C 63 % 14.26 C
2900 05-08-2019 01:35:00 21.4 C 63 % 14.07 C
Sensor: Nr:Datum:Temp:Feuchte:Taupunkt:
Aussen-T/F 2901 05-08-2019 01:40:00 21.3 C 63 % 13.97 C
2902 05-08-2019 01:45:00 21.2 C 64 % 14.12 C
2903 05-08-2019 01:50:00 21.1 C 64 % 14.03 C
2904 05-08-2019 01:55:00 20.9 C 64 % 13.84 C
2905 05-08-2019 02:00:00 20.8 C 64 % 13.74 C
2906 05-08-2019 02:05:00 20.7 C 65 % 13.89 C
2907 05-08-2019 02:10:00 20.6 C 66 % 14.03 C
2908 05-08-2019 02:15:00 20.4 C 66 % 13.84 C
2909 05-08-2019 02:20:00 20.3 C 67 % 13.97 C
2910 05-08-2019 02:25:00 20.3 C 67 % 13.97 C
2911 05-08-2019 02:30:00 20.2 C 67 % 13.88 C
2912 05-08-2019 02:35:00 20.2 C 68 % 14.11 C
2913 05-08-2019 02:40:00 20.1 C 68 % 14.01 C
2914 05-08-2019 02:45:00 20 C 68 % 13.92 C
2915 05-08-2019 02:50:00 19.9 C 68 % 13.82 C
2916 05-08-2019 02:55:00 19.9 C 68 % 13.82 C
2917 05-08-2019 03:00:00 19.8 C 68 % 13.73 C
2918 05-08-2019 03:05:00 19.8 C 69 % 13.95 C
2919 05-08-2019 03:10:00 19.8 C 69 % 13.95 C
2920 05-08-2019 03:15:00 19.7 C 69 % 13.86 C
2921 05-08-2019 03:20:00 19.7 C 70 % 14.08 C
2922 05-08-2019 03:25:00 19.6 C 69 % 13.76 C
2923 05-08-2019 03:30:00 19.6 C 70 % 13.98 C
2924 05-08-2019 03:35:00 19.5 C 70 % 13.89 C
2925 05-08-2019 03:40:00 19.4 C 70 % 13.79 C
Sensor: Nr:Datum:Temp:Feuchte:Taupunkt:
Aussen-T/F 2926 05-08-2019 03:45:00 19.4 C 71 % 14.01 C
2927 05-08-2019 03:50:00 19.4 C 70 % 13.79 C
2928 05-08-2019 03:55:00 19.5 C 71 % 14.1 C
2929 05-08-2019 04:00:00 19.6 C 73 % 14.63 C
2930 05-08-2019 04:05:00 19.6 C 74 % 14.84 C
2931 05-08-2019 04:10:00 19.6 C 76 % 15.26 C
2932 05-08-2019 04:15:00 19.5 C 76 % 15.16 C
2933 05-08-2019 04:20:00 19.3 C 76 % 14.97 C
2934 05-08-2019 04:25:00 19.3 C 75 % 14.76 C
2935 05-08-2019 04:30:00 19.2 C 77 % 15.07 C
2936 05-08-2019 04:35:00 19.2 C 77 % 15.07 C
2937 05-08-2019 04:40:00 19.1 C 76 % 14.77 C
2938 05-08-2019 04:45:00 19.1 C 76 % 14.77 C
2939 05-08-2019 04:50:00 19.1 C 76 % 14.77 C
2940 05-08-2019 04:55:00 19.2 C 77 % 15.07 C
2941 05-08-2019 05:00:00 19.3 C 78 % 15.37 C
2942 05-08-2019 05:05:00 19.3 C 78 % 15.37 C
2943 05-08-2019 05:10:00 19.3 C 77 % 15.17 C
2944 05-08-2019 05:15:00 19.3 C 77 % 15.17 C
2945 05-08-2019 05:20:00 19.3 C 77 % 15.17 C
2946 05-08-2019 05:25:00 19.3 C 77 % 15.17 C
2947 05-08-2019 05:30:00 19.2 C 76 % 14.87 C
2948 05-08-2019 05:35:00 19.3 C 76 % 14.97 C
2949 05-08-2019 05:40:00 19.4 C 77 % 15.27 C
2950 05-08-2019 05:45:00 19.5 C 80 % 15.96 C
Sensor: Nr:Datum:Temp:Feuchte:Taupunkt:
Aussen-T/F 2951 05-08-2019 05:50:00 19.4 C 81 % 16.06 C
2952 05-08-2019 05:55:00 19.3 C 82 % 16.15 C
2953 05-08-2019 06:00:00 19.1 C 83 % 16.15 C
2954 05-08-2019 06:05:00 18.8 C 84 % 16.04 C
2955 05-08-2019 06:10:00 18.6 C 85 % 16.03 C
2956 05-08-2019 06:15:00 18.4 C 86 % 16.02 C
2957 05-08-2019 06:20:00 18.3 C 86 % 15.92 C
2958 05-08-2019 06:25:00 18.2 C 87 % 16 C
2959 05-08-2019 06:30:00 18.2 C 88 % 16.18 C
2960 05-08-2019 06:35:00 18.1 C 89 % 16.26 C
2961 05-08-2019 06:40:00 18.1 C 89 % 16.26 C
2962 05-08-2019 06:45:00 17.9 C 90 % 16.24 C
2963 05-08-2019 06:50:00 17.9 C 90 % 16.24 C
2964 05-08-2019 06:55:00 17.8 C 91 % 16.31 C
2965 05-08-2019 07:00:00 17.8 C 91 % 16.31 C
2966 05-08-2019 07:05:00 17.7 C 91 % 16.21 C
2967 05-08-2019 07:10:00 17.7 C 92 % 16.38 C
2968 05-08-2019 07:15:00 17.6 C 92 % 16.28 C
2969 05-08-2019 07:20:00 17.6 C 92 % 16.28 C
2970 05-08-2019 07:25:00 17.6 C 92 % 16.28 C
2971 05-08-2019 07:30:00 17.6 C 93 % 16.45 C
2972 05-08-2019 07:35:00 17.5 C 93 % 16.36 C
2973 05-08-2019 07:40:00 17.4 C 93 % 16.26 C
2974 05-08-2019 07:45:00 17.3 C 93 % 16.16 C
2975 05-08-2019 07:50:00 17.3 C 93 % 16.16 C
Sensor: Nr:Datum:Temp:Feuchte:Taupunkt:
Aussen-T/F 2976 05-08-2019 07:55:00 17.3 C 93 % 16.16 C
2977 05-08-2019 08:00:00 17.3 C 94 % 16.33 C
2978 05-08-2019 08:05:00 17.3 C 94 % 16.33 C
2979 05-08-2019 08:10:00 17.4 C 94 % 16.42 C
2980 05-08-2019 08:15:00 17.4 C 94 % 16.42 C
2981 05-08-2019 08:20:00 17.6 C 94 % 16.62 C
2982 05-08-2019 08:25:00 17.6 C 94 % 16.62 C
2983 05-08-2019 08:30:00 17.6 C 95 % 16.79 C
2984 05-08-2019 08:35:00 17.8 C 95 % 16.99 C
2985 05-08-2019 08:40:00 17.8 C 95 % 16.99 C
2986 05-08-2019 08:45:00 17.9 C 95 % 17.09 C
2987 05-08-2019 08:50:00 17.9 C 95 % 17.09 C
2988 05-08-2019 08:55:00 18.1 C 95 % 17.29 C
2989 05-08-2019 09:00:00 18.1 C 95 % 17.29 C
2990 05-08-2019 09:05:00 18.2 C 95 % 17.39 C
2991 05-08-2019 09:10:00 18.3 C 95 % 17.48 C
2992 05-08-2019 09:15:00 18.5 C 95 % 17.68 C
2993 05-08-2019 09:20:00 18.7 C 96 % 18.05 C
2994 05-08-2019 09:25:00 18.8 C 95 % 17.98 C
2995 05-08-2019 09:30:00 18.8 C 95 % 17.98 C
2996 05-08-2019 09:35:00 18.9 C 95 % 18.08 C
2997 05-08-2019 09:40:00 19.1 C 95 % 18.28 C
2998 05-08-2019 09:45:00 19.2 C 95 % 18.38 C
2999 05-08-2019 09:50:00 19.2 C 94 % 18.21 C
3000 05-08-2019 09:55:00 19.2 C 94 % 18.21 C
Sensor: Nr:Datum:Temp:Feuchte:Taupunkt:
Aussen-T/F 3001 05-08-2019 10:00:00 19.4 C 94 % 18.41 C
3002 05-08-2019 10:05:00 19.6 C 94 % 18.61 C
3003 05-08-2019 10:10:00 19.7 C 94 % 18.71 C
3004 05-08-2019 10:15:00 19.8 C 93 % 18.63 C
3005 05-08-2019 10:20:00 19.9 C 94 % 18.91 C
3006 05-08-2019 10:25:00 20.1 C 94 % 19.1 C
3007 05-08-2019 10:30:00 20.4 C 94 % 19.4 C
3008 05-08-2019 10:35:00 20.4 C 93 % 19.23 C
3009 05-08-2019 10:40:00 20.3 C 91 % 18.78 C
3010 05-08-2019 10:45:00 20.4 C 91 % 18.88 C
3011 05-08-2019 10:50:00 20.4 C 89 % 18.53 C
3012 05-08-2019 10:55:00 20.6 C 90 % 18.9 C
3013 05-08-2019 11:00:00 20.8 C 89 % 18.92 C
3014 05-08-2019 11:05:00 21.1 C 87 % 18.85 C
3015 05-08-2019 11:10:00 21.4 C 88 % 19.33 C
3016 05-08-2019 11:15:00 21.7 C 87 % 19.44 C
3017 05-08-2019 11:20:00 21.8 C 85 % 19.16 C
3018 05-08-2019 11:25:00 21.8 C 84 % 18.97 C
3019 05-08-2019 11:30:00 22.1 C 83 % 19.08 C
3020 05-08-2019 11:35:00 22.3 C 83 % 19.27 C
3021 05-08-2019 11:40:00 22.4 C 80 % 18.78 C
3022 05-08-2019 11:45:00 22.6 C 80 % 18.97 C
3023 05-08-2019 11:50:00 22.8 C 81 % 19.37 C
3024 05-08-2019 11:55:00 23.1 C 82 % 19.86 C
3025 05-08-2019 12:00:00 23.3 C 79 % 19.45 C
Sensor: Nr:Datum:Temp:Feuchte:Taupunkt:
Aussen-T/F 3026 05-08-2019 12:05:00 23.4 C 75 % 18.71 C
3027 05-08-2019 12:10:00 23.6 C 74 % 18.69 C
3028 05-08-2019 12:15:00 23.7 C 73 % 18.57 C
3029 05-08-2019 12:20:00 23.9 C 69 % 17.87 C
3030 05-08-2019 12:25:00 24.1 C 68 % 17.82 C
3031 05-08-2019 12:30:00 24.3 C 68 % 18.01 C
3032 05-08-2019 12:35:00 24.6 C 65 % 17.58 C
3033 05-08-2019 12:40:00 24.8 C 63 % 17.28 C
3034 05-08-2019 12:45:00 24.9 C 65 % 17.87 C
3035 05-08-2019 12:50:00 25.2 C 63 % 17.65 C
3036 05-08-2019 12:55:00 25.2 C 63 % 17.65 C
3037 05-08-2019 13:00:00 25.2 C 64 % 17.9 C
3038 05-08-2019 13:05:00 25.3 C 62 % 17.5 C
3039 05-08-2019 13:10:00 25.5 C 61 % 17.43 C
3040 05-08-2019 13:15:00 25.7 C 62 % 17.87 C
3041 05-08-2019 13:20:00 25.8 C 61 % 17.71 C
3042 05-08-2019 13:25:00 25.9 C 61 % 17.8 C
3043 05-08-2019 13:30:00 26.2 C 59 % 17.55 C
3044 05-08-2019 13:35:00 26.3 C 59 % 17.65 C
3045 05-08-2019 13:40:00 26.4 C 56 % 16.92 C
3046 05-08-2019 13:45:00 26.5 C 58 % 17.56 C
3047 05-08-2019 13:50:00 26.6 C 57 % 17.38 C
3048 05-08-2019 13:55:00 26.6 C 57 % 17.38 C
3049 05-08-2019 14:00:00 26.6 C 58 % 17.66 C
3050 05-08-2019 14:05:00 26.6 C 57 % 17.38 C
Sensor: Nr:Datum:Temp:Feuchte:Taupunkt:
Aussen-T/F 3051 05-08-2019 14:10:00 26.7 C 56 % 17.19 C
3052 05-08-2019 14:15:00 26.8 C 56 % 17.29 C
3053 05-08-2019 14:20:00 27.1 C 55 % 17.28 C
3054 05-08-2019 14:25:00 27.3 C 54 % 17.18 C
3055 05-08-2019 14:30:00 27.3 C 53 % 16.88 C
3056 05-08-2019 14:35:00 27.3 C 55 % 17.47 C
3057 05-08-2019 14:40:00 27.3 C 53 % 16.88 C
3058 05-08-2019 14:45:00 27.3 C 53 % 16.88 C
3059 05-08-2019 14:50:00 27.4 C 54 % 17.27 C
3060 05-08-2019 14:55:00 27.7 C 52 % 16.95 C
3061 05-08-2019 15:00:00 27.8 C 47 % 15.45 C
3062 05-08-2019 15:05:00 27.9 C 50 % 16.51 C
3063 05-08-2019 15:10:00 28 C 50 % 16.61 C
3064 05-08-2019 15:15:00 28.4 C 50 % 16.97 C
3065 05-08-2019 15:20:00 28.4 C 48 % 16.33 C
3066 05-08-2019 15:25:00 28.4 C 45 % 15.32 C
3067 05-08-2019 15:30:00 28.5 C 46 % 15.75 C
3068 05-08-2019 15:35:00 28.3 C 45 % 15.23 C
3069 05-08-2019 15:40:00 28.4 C 45 % 15.32 C
3070 05-08-2019 15:45:00 28.7 C 44 % 15.24 C
3071 05-08-2019 15:50:00 28.8 C 44 % 15.33 C
3072 05-08-2019 15:55:00 28.9 C 44 % 15.42 C
3073 05-08-2019 16:00:00 28.9 C 41 % 14.33 C
3074 05-08-2019 16:05:00 28.9 C 42 % 14.7 C
3075 05-08-2019 16:10:00 29 C 42 % 14.79 C
Sensor: Nr:Datum:Temp:Feuchte:Taupunkt:
Aussen-T/F 3076 05-08-2019 16:15:00 29.1 C 41 % 14.51 C
3077 05-08-2019 16:20:00 29.1 C 41 % 14.51 C
3078 05-08-2019 16:25:00 29.1 C 41 % 14.51 C
3079 05-08-2019 16:30:00 29.1 C 41 % 14.51 C
3080 05-08-2019 16:35:00 28.9 C 41 % 14.33 C
3081 05-08-2019 16:40:00 28.8 C 41 % 14.24 C
3082 05-08-2019 16:45:00 28.7 C 41 % 14.15 C
3083 05-08-2019 16:50:00 28.5 C 42 % 14.34 C
3084 05-08-2019 16:55:00 28.4 C 42 % 14.25 C
3085 05-08-2019 17:00:00 28.3 C 42 % 14.16 C
3086 05-08-2019 17:05:00 28.3 C 43 % 14.53 C
3087 05-08-2019 17:10:00 28.3 C 42 % 14.16 C
3088 05-08-2019 17:15:00 28.3 C 42 % 14.16 C
3089 05-08-2019 17:20:00 28.3 C 42 % 14.16 C
3090 05-08-2019 17:25:00 28.3 C 41 % 13.79 C
3091 05-08-2019 17:30:00 28.3 C 42 % 14.16 C
3092 05-08-2019 17:35:00 28.3 C 42 % 14.16 C
3093 05-08-2019 17:40:00 28.2 C 42 % 14.07 C
3094 05-08-2019 17:45:00 28.1 C 42 % 13.98 C
3095 05-08-2019 17:50:00 28 C 43 % 14.26 C
3096 05-08-2019 17:55:00 28 C 42 % 13.89 C
3097 05-08-2019 18:00:00 28.1 C 43 % 14.35 C
3098 05-08-2019 18:05:00 28.2 C 42 % 14.07 C
3099 05-08-2019 18:10:00 28.1 C 42 % 13.98 C
3100 05-08-2019 18:15:00 27.9 C 40 % 13.05 C
Sensor: Nr:Datum:Temp:Feuchte:Taupunkt:
Aussen-T/F 3101 05-08-2019 18:20:00 27.8 C 42 % 13.71 C
3102 05-08-2019 18:25:00 27.7 C 41 % 13.25 C
3103 05-08-2019 18:30:00 27.5 C 42 % 13.44 C
3104 05-08-2019 18:35:00 27.4 C 43 % 13.72 C
3105 05-08-2019 18:40:00 27.5 C 43 % 13.81 C
3106 05-08-2019 18:45:00 27.5 C 43 % 13.81 C
3107 05-08-2019 18:50:00 27.4 C 42 % 13.35 C
3108 05-08-2019 18:55:00 27.3 C 43 % 13.63 C
3109 05-08-2019 19:00:00 27.2 C 44 % 13.89 C
3110 05-08-2019 19:05:00 27.1 C 44 % 13.8 C
3111 05-08-2019 19:10:00 27.1 C 44 % 13.8 C
3112 05-08-2019 19:15:00 26.9 C 45 % 13.96 C
3113 05-08-2019 19:20:00 26.8 C 45 % 13.87 C
3114 05-08-2019 19:25:00 26.8 C 46 % 14.21 C
3115 05-08-2019 19:30:00 26.7 C 46 % 14.12 C
3116 05-08-2019 19:35:00 26.6 C 47 % 14.36 C
3117 05-08-2019 19:40:00 26.4 C 48 % 14.51 C
3118 05-08-2019 19:45:00 26.3 C 48 % 14.42 C
3119 05-08-2019 19:50:00 26.3 C 49 % 14.74 C
3120 05-08-2019 19:55:00 26.2 C 51 % 15.27 C
3121 05-08-2019 20:00:00 26.1 C 47 % 13.91 C
3122 05-08-2019 20:05:00 26 C 48 % 14.14 C
3123 05-08-2019 20:10:00 25.9 C 45 % 13.06 C
3124 05-08-2019 20:15:00 25.8 C 48 % 13.96 C
3125 05-08-2019 20:20:00 25.7 C 53 % 15.4 C
Sensor: Nr:Datum:Temp:Feuchte:Taupunkt:
Aussen-T/F 3126 05-08-2019 20:25:00 25.5 C 55 % 15.8 C
3127 05-08-2019 20:30:00 25.2 C 57 % 16.08 C
3128 05-08-2019 20:35:00 24.9 C 58 % 16.07 C
3129 05-08-2019 20:40:00 24.6 C 59 % 16.06 C
3130 05-08-2019 20:45:00 24.2 C 59 % 15.68 C
3131 05-08-2019 20:50:00 23.8 C 57 % 14.77 C
3132 05-08-2019 20:55:00 23.5 C 57 % 14.49 C
3133 05-08-2019 21:00:00 23.3 C 58 % 14.58 C
3134 05-08-2019 21:05:00 23 C 58 % 14.29 C
3135 05-08-2019 21:10:00 22.7 C 59 % 14.28 C
3136 05-08-2019 21:15:00 22.4 C 61 % 14.51 C
3137 05-08-2019 21:20:00 22.2 C 62 % 14.58 C
3138 05-08-2019 21:25:00 22 C 61 % 14.14 C
3139 05-08-2019 21:30:00 21.8 C 62 % 14.2 C
3140 05-08-2019 21:35:00 21.7 C 62 % 14.1 C
3141 05-08-2019 21:40:00 21.6 C 62 % 14.01 C
3142 05-08-2019 21:45:00 21.5 C 62 % 13.92 C
3143 05-08-2019 21:50:00 21.4 C 63 % 14.07 C
3144 05-08-2019 21:55:00 21.3 C 64 % 14.22 C
3145 05-08-2019 22:00:00 21.2 C 64 % 14.12 C
3146 05-08-2019 22:05:00 21.1 C 66 % 14.5 C
3147 05-08-2019 22:10:00 21 C 66 % 14.41 C
3148 05-08-2019 22:15:00 20.8 C 68 % 14.68 C
3149 05-08-2019 22:20:00 20.7 C 69 % 14.81 C
3150 05-08-2019 22:25:00 20.6 C 70 % 14.94 C
Sensor: Nr:Datum:Temp:Feuchte:Taupunkt:
Aussen-T/F 3151 05-08-2019 22:30:00 20.4 C 71 % 14.97 C
3152 05-08-2019 22:35:00 20.3 C 71 % 14.87 C
3153 05-08-2019 22:40:00 20.2 C 71 % 14.78 C
3154 05-08-2019 22:45:00 20.1 C 72 % 14.9 C
3155 05-08-2019 22:50:00 20 C 71 % 14.58 C
3156 05-08-2019 22:55:00 20 C 73 % 15.01 C
3157 05-08-2019 23:00:00 19.9 C 73 % 14.92 C
3158 05-08-2019 23:05:00 19.8 C 72 % 14.61 C
3159 05-08-2019 23:10:00 19.8 C 73 % 14.82 C
3160 05-08-2019 23:15:00 19.7 C 73 % 14.73 C
3161 05-08-2019 23:20:00 19.6 C 74 % 14.84 C
3162 05-08-2019 23:25:00 19.4 C 74 % 14.65 C
3163 05-08-2019 23:30:00 19.3 C 74 % 14.55 C
3164 05-08-2019 23:35:00 19.1 C 74 % 14.36 C
3165 05-08-2019 23:40:00 18.9 C 75 % 14.37 C
3166 05-08-2019 23:45:00 18.8 C 75 % 14.28 C
3167 05-08-2019 23:50:00 18.6 C 76 % 14.29 C
3168 05-08-2019 23:55:00 18.5 C 75 % 13.99 C
3169 06-08-2019 00:00:00 18.4 C 77 % 14.3 C
3170 06-08-2019 00:05:00 18.3 C 77 % 14.2 C
3171 06-08-2019 00:10:00 18.2 C 77 % 14.1 C
3172 06-08-2019 00:15:00 18.2 C 77 % 14.1 C
3173 06-08-2019 00:20:00 18.1 C 78 % 14.21 C
3174 06-08-2019 00:25:00 18.1 C 78 % 14.21 C
3175 06-08-2019 00:30:00 18 C 79 % 14.31 C
Sensor: Nr:Datum:Temp:Feuchte:Taupunkt:
Aussen-T/F 3176 06-08-2019 00:35:00 17.9 C 79 % 14.21 C
3177 06-08-2019 00:40:00 17.8 C 78 % 13.91 C
3178 06-08-2019 00:45:00 17.8 C 79 % 14.11 C
3179 06-08-2019 00:50:00 17.7 C 80 % 14.21 C
3180 06-08-2019 00:55:00 17.6 C 80 % 14.11 C
3181 06-08-2019 01:00:00 17.4 C 80 % 13.92 C
3182 06-08-2019 01:05:00 17.3 C 81 % 14.01 C
3183 06-08-2019 01:10:00 17.3 C 81 % 14.01 C
3184 06-08-2019 01:15:00 17.2 C 81 % 13.91 C
3185 06-08-2019 01:20:00 17.2 C 81 % 13.91 C
3186 06-08-2019 01:25:00 17.1 C 81 % 13.82 C
3187 06-08-2019 01:30:00 17.1 C 82 % 14 C
3188 06-08-2019 01:35:00 17.1 C 82 % 14 C
3189 06-08-2019 01:40:00 16.9 C 82 % 13.81 C
3190 06-08-2019 01:45:00 16.9 C 82 % 13.81 C
3191 06-08-2019 01:50:00 16.9 C 82 % 13.81 C
3192 06-08-2019 01:55:00 16.9 C 82 % 13.81 C
3193 06-08-2019 02:00:00 16.8 C 82 % 13.71 C
3194 06-08-2019 02:05:00 16.7 C 83 % 13.8 C
3195 06-08-2019 02:10:00 16.7 C 83 % 13.8 C
3196 06-08-2019 02:15:00 16.7 C 83 % 13.8 C
3197 06-08-2019 02:20:00 16.7 C 84 % 13.98 C
3198 06-08-2019 02:25:00 16.8 C 84 % 14.08 C
3199 06-08-2019 02:30:00 17 C 83 % 14.09 C
3200 06-08-2019 02:35:00 17.2 C 83 % 14.29 C
Sensor: Nr:Datum:Temp:Feuchte:Taupunkt:
Aussen-T/F 3201 06-08-2019 02:40:00 17.3 C 82 % 14.2 C
3202 06-08-2019 02:45:00 17.4 C 82 % 14.3 C
3203 06-08-2019 02:50:00 17.4 C 83 % 14.48 C
3204 06-08-2019 02:55:00 17.4 C 83 % 14.48 C
3205 06-08-2019 03:00:00 17.4 C 83 % 14.48 C
3206 06-08-2019 03:05:00 17.4 C 83 % 14.48 C
3207 06-08-2019 03:10:00 17.5 C 83 % 14.58 C
3208 06-08-2019 03:15:00 17.5 C 83 % 14.58 C
3209 06-08-2019 03:20:00 17.5 C 83 % 14.58 C
3210 06-08-2019 03:25:00 17.5 C 83 % 14.58 C
3211 06-08-2019 03:30:00 17.4 C 83 % 14.48 C
3212 06-08-2019 03:35:00 17.4 C 83 % 14.48 C
3213 06-08-2019 03:40:00 17.4 C 84 % 14.67 C
3214 06-08-2019 03:45:00 17.4 C 83 % 14.48 C
3215 06-08-2019 03:50:00 17.5 C 83 % 14.58 C
3216 06-08-2019 03:55:00 17.6 C 83 % 14.68 C
3217 06-08-2019 04:00:00 17.6 C 83 % 14.68 C
3218 06-08-2019 04:05:00 17.5 C 83 % 14.58 C
3219 06-08-2019 04:10:00 17.5 C 83 % 14.58 C
3220 06-08-2019 04:15:00 17.4 C 84 % 14.67 C
3221 06-08-2019 04:20:00 17.3 C 84 % 14.57 C
3222 06-08-2019 04:25:00 17.3 C 83 % 14.39 C
3223 06-08-2019 04:30:00 17.2 C 83 % 14.29 C
3224 06-08-2019 04:35:00 17.1 C 84 % 14.38 C
3225 06-08-2019 04:40:00 16.9 C 84 % 14.18 C
Sensor: Nr:Datum:Temp:Feuchte:Taupunkt:
Aussen-T/F 3226 06-08-2019 04:45:00 16.9 C 85 % 14.36 C
3227 06-08-2019 04:50:00 16.9 C 85 % 14.36 C
3228 06-08-2019 04:55:00 16.9 C 85 % 14.36 C
3229 06-08-2019 05:00:00 16.8 C 85 % 14.26 C
3230 06-08-2019 05:05:00 16.8 C 85 % 14.26 C
3231 06-08-2019 05:10:00 16.7 C 85 % 14.17 C
3232 06-08-2019 05:15:00 16.6 C 85 % 14.07 C
3233 06-08-2019 05:20:00 16.6 C 86 % 14.25 C
3234 06-08-2019 05:25:00 16.6 C 86 % 14.25 C
3235 06-08-2019 05:30:00 16.6 C 86 % 14.25 C
3236 06-08-2019 05:35:00 16.6 C 86 % 14.25 C
3237 06-08-2019 05:40:00 16.6 C 86 % 14.25 C
3238 06-08-2019 05:45:00 16.5 C 86 % 14.15 C
3239 06-08-2019 05:50:00 16.5 C 86 % 14.15 C
3240 06-08-2019 05:55:00 16.4 C 86 % 14.05 C
3241 06-08-2019 06:00:00 16.3 C 86 % 13.95 C
3242 06-08-2019 06:05:00 16.3 C 87 % 14.13 C
3243 06-08-2019 06:10:00 16.3 C 87 % 14.13 C
3244 06-08-2019 06:15:00 16.4 C 87 % 14.23 C
3245 06-08-2019 06:20:00 16.5 C 87 % 14.33 C
3246 06-08-2019 06:25:00 16.6 C 87 % 14.43 C
3247 06-08-2019 06:30:00 16.7 C 87 % 14.53 C
3248 06-08-2019 06:35:00 16.8 C 87 % 14.62 C
3249 06-08-2019 06:40:00 16.9 C 86 % 14.54 C
3250 06-08-2019 06:45:00 17 C 86 % 14.64 C
Sensor: Nr:Datum:Temp:Feuchte:Taupunkt:
Aussen-T/F 3251 06-08-2019 06:50:00 17.1 C 86 % 14.74 C
3252 06-08-2019 06:55:00 17.1 C 86 % 14.74 C
3253 06-08-2019 07:00:00 17.2 C 86 % 14.84 C
3254 06-08-2019 07:05:00 17.3 C 85 % 14.76 C
3255 06-08-2019 07:10:00 17.5 C 84 % 14.77 C
3256 06-08-2019 07:15:00 17.7 C 83 % 14.78 C
3257 06-08-2019 07:20:00 17.8 C 83 % 14.88 C
3258 06-08-2019 07:25:00 17.8 C 83 % 14.88 C
3259 06-08-2019 07:30:00 17.9 C 83 % 14.97 C
3260 06-08-2019 07:35:00 18 C 83 % 15.07 C
3261 06-08-2019 07:40:00 18.1 C 83 % 15.17 C
3262 06-08-2019 07:45:00 18.2 C 82 % 15.08 C
3263 06-08-2019 07:50:00 18.2 C 82 % 15.08 C
3264 06-08-2019 07:55:00 18.3 C 82 % 15.17 C
3265 06-08-2019 08:00:00 18.3 C 82 % 15.17 C
3266 06-08-2019 08:05:00 18.4 C 82 % 15.27 C
3267 06-08-2019 08:10:00 18.4 C 81 % 15.08 C
3268 06-08-2019 08:15:00 18.5 C 81 % 15.18 C
3269 06-08-2019 08:20:00 18.6 C 81 % 15.28 C
3270 06-08-2019 08:25:00 18.6 C 81 % 15.28 C
3271 06-08-2019 08:30:00 18.7 C 81 % 15.37 C
3272 06-08-2019 08:35:00 18.8 C 81 % 15.47 C
3273 06-08-2019 08:40:00 18.8 C 81 % 15.47 C
3274 06-08-2019 08:45:00 18.9 C 81 % 15.57 C
3275 06-08-2019 08:50:00 19 C 81 % 15.67 C
Sensor: Nr:Datum:Temp:Feuchte:Taupunkt:
Aussen-T/F 3276 06-08-2019 08:55:00 19.1 C 80 % 15.57 C
3277 06-08-2019 09:00:00 19.3 C 79 % 15.57 C
3278 06-08-2019 09:05:00 19.4 C 79 % 15.66 C
3279 06-08-2019 09:10:00 19.7 C 78 % 15.76 C
3280 06-08-2019 09:15:00 19.8 C 77 % 15.65 C
3281 06-08-2019 09:20:00 19.9 C 76 % 15.54 C
3282 06-08-2019 09:25:00 20.1 C 77 % 15.94 C
3283 06-08-2019 09:30:00 20.1 C 77 % 15.94 C
3284 06-08-2019 09:35:00 20.3 C 76 % 15.93 C
3285 06-08-2019 09:40:00 20.4 C 76 % 16.03 C
3286 06-08-2019 09:45:00 20.6 C 75 % 16.01 C
3287 06-08-2019 09:50:00 20.8 C 74 % 16 C
3288 06-08-2019 09:55:00 20.8 C 74 % 16 C
3289 06-08-2019 10:00:00 20.8 C 73 % 15.78 C
3290 06-08-2019 10:05:00 20.7 C 77 % 16.52 C
3291 06-08-2019 10:10:00 20.6 C 80 % 17.03 C
3292 06-08-2019 10:15:00 20.4 C 81 % 17.03 C
3293 06-08-2019 10:20:00 20.2 C 83 % 17.22 C
3294 06-08-2019 10:25:00 19.9 C 84 % 17.12 C
3295 06-08-2019 10:30:00 19.7 C 86 % 17.29 C
3296 06-08-2019 10:35:00 19.6 C 87 % 17.38 C
3297 06-08-2019 10:40:00 19.4 C 88 % 17.36 C
3298 06-08-2019 10:45:00 19.3 C 88 % 17.26 C
3299 06-08-2019 10:50:00 19.2 C 89 % 17.34 C
3300 06-08-2019 10:55:00 19.2 C 89 % 17.34 C
Sensor: Nr:Datum:Temp:Feuchte:Taupunkt:
Aussen-T/F 3301 06-08-2019 11:00:00 19.2 C 89 % 17.34 C
3302 06-08-2019 11:05:00 19.2 C 89 % 17.34 C
3303 06-08-2019 11:10:00 19.2 C 89 % 17.34 C
3304 06-08-2019 11:15:00 19.3 C 90 % 17.62 C
3305 06-08-2019 11:20:00 19.4 C 90 % 17.72 C
3306 06-08-2019 11:25:00 19.6 C 90 % 17.91 C
3307 06-08-2019 11:30:00 19.6 C 90 % 17.91 C
3308 06-08-2019 11:35:00 19.7 C 89 % 17.84 C
3309 06-08-2019 11:40:00 19.9 C 89 % 18.03 C
3310 06-08-2019 11:45:00 20.1 C 89 % 18.23 C
3311 06-08-2019 11:50:00 20.2 C 88 % 18.15 C
3312 06-08-2019 11:55:00 20.4 C 88 % 18.34 C
3313 06-08-2019 12:00:00 20.6 C 87 % 18.36 C
3314 06-08-2019 12:05:00 20.7 C 86 % 18.27 C
3315 06-08-2019 12:10:00 20.8 C 87 % 18.56 C
3316 06-08-2019 12:15:00 21 C 84 % 18.19 C
3317 06-08-2019 12:20:00 21.2 C 83 % 18.2 C
3318 06-08-2019 12:25:00 21.3 C 82 % 18.1 C
3319 06-08-2019 12:30:00 21.4 C 80 % 17.81 C
3320 06-08-2019 12:35:00 21.6 C 80 % 18 C
3321 06-08-2019 12:40:00 21.7 C 80 % 18.1 C
3322 06-08-2019 12:45:00 21.8 C 80 % 18.2 C
3323 06-08-2019 12:50:00 21.8 C 79 % 18 C
3324 06-08-2019 12:55:00 21.9 C 79 % 18.09 C
3325 06-08-2019 13:00:00 21.9 C 78 % 17.89 C
Sensor: Nr:Datum:Temp:Feuchte:Taupunkt:
Aussen-T/F 3326 06-08-2019 13:05:00 22 C 78 % 17.99 C
3327 06-08-2019 13:10:00 22.1 C 78 % 18.08 C
3328 06-08-2019 13:15:00 22.2 C 79 % 18.38 C
3329 06-08-2019 13:20:00 22.3 C 79 % 18.48 C
3330 06-08-2019 13:25:00 22.3 C 78 % 18.28 C
3331 06-08-2019 13:30:00 22.3 C 77 % 18.07 C
3332 06-08-2019 13:35:00 22.3 C 79 % 18.48 C
3333 06-08-2019 13:40:00 22.4 C 76 % 17.96 C
3334 06-08-2019 13:45:00 22.6 C 77 % 18.36 C
3335 06-08-2019 13:50:00 22.7 C 76 % 18.25 C
3336 06-08-2019 13:55:00 22.8 C 74 % 17.92 C
3337 06-08-2019 14:00:00 23.1 C 73 % 17.99 C
3338 06-08-2019 14:05:00 23.2 C 72 % 17.87 C
3339 06-08-2019 14:10:00 23.2 C 72 % 17.87 C
3340 06-08-2019 14:15:00 23.3 C 71 % 17.75 C
3341 06-08-2019 14:20:00 23.4 C 71 % 17.84 C
3342 06-08-2019 14:25:00 23.5 C 69 % 17.48 C
3343 06-08-2019 14:30:00 23.6 C 68 % 17.35 C
3344 06-08-2019 14:35:00 23.7 C 70 % 17.9 C
3345 06-08-2019 14:40:00 23.9 C 69 % 17.87 C
3346 06-08-2019 14:45:00 24.1 C 68 % 17.82 C
3347 06-08-2019 14:50:00 24.2 C 67 % 17.68 C
3348 06-08-2019 14:55:00 24.2 C 68 % 17.92 C
3349 06-08-2019 15:00:00 24.3 C 65 % 17.3 C
3350 06-08-2019 15:05:00 24.4 C 65 % 17.39 C
Sensor: Nr:Datum:Temp:Feuchte:Taupunkt:
Aussen-T/F 3351 06-08-2019 15:10:00 24.5 C 65 % 17.49 C
3352 06-08-2019 15:15:00 24.4 C 67 % 17.87 C
3353 06-08-2019 15:20:00 24.6 C 66 % 17.83 C
3354 06-08-2019 15:25:00 24.8 C 66 % 18.01 C
3355 06-08-2019 15:30:00 24.8 C 65 % 17.77 C
3356 06-08-2019 15:35:00 24.9 C 65 % 17.87 C
3357 06-08-2019 15:40:00 25 C 63 % 17.47 C
3358 06-08-2019 15:45:00 25 C 63 % 17.47 C
3359 06-08-2019 15:50:00 24.9 C 64 % 17.62 C
3360 06-08-2019 15:55:00 25.1 C 63 % 17.56 C
3361 06-08-2019 16:00:00 25.2 C 63 % 17.65 C
3362 06-08-2019 16:05:00 25.2 C 63 % 17.65 C
3363 06-08-2019 16:10:00 25.3 C 63 % 17.75 C
3364 06-08-2019 16:15:00 25.4 C 62 % 17.59 C
3365 06-08-2019 16:20:00 25.2 C 63 % 17.65 C
3366 06-08-2019 16:25:00 25.3 C 62 % 17.5 C
3367 06-08-2019 16:30:00 25.4 C 62 % 17.59 C
3368 06-08-2019 16:35:00 25.4 C 62 % 17.59 C
3369 06-08-2019 16:40:00 25.4 C 62 % 17.59 C
3370 06-08-2019 16:45:00 25.4 C 61 % 17.33 C
3371 06-08-2019 16:50:00 25.6 C 61 % 17.52 C
3372 06-08-2019 16:55:00 25.9 C 59 % 17.27 C
3373 06-08-2019 17:00:00 26.2 C 59 % 17.55 C
3374 06-08-2019 17:05:00 26.4 C 58 % 17.47 C
3375 06-08-2019 17:10:00 26.4 C 59 % 17.74 C
Sensor: Nr:Datum:Temp:Feuchte:Taupunkt:
Aussen-T/F 3376 06-08-2019 17:15:00 26.6 C 57 % 17.38 C
3377 06-08-2019 17:20:00 26.8 C 57 % 17.57 C
3378 06-08-2019 17:25:00 26.8 C 57 % 17.57 C
3379 06-08-2019 17:30:00 26.7 C 56 % 17.19 C
3380 06-08-2019 17:35:00 26.4 C 55 % 16.63 C
3381 06-08-2019 17:40:00 26.1 C 58 % 17.19 C
3382 06-08-2019 17:45:00 26 C 58 % 17.1 C
3383 06-08-2019 17:50:00 26.2 C 59 % 17.55 C
3384 06-08-2019 17:55:00 26.2 C 57 % 17.01 C
3385 06-08-2019 18:00:00 26.2 C 58 % 17.28 C
3386 06-08-2019 18:05:00 26 C 58 % 17.1 C
3387 06-08-2019 18:10:00 25.7 C 59 % 17.09 C
3388 06-08-2019 18:15:00 25.4 C 60 % 17.07 C
3389 06-08-2019 18:20:00 25.3 C 61 % 17.24 C
3390 06-08-2019 18:25:00 25.2 C 60 % 16.88 C
3391 06-08-2019 18:30:00 25.1 C 62 % 17.31 C
3392 06-08-2019 18:35:00 24.9 C 61 % 16.86 C
3393 06-08-2019 18:40:00 24.8 C 62 % 17.02 C
3394 06-08-2019 18:45:00 24.7 C 65 % 17.68 C
3395 06-08-2019 18:50:00 24.7 C 68 % 18.4 C
3396 06-08-2019 18:55:00 24.5 C 68 % 18.2 C
3397 06-08-2019 19:00:00 24.3 C 70 % 18.48 C
3398 06-08-2019 19:05:00 23.9 C 70 % 18.09 C
3399 06-08-2019 19:10:00 23.7 C 72 % 18.35 C
3400 06-08-2019 19:15:00 23.4 C 73 % 18.28 C
Sensor: Nr:Datum:Temp:Feuchte:Taupunkt:
Aussen-T/F 3401 06-08-2019 19:20:00 23.1 C 74 % 18.21 C
3402 06-08-2019 19:25:00 22.8 C 75 % 18.14 C
3403 06-08-2019 19:30:00 22.5 C 75 % 17.85 C
3404 06-08-2019 19:35:00 22.3 C 77 % 18.07 C
3405 06-08-2019 19:40:00 22 C 81 % 18.59 C
3406 06-08-2019 19:45:00 21.4 C 82 % 18.2 C
3407 06-08-2019 19:50:00 20.8 C 85 % 18.18 C
3408 06-08-2019 19:55:00 20.3 C 87 % 18.06 C
3409 06-08-2019 20:00:00 20 C 89 % 18.13 C
3410 06-08-2019 20:05:00 19.8 C 89 % 17.93 C
3411 06-08-2019 20:10:00 19.7 C 89 % 17.84 C
3412 06-08-2019 20:15:00 19.4 C 90 % 17.72 C
3413 06-08-2019 20:20:00 19.2 C 89 % 17.34 C
3414 06-08-2019 20:25:00 19 C 90 % 17.32 C
3415 06-08-2019 20:30:00 18.8 C 91 % 17.3 C
3416 06-08-2019 20:35:00 18.7 C 91 % 17.2 C
3417 06-08-2019 20:40:00 18.7 C 91 % 17.2 C
3418 06-08-2019 20:45:00 18.6 C 92 % 17.27 C
3419 06-08-2019 20:50:00 18.4 C 92 % 17.08 C
3420 06-08-2019 20:55:00 18.3 C 92 % 16.98 C
3421 06-08-2019 21:00:00 18.2 C 92 % 16.88 C
3422 06-08-2019 21:05:00 18.2 C 93 % 17.05 C
3423 06-08-2019 21:10:00 18.2 C 93 % 17.05 C
3424 06-08-2019 21:15:00 18.1 C 93 % 16.95 C
3425 06-08-2019 21:20:00 18.1 C 93 % 16.95 C
Sensor: Nr:Datum:Temp:Feuchte:Taupunkt:
Aussen-T/F 3426 06-08-2019 21:25:00 18 C 93 % 16.85 C
3427 06-08-2019 21:30:00 18 C 93 % 16.85 C
3428 06-08-2019 21:35:00 18 C 93 % 16.85 C
3429 06-08-2019 21:40:00 17.9 C 93 % 16.75 C
3430 06-08-2019 21:45:00 17.9 C 94 % 16.92 C
3431 06-08-2019 21:50:00 17.8 C 94 % 16.82 C
3432 06-08-2019 21:55:00 17.7 C 94 % 16.72 C
3433 06-08-2019 22:00:00 17.7 C 94 % 16.72 C
3434 06-08-2019 22:05:00 17.7 C 94 % 16.72 C
3435 06-08-2019 22:10:00 17.7 C 94 % 16.72 C
3436 06-08-2019 22:15:00 17.6 C 94 % 16.62 C
3437 06-08-2019 22:20:00 17.6 C 94 % 16.62 C
3438 06-08-2019 22:25:00 17.6 C 94 % 16.62 C
3439 06-08-2019 22:30:00 17.5 C 94 % 16.52 C
3440 06-08-2019 22:35:00 17.4 C 94 % 16.42 C
3441 06-08-2019 22:40:00 17.4 C 94 % 16.42 C
3442 06-08-2019 22:45:00 17.4 C 94 % 16.42 C
3443 06-08-2019 22:50:00 17.3 C 94 % 16.33 C
3444 06-08-2019 22:55:00 17.3 C 94 % 16.33 C
3445 06-08-2019 23:00:00 17.3 C 94 % 16.33 C
3446 06-08-2019 23:05:00 17.2 C 95 % 16.39 C
3447 06-08-2019 23:10:00 17.2 C 95 % 16.39 C
3448 06-08-2019 23:15:00 17.2 C 95 % 16.39 C
3449 06-08-2019 23:20:00 17.2 C 95 % 16.39 C
3450 06-08-2019 23:25:00 17.1 C 95 % 16.29 C
Sensor: Nr:Datum:Temp:Feuchte:Taupunkt:
Aussen-T/F 3451 06-08-2019 23:30:00 17.1 C 95 % 16.29 C
3452 06-08-2019 23:35:00 17 C 95 % 16.19 C
3453 06-08-2019 23:40:00 17 C 95 % 16.19 C
3454 06-08-2019 23:45:00 16.9 C 95 % 16.09 C
3455 06-08-2019 23:50:00 16.9 C 95 % 16.09 C
3456 06-08-2019 23:55:00 16.9 C 95 % 16.09 C
3457 07-08-2019 00:00:00 16.8 C 95 % 15.99 C
3458 07-08-2019 00:05:00 16.7 C 95 % 15.9 C
3459 07-08-2019 00:10:00 16.7 C 95 % 15.9 C
3460 07-08-2019 00:15:00 16.6 C 95 % 15.8 C
3461 07-08-2019 00:20:00 16.6 C 95 % 15.8 C
3462 07-08-2019 00:25:00 16.7 C 95 % 15.9 C
3463 07-08-2019 00:30:00 16.7 C 95 % 15.9 C
3464 07-08-2019 00:35:00 16.7 C 95 % 15.9 C
3465 07-08-2019 00:40:00 16.7 C 95 % 15.9 C
3466 07-08-2019 00:45:00 16.7 C 95 % 15.9 C
3467 07-08-2019 00:50:00 16.7 C 95 % 15.9 C
3468 07-08-2019 00:55:00 16.6 C 95 % 15.8 C
3469 07-08-2019 01:00:00 16.5 C 95 % 15.7 C
3470 07-08-2019 01:05:00 16.4 C 95 % 15.6 C
3471 07-08-2019 01:10:00 16.3 C 95 % 15.5 C
3472 07-08-2019 01:15:00 16.3 C 95 % 15.5 C
3473 07-08-2019 01:20:00 16.2 C 95 % 15.4 C
3474 07-08-2019 01:25:00 16.2 C 95 % 15.4 C
3475 07-08-2019 01:30:00 16.2 C 96 % 15.56 C
Sensor: Nr:Datum:Temp:Feuchte:Taupunkt:
Aussen-T/F 3476 07-08-2019 01:35:00 16.2 C 96 % 15.56 C
3477 07-08-2019 01:40:00 16.3 C 96 % 15.66 C
3478 07-08-2019 01:45:00 16.3 C 96 % 15.66 C
3479 07-08-2019 01:50:00 16.3 C 96 % 15.66 C
3480 07-08-2019 01:55:00 16.4 C 96 % 15.76 C
3481 07-08-2019 02:00:00 16.4 C 96 % 15.76 C
3482 07-08-2019 02:05:00 16.5 C 96 % 15.86 C
3483 07-08-2019 02:10:00 16.5 C 96 % 15.86 C
3484 07-08-2019 02:15:00 16.5 C 96 % 15.86 C
3485 07-08-2019 02:20:00 16.5 C 96 % 15.86 C
3486 07-08-2019 02:25:00 16.5 C 96 % 15.86 C
3487 07-08-2019 02:30:00 16.5 C 96 % 15.86 C
3488 07-08-2019 02:35:00 16.5 C 96 % 15.86 C
3489 07-08-2019 02:40:00 16.4 C 96 % 15.76 C
3490 07-08-2019 02:45:00 16.4 C 96 % 15.76 C
3491 07-08-2019 02:50:00 16.4 C 96 % 15.76 C
3492 07-08-2019 02:55:00 16.4 C 96 % 15.76 C
3493 07-08-2019 03:00:00 16.5 C 96 % 15.86 C
3494 07-08-2019 03:05:00 16.5 C 96 % 15.86 C
3495 07-08-2019 03:10:00 16.6 C 96 % 15.96 C
3496 07-08-2019 03:15:00 16.6 C 96 % 15.96 C
3497 07-08-2019 03:20:00 16.6 C 97 % 16.12 C
3498 07-08-2019 03:25:00 16.6 C 97 % 16.12 C
3499 07-08-2019 03:30:00 16.6 C 97 % 16.12 C
3500 07-08-2019 03:35:00 16.6 C 96 % 15.96 C
Sensor: Nr:Datum:Temp:Feuchte:Taupunkt:
Aussen-T/F 3501 07-08-2019 03:40:00 16.6 C 96 % 15.96 C
3502 07-08-2019 03:45:00 16.6 C 96 % 15.96 C
3503 07-08-2019 03:50:00 16.6 C 96 % 15.96 C
3504 07-08-2019 03:55:00 16.6 C 96 % 15.96 C
3505 07-08-2019 04:00:00 16.6 C 97 % 16.12 C
3506 07-08-2019 04:05:00 16.6 C 97 % 16.12 C
3507 07-08-2019 04:10:00 16.6 C 97 % 16.12 C
3508 07-08-2019 04:15:00 16.6 C 97 % 16.12 C
3509 07-08-2019 04:20:00 16.6 C 97 % 16.12 C
3510 07-08-2019 04:25:00 16.6 C 97 % 16.12 C
3511 07-08-2019 04:30:00 16.7 C 97 % 16.22 C
3512 07-08-2019 04:35:00 16.6 C 97 % 16.12 C
3513 07-08-2019 04:40:00 16.7 C 97 % 16.22 C
3514 07-08-2019 04:45:00 16.7 C 97 % 16.22 C
3515 07-08-2019 04:50:00 16.7 C 97 % 16.22 C
3516 07-08-2019 04:55:00 16.6 C 97 % 16.12 C
3517 07-08-2019 05:00:00 16.6 C 97 % 16.12 C
3518 07-08-2019 05:05:00 16.6 C 97 % 16.12 C
3519 07-08-2019 05:10:00 16.7 C 97 % 16.22 C
3520 07-08-2019 05:15:00 16.6 C 97 % 16.12 C
3521 07-08-2019 05:20:00 16.6 C 97 % 16.12 C
3522 07-08-2019 05:25:00 16.7 C 97 % 16.22 C
3523 07-08-2019 05:30:00 16.7 C 97 % 16.22 C
3524 07-08-2019 05:35:00 16.7 C 97 % 16.22 C
3525 07-08-2019 05:40:00 16.7 C 97 % 16.22 C
Sensor: Nr:Datum:Temp:Feuchte:Taupunkt:
Aussen-T/F 3526 07-08-2019 05:45:00 16.7 C 97 % 16.22 C
3527 07-08-2019 05:50:00 16.7 C 97 % 16.22 C
3528 07-08-2019 05:55:00 16.7 C 97 % 16.22 C
3529 07-08-2019 06:00:00 16.7 C 97 % 16.22 C
3530 07-08-2019 06:05:00 16.8 C 97 % 16.32 C
3531 07-08-2019 06:10:00 16.8 C 97 % 16.32 C
3532 07-08-2019 06:15:00 16.8 C 97 % 16.32 C
3533 07-08-2019 06:20:00 16.8 C 97 % 16.32 C
3534 07-08-2019 06:25:00 16.8 C 97 % 16.32 C
3535 07-08-2019 06:30:00 16.9 C 97 % 16.42 C
3536 07-08-2019 06:35:00 16.9 C 97 % 16.42 C
3537 07-08-2019 06:40:00 16.9 C 97 % 16.42 C
3538 07-08-2019 06:45:00 17 C 97 % 16.52 C
3539 07-08-2019 06:50:00 17 C 97 % 16.52 C
3540 07-08-2019 06:55:00 17.1 C 97 % 16.62 C
3541 07-08-2019 07:00:00 17.1 C 97 % 16.62 C
3542 07-08-2019 07:05:00 17.1 C 97 % 16.62 C
3543 07-08-2019 07:10:00 17.1 C 97 % 16.62 C
3544 07-08-2019 07:15:00 17.2 C 97 % 16.72 C
3545 07-08-2019 07:20:00 17.2 C 97 % 16.72 C
3546 07-08-2019 07:25:00 17.2 C 97 % 16.72 C
3547 07-08-2019 07:30:00 17.3 C 97 % 16.82 C
3548 07-08-2019 07:35:00 17.3 C 97 % 16.82 C
3549 07-08-2019 07:40:00 17.3 C 97 % 16.82 C
3550 07-08-2019 07:45:00 17.4 C 97 % 16.92 C
Sensor: Nr:Datum:Temp:Feuchte:Taupunkt:
Aussen-T/F 3551 07-08-2019 07:50:00 17.4 C 97 % 16.92 C
3552 07-08-2019 07:55:00 17.4 C 97 % 16.92 C
3553 07-08-2019 08:00:00 17.4 C 97 % 16.92 C
3554 07-08-2019 08:05:00 17.4 C 97 % 16.92 C
3555 07-08-2019 08:10:00 17.5 C 97 % 17.02 C
3556 07-08-2019 08:15:00 17.6 C 97 % 17.12 C
3557 07-08-2019 08:20:00 17.6 C 97 % 17.12 C
3558 07-08-2019 08:25:00 17.7 C 97 % 17.22 C
3559 07-08-2019 08:30:00 17.8 C 97 % 17.32 C
3560 07-08-2019 08:35:00 17.9 C 97 % 17.42 C
3561 07-08-2019 08:40:00 17.9 C 97 % 17.42 C
3562 07-08-2019 08:45:00 18.1 C 97 % 17.62 C
3563 07-08-2019 08:50:00 18.1 C 97 % 17.62 C
3564 07-08-2019 08:55:00 18.1 C 97 % 17.62 C
3565 07-08-2019 09:00:00 18.1 C 97 % 17.62 C
3566 07-08-2019 09:05:00 18.1 C 97 % 17.62 C
3567 07-08-2019 09:10:00 18 C 97 % 17.52 C
3568 07-08-2019 09:15:00 18 C 97 % 17.52 C
3569 07-08-2019 09:20:00 18.1 C 97 % 17.62 C
3570 07-08-2019 09:25:00 18.2 C 97 % 17.72 C
3571 07-08-2019 09:30:00 18.3 C 97 % 17.82 C
3572 07-08-2019 09:35:00 18.3 C 97 % 17.82 C
3573 07-08-2019 09:40:00 18.3 C 97 % 17.82 C
3574 07-08-2019 09:45:00 18.4 C 97 % 17.91 C
3575 07-08-2019 09:50:00 18.6 C 97 % 18.11 C
Sensor: Nr:Datum:Temp:Feuchte:Taupunkt:
Aussen-T/F 3576 07-08-2019 09:55:00 18.6 C 97 % 18.11 C
3577 07-08-2019 10:00:00 18.6 C 97 % 18.11 C
3578 07-08-2019 10:05:00 18.7 C 97 % 18.21 C
3579 07-08-2019 10:10:00 18.8 C 97 % 18.31 C
3580 07-08-2019 10:15:00 19 C 97 % 18.51 C
3581 07-08-2019 10:20:00 18.8 C 96 % 18.15 C
3582 07-08-2019 10:25:00 18.8 C 96 % 18.15 C
3583 07-08-2019 10:30:00 18.9 C 96 % 18.25 C
3584 07-08-2019 10:35:00 19.1 C 96 % 18.45 C
3585 07-08-2019 10:40:00 19.2 C 97 % 18.71 C
3586 07-08-2019 10:45:00 19.2 C 96 % 18.55 C
3587 07-08-2019 10:50:00 19.3 C 96 % 18.65 C
3588 07-08-2019 10:55:00 19.2 C 96 % 18.55 C
3589 07-08-2019 11:00:00 19.3 C 96 % 18.65 C
3590 07-08-2019 11:05:00 19.5 C 96 % 18.84 C
3591 07-08-2019 11:10:00 19.5 C 95 % 18.68 C
3592 07-08-2019 11:15:00 19.6 C 95 % 18.78 C
3593 07-08-2019 11:20:00 19.6 C 94 % 18.61 C
3594 07-08-2019 11:25:00 19.6 C 94 % 18.61 C
3595 07-08-2019 11:30:00 19.8 C 94 % 18.81 C
3596 07-08-2019 11:35:00 19.8 C 92 % 18.46 C
3597 07-08-2019 11:40:00 19.8 C 90 % 18.11 C
3598 07-08-2019 11:45:00 19.9 C 92 % 18.56 C
3599 07-08-2019 11:50:00 20.1 C 91 % 18.58 C
3600 07-08-2019 11:55:00 20.2 C 88 % 18.15 C
Sensor: Nr:Datum:Temp:Feuchte:Taupunkt:
Aussen-T/F 3601 07-08-2019 12:00:00 20.3 C 90 % 18.61 C
3602 07-08-2019 12:05:00 20.3 C 85 % 17.7 C
3603 07-08-2019 12:10:00 20.4 C 86 % 17.98 C
3604 07-08-2019 12:15:00 20.6 C 86 % 18.18 C
3605 07-08-2019 12:20:00 20.8 C 88 % 18.74 C
3606 07-08-2019 12:25:00 20.9 C 86 % 18.47 C
3607 07-08-2019 12:30:00 20.8 C 81 % 17.42 C
3608 07-08-2019 12:35:00 20.9 C 84 % 18.09 C
3609 07-08-2019 12:40:00 21.1 C 82 % 17.91 C
3610 07-08-2019 12:45:00 21.2 C 81 % 17.81 C
3611 07-08-2019 12:50:00 21.3 C 83 % 18.29 C
3612 07-08-2019 12:55:00 21.4 C 82 % 18.2 C
3613 07-08-2019 13:00:00 21.5 C 83 % 18.49 C
3614 07-08-2019 13:05:00 21.5 C 79 % 17.7 C
3615 07-08-2019 13:10:00 21.6 C 78 % 17.6 C
3616 07-08-2019 13:15:00 21.8 C 84 % 18.97 C
3617 07-08-2019 13:20:00 21.8 C 75 % 17.17 C
3618 07-08-2019 13:25:00 21.8 C 76 % 17.38 C
3619 07-08-2019 13:30:00 21.8 C 75 % 17.17 C
3620 07-08-2019 13:35:00 21.9 C 72 % 16.62 C
3621 07-08-2019 13:40:00 22 C 76 % 17.57 C
3622 07-08-2019 13:45:00 22.1 C 72 % 16.82 C
3623 07-08-2019 13:50:00 22.2 C 72 % 16.91 C
3624 07-08-2019 13:55:00 22.3 C 74 % 17.44 C
3625 07-08-2019 14:00:00 22.4 C 73 % 17.32 C
Sensor: Nr:Datum:Temp:Feuchte:Taupunkt:
Aussen-T/F 3626 07-08-2019 14:05:00 22.6 C 76 % 18.15 C
3627 07-08-2019 14:10:00 22.7 C 77 % 18.46 C
3628 07-08-2019 14:15:00 22.7 C 78 % 18.67 C
3629 07-08-2019 14:20:00 22.6 C 74 % 17.73 C
3630 07-08-2019 14:25:00 22.4 C 76 % 17.96 C
3631 07-08-2019 14:30:00 22.4 C 76 % 17.96 C
3632 07-08-2019 14:35:00 22.4 C 76 % 17.96 C
3633 07-08-2019 14:40:00 22.4 C 76 % 17.96 C
3634 07-08-2019 14:45:00 22.5 C 75 % 17.85 C
3635 07-08-2019 14:50:00 22.6 C 73 % 17.51 C
3636 07-08-2019 14:55:00 22.6 C 74 % 17.73 C
3637 07-08-2019 15:00:00 22.6 C 74 % 17.73 C
3638 07-08-2019 15:05:00 22.7 C 73 % 17.61 C
3639 07-08-2019 15:10:00 22.7 C 72 % 17.39 C
3640 07-08-2019 15:15:00 22.7 C 74 % 17.83 C
3641 07-08-2019 15:20:00 22.7 C 74 % 17.83 C
3642 07-08-2019 15:25:00 22.7 C 73 % 17.61 C
3643 07-08-2019 15:30:00 22.6 C 73 % 17.51 C
3644 07-08-2019 15:35:00 22.6 C 73 % 17.51 C
3645 07-08-2019 15:40:00 22.6 C 73 % 17.51 C
3646 07-08-2019 15:45:00 22.5 C 71 % 16.98 C
3647 07-08-2019 15:50:00 22.4 C 73 % 17.32 C
3648 07-08-2019 15:55:00 22.3 C 72 % 17.01 C
3649 07-08-2019 16:00:00 22.3 C 72 % 17.01 C
3650 07-08-2019 16:05:00 22.2 C 73 % 17.13 C
Sensor: Nr:Datum:Temp:Feuchte:Taupunkt:
Aussen-T/F 3651 07-08-2019 16:10:00 22.2 C 74 % 17.34 C
3652 07-08-2019 16:15:00 22.2 C 72 % 16.91 C
3653 07-08-2019 16:20:00 22.1 C 74 % 17.25 C
3654 07-08-2019 16:25:00 22 C 73 % 16.94 C
3655 07-08-2019 16:30:00 21.9 C 73 % 16.84 C
3656 07-08-2019 16:35:00 21.8 C 73 % 16.75 C
3657 07-08-2019 16:40:00 21.9 C 73 % 16.84 C
3658 07-08-2019 16:45:00 22.1 C 73 % 17.03 C
3659 07-08-2019 16:50:00 22.2 C 72 % 16.91 C
3660 07-08-2019 16:55:00 22.1 C 72 % 16.82 C
3661 07-08-2019 17:00:00 22.1 C 73 % 17.03 C
3662 07-08-2019 17:05:00 22 C 72 % 16.72 C
3663 07-08-2019 17:10:00 22 C 73 % 16.94 C
3664 07-08-2019 17:15:00 22.1 C 73 % 17.03 C
3665 07-08-2019 17:20:00 22.2 C 73 % 17.13 C
3666 07-08-2019 17:25:00 22.4 C 72 % 17.1 C
3667 07-08-2019 17:30:00 22.6 C 70 % 16.85 C
3668 07-08-2019 17:35:00 22.8 C 72 % 17.49 C
3669 07-08-2019 17:40:00 23.1 C 71 % 17.55 C
3670 07-08-2019 17:45:00 23.2 C 68 % 16.97 C
3671 07-08-2019 17:50:00 23.1 C 68 % 16.87 C
3672 07-08-2019 17:55:00 22.8 C 70 % 17.04 C
3673 07-08-2019 18:00:00 22.6 C 71 % 17.07 C
3674 07-08-2019 18:05:00 22.5 C 73 % 17.42 C
3675 07-08-2019 18:10:00 22.5 C 71 % 16.98 C
Sensor: Nr:Datum:Temp:Feuchte:Taupunkt:
Aussen-T/F 3676 07-08-2019 18:15:00 22.5 C 70 % 16.76 C
3677 07-08-2019 18:20:00 22.8 C 71 % 17.27 C
3678 07-08-2019 18:25:00 23.2 C 69 % 17.2 C
3679 07-08-2019 18:30:00 23.6 C 68 % 17.35 C
3680 07-08-2019 18:35:00 23.9 C 67 % 17.4 C
3681 07-08-2019 18:40:00 24.1 C 65 % 17.11 C
3682 07-08-2019 18:45:00 24.3 C 65 % 17.3 C
3683 07-08-2019 18:50:00 24.2 C 66 % 17.45 C
3684 07-08-2019 18:55:00 24.1 C 65 % 17.11 C
3685 07-08-2019 19:00:00 23.8 C 65 % 16.83 C
3686 07-08-2019 19:05:00 23.5 C 67 % 17.02 C
3687 07-08-2019 19:10:00 23.2 C 68 % 16.97 C
3688 07-08-2019 19:15:00 22.9 C 73 % 17.8 C
3689 07-08-2019 19:20:00 22.7 C 72 % 17.39 C
3690 07-08-2019 19:25:00 22.4 C 73 % 17.32 C
3691 07-08-2019 19:30:00 22.2 C 76 % 17.77 C
3692 07-08-2019 19:35:00 21.9 C 77 % 17.68 C
3693 07-08-2019 19:40:00 21.8 C 78 % 17.79 C
3694 07-08-2019 19:45:00 21.6 C 78 % 17.6 C
3695 07-08-2019 19:50:00 21.4 C 79 % 17.61 C
3696 07-08-2019 19:55:00 21.2 C 79 % 17.41 C
3697 07-08-2019 20:00:00 21.1 C 80 % 17.51 C
3698 07-08-2019 20:05:00 20.8 C 81 % 17.42 C
3699 07-08-2019 20:10:00 20.7 C 82 % 17.52 C
3700 07-08-2019 20:15:00 20.4 C 83 % 17.42 C
Sensor: Nr:Datum:Temp:Feuchte:Taupunkt:
Aussen-T/F 3701 07-08-2019 20:20:00 20.3 C 83 % 17.32 C
3702 07-08-2019 20:25:00 20.1 C 84 % 17.31 C
3703 07-08-2019 20:30:00 19.9 C 84 % 17.12 C
3704 07-08-2019 20:35:00 19.8 C 84 % 17.02 C
3705 07-08-2019 20:40:00 19.7 C 85 % 17.11 C
3706 07-08-2019 20:45:00 19.4 C 85 % 16.81 C
3707 07-08-2019 20:50:00 19.3 C 85 % 16.72 C
3708 07-08-2019 20:55:00 19.2 C 86 % 16.8 C
3709 07-08-2019 21:00:00 19.1 C 86 % 16.7 C
3710 07-08-2019 21:05:00 18.9 C 87 % 16.69 C
3711 07-08-2019 21:10:00 18.8 C 86 % 16.41 C
3712 07-08-2019 21:15:00 18.6 C 86 % 16.21 C
3713 07-08-2019 21:20:00 18.3 C 86 % 15.92 C
3714 07-08-2019 21:25:00 18.1 C 86 % 15.72 C
3715 07-08-2019 21:30:00 17.9 C 87 % 15.71 C
3716 07-08-2019 21:35:00 17.7 C 87 % 15.51 C
3717 07-08-2019 21:40:00 17.5 C 87 % 15.31 C
3718 07-08-2019 21:45:00 17.3 C 87 % 15.12 C
3719 07-08-2019 21:50:00 17.3 C 88 % 15.29 C
3720 07-08-2019 21:55:00 17.1 C 88 % 15.1 C
3721 07-08-2019 22:00:00 17.1 C 89 % 15.27 C
3722 07-08-2019 22:05:00 17 C 89 % 15.17 C
3723 07-08-2019 22:10:00 16.9 C 89 % 15.08 C
3724 07-08-2019 22:15:00 16.8 C 89 % 14.98 C
3725 07-08-2019 22:20:00 16.7 C 89 % 14.88 C
Sensor: Nr:Datum:Temp:Feuchte:Taupunkt:
Aussen-T/F 3726 07-08-2019 22:25:00 16.7 C 90 % 15.05 C
3727 07-08-2019 22:30:00 16.7 C 90 % 15.05 C
3728 07-08-2019 22:35:00 16.6 C 90 % 14.95 C
3729 07-08-2019 22:40:00 16.6 C 90 % 14.95 C
3730 07-08-2019 22:45:00 16.6 C 91 % 15.13 C
3731 07-08-2019 22:50:00 16.6 C 91 % 15.13 C
3732 07-08-2019 22:55:00 16.6 C 90 % 14.95 C
3733 07-08-2019 23:00:00 16.7 C 89 % 14.88 C
3734 07-08-2019 23:05:00 16.8 C 90 % 15.15 C
3735 07-08-2019 23:10:00 16.8 C 89 % 14.98 C
3736 07-08-2019 23:15:00 16.8 C 89 % 14.98 C
3737 07-08-2019 23:20:00 16.8 C 89 % 14.98 C
3738 07-08-2019 23:25:00 16.8 C 89 % 14.98 C
3739 07-08-2019 23:30:00 16.8 C 89 % 14.98 C
3740 07-08-2019 23:35:00 16.7 C 89 % 14.88 C
3741 07-08-2019 23:40:00 16.6 C 89 % 14.78 C
3742 07-08-2019 23:45:00 16.4 C 89 % 14.58 C
3743 07-08-2019 23:50:00 16.3 C 89 % 14.48 C
3744 07-08-2019 23:55:00 16.2 C 90 % 14.56 C
3745 08-08-2019 00:00:00 16.1 C 90 % 14.46 C
3746 08-08-2019 00:05:00 15.9 C 90 % 14.26 C
3747 08-08-2019 00:10:00 15.8 C 90 % 14.16 C
3748 08-08-2019 00:15:00 15.7 C 90 % 14.06 C
3749 08-08-2019 00:20:00 15.7 C 91 % 14.24 C
3750 08-08-2019 00:25:00 15.6 C 91 % 14.14 C
Sensor: Nr:Datum:Temp:Feuchte:Taupunkt:
Aussen-T/F 3751 08-08-2019 00:30:00 15.6 C 92 % 14.31 C
3752 08-08-2019 00:35:00 15.6 C 92 % 14.31 C
3753 08-08-2019 00:40:00 15.6 C 92 % 14.31 C
3754 08-08-2019 00:45:00 15.7 C 93 % 14.57 C
3755 08-08-2019 00:50:00 15.8 C 93 % 14.67 C
3756 08-08-2019 00:55:00 16.1 C 93 % 14.97 C
3757 08-08-2019 01:00:00 16.2 C 92 % 14.9 C
3758 08-08-2019 01:05:00 16.2 C 92 % 14.9 C
3759 08-08-2019 01:10:00 16.3 C 92 % 15 C
3760 08-08-2019 01:15:00 16.3 C 92 % 15 C
3761 08-08-2019 01:20:00 16.4 C 92 % 15.1 C
3762 08-08-2019 01:25:00 16.4 C 92 % 15.1 C
3763 08-08-2019 01:30:00 16.4 C 92 % 15.1 C
3764 08-08-2019 01:35:00 16.4 C 92 % 15.1 C
3765 08-08-2019 01:40:00 16.4 C 92 % 15.1 C
3766 08-08-2019 01:45:00 16.4 C 92 % 15.1 C
3767 08-08-2019 01:50:00 16.4 C 92 % 15.1 C
3768 08-08-2019 01:55:00 16.4 C 92 % 15.1 C
3769 08-08-2019 02:00:00 16.4 C 92 % 15.1 C
3770 08-08-2019 02:05:00 16.5 C 92 % 15.2 C
3771 08-08-2019 02:10:00 16.5 C 92 % 15.2 C
3772 08-08-2019 02:15:00 16.5 C 92 % 15.2 C
3773 08-08-2019 02:20:00 16.5 C 92 % 15.2 C
3774 08-08-2019 02:25:00 16.5 C 92 % 15.2 C
3775 08-08-2019 02:30:00 16.5 C 92 % 15.2 C
Sensor: Nr:Datum:Temp:Feuchte:Taupunkt:
Aussen-T/F 3776 08-08-2019 02:35:00 16.5 C 92 % 15.2 C
3777 08-08-2019 02:40:00 16.4 C 92 % 15.1 C
3778 08-08-2019 02:45:00 16.4 C 92 % 15.1 C
3779 08-08-2019 02:50:00 16.4 C 92 % 15.1 C
3780 08-08-2019 02:55:00 16.3 C 92 % 15 C
3781 08-08-2019 03:00:00 16.3 C 92 % 15 C
3782 08-08-2019 03:05:00 16.4 C 92 % 15.1 C
3783 08-08-2019 03:10:00 16.4 C 92 % 15.1 C
3784 08-08-2019 03:15:00 16.4 C 92 % 15.1 C
3785 08-08-2019 03:20:00 16.5 C 92 % 15.2 C
3786 08-08-2019 03:25:00 16.6 C 92 % 15.3 C
3787 08-08-2019 03:30:00 16.6 C 92 % 15.3 C
3788 08-08-2019 03:35:00 16.6 C 92 % 15.3 C
3789 08-08-2019 03:40:00 16.5 C 92 % 15.2 C
3790 08-08-2019 03:45:00 16.4 C 92 % 15.1 C
3791 08-08-2019 03:50:00 16.3 C 91 % 14.83 C
3792 08-08-2019 03:55:00 16.3 C 92 % 15 C
3793 08-08-2019 04:00:00 16.2 C 92 % 14.9 C
3794 08-08-2019 04:05:00 16.2 C 92 % 14.9 C
3795 08-08-2019 04:10:00 16.2 C 92 % 14.9 C
3796 08-08-2019 04:15:00 16.1 C 93 % 14.97 C
3797 08-08-2019 04:20:00 16.1 C 92 % 14.8 C
3798 08-08-2019 04:25:00 16.1 C 93 % 14.97 C
3799 08-08-2019 04:30:00 16 C 93 % 14.87 C
3800 08-08-2019 04:35:00 16 C 93 % 14.87 C
Sensor: Nr:Datum:Temp:Feuchte:Taupunkt:
Aussen-T/F 3801 08-08-2019 04:40:00 16 C 93 % 14.87 C
3802 08-08-2019 04:45:00 16 C 93 % 14.87 C
3803 08-08-2019 04:50:00 16 C 93 % 14.87 C
3804 08-08-2019 04:55:00 15.9 C 93 % 14.77 C
3805 08-08-2019 05:00:00 15.8 C 93 % 14.67 C
3806 08-08-2019 05:05:00 15.7 C 93 % 14.57 C
3807 08-08-2019 05:10:00 15.6 C 92 % 14.31 C
3808 08-08-2019 05:15:00 15.4 C 92 % 14.11 C
3809 08-08-2019 05:20:00 15.3 C 93 % 14.18 C
3810 08-08-2019 05:25:00 15.2 C 93 % 14.08 C
3811 08-08-2019 05:30:00 15.1 C 93 % 13.98 C
3812 08-08-2019 05:35:00 15 C 93 % 13.88 C
3813 08-08-2019 05:40:00 15.1 C 94 % 14.14 C
3814 08-08-2019 05:45:00 15.1 C 94 % 14.14 C
3815 08-08-2019 05:50:00 15.2 C 94 % 14.24 C
3816 08-08-2019 05:55:00 15.3 C 95 % 14.5 C
3817 08-08-2019 06:00:00 15.3 C 95 % 14.5 C
3818 08-08-2019 06:05:00 15.4 C 95 % 14.6 C
3819 08-08-2019 06:10:00 15.4 C 95 % 14.6 C
3820 08-08-2019 06:15:00 15.6 C 95 % 14.8 C
3821 08-08-2019 06:20:00 15.7 C 94 % 14.74 C
3822 08-08-2019 06:25:00 15.8 C 94 % 14.84 C
3823 08-08-2019 06:30:00 15.8 C 94 % 14.84 C
3824 08-08-2019 06:35:00 15.9 C 94 % 14.94 C
3825 08-08-2019 06:40:00 15.9 C 93 % 14.77 C
Sensor: Nr:Datum:Temp:Feuchte:Taupunkt:
Aussen-T/F 3826 08-08-2019 06:45:00 15.9 C 93 % 14.77 C
3827 08-08-2019 06:50:00 15.9 C 93 % 14.77 C
3828 08-08-2019 06:55:00 15.8 C 93 % 14.67 C
3829 08-08-2019 07:00:00 15.8 C 93 % 14.67 C
3830 08-08-2019 07:05:00 15.8 C 93 % 14.67 C
3831 08-08-2019 07:10:00 15.8 C 93 % 14.67 C
3832 08-08-2019 07:15:00 15.8 C 93 % 14.67 C
3833 08-08-2019 07:20:00 15.8 C 93 % 14.67 C
3834 08-08-2019 07:25:00 15.9 C 94 % 14.94 C
3835 08-08-2019 07:30:00 15.9 C 94 % 14.94 C
3836 08-08-2019 07:35:00 16 C 94 % 15.03 C
3837 08-08-2019 07:40:00 16.1 C 94 % 15.13 C
3838 08-08-2019 07:45:00 16.1 C 94 % 15.13 C
3839 08-08-2019 07:50:00 16.2 C 94 % 15.23 C
3840 08-08-2019 07:55:00 16.2 C 94 % 15.23 C
3841 08-08-2019 08:00:00 16.3 C 94 % 15.33 C
3842 08-08-2019 08:05:00 16.4 C 93 % 15.27 C
3843 08-08-2019 08:10:00 16.6 C 93 % 15.46 C
3844 08-08-2019 08:15:00 16.7 C 92 % 15.39 C
3845 08-08-2019 08:20:00 16.9 C 92 % 15.59 C
3846 08-08-2019 08:25:00 17.1 C 91 % 15.62 C
3847 08-08-2019 08:30:00 17.2 C 91 % 15.72 C
3848 08-08-2019 08:35:00 17.3 C 90 % 15.64 C
3849 08-08-2019 08:40:00 17.4 C 90 % 15.74 C
3850 08-08-2019 08:45:00 17.5 C 90 % 15.84 C
Sensor: Nr:Datum:Temp:Feuchte:Taupunkt:
Aussen-T/F 3851 08-08-2019 08:50:00 17.6 C 89 % 15.77 C
3852 08-08-2019 08:55:00 17.7 C 89 % 15.86 C
3853 08-08-2019 09:00:00 17.8 C 89 % 15.96 C
3854 08-08-2019 09:05:00 17.9 C 88 % 15.88 C
3855 08-08-2019 09:10:00 18.1 C 88 % 16.08 C
3856 08-08-2019 09:15:00 18.3 C 87 % 16.1 C
3857 08-08-2019 09:20:00 18.4 C 85 % 15.83 C
3858 08-08-2019 09:25:00 18.5 C 85 % 15.93 C
3859 08-08-2019 09:30:00 18.6 C 84 % 15.84 C
3860 08-08-2019 09:35:00 18.7 C 84 % 15.94 C
3861 08-08-2019 09:40:00 18.9 C 81 % 15.57 C
3862 08-08-2019 09:45:00 19.1 C 81 % 15.76 C
3863 08-08-2019 09:50:00 19.2 C 80 % 15.67 C
3864 08-08-2019 09:55:00 19.2 C 77 % 15.07 C
3865 08-08-2019 10:00:00 19.3 C 76 % 14.97 C
3866 08-08-2019 10:05:00 19.4 C 74 % 14.65 C
3867 08-08-2019 10:10:00 19.5 C 76 % 15.16 C
3868 08-08-2019 10:15:00 19.6 C 76 % 15.26 C
3869 08-08-2019 10:20:00 19.7 C 73 % 14.73 C
3870 08-08-2019 10:25:00 19.9 C 73 % 14.92 C
3871 08-08-2019 10:30:00 20.2 C 72 % 14.99 C
3872 08-08-2019 10:35:00 20.3 C 72 % 15.09 C
3873 08-08-2019 10:40:00 20.5 C 72 % 15.28 C
3874 08-08-2019 10:45:00 20.7 C 71 % 15.25 C
3875 08-08-2019 10:50:00 20.8 C 71 % 15.35 C
Sensor: Nr:Datum:Temp:Feuchte:Taupunkt:
Aussen-T/F 3876 08-08-2019 10: